<?xml version="1.0" encoding="UTF-8" standalone="no" ?>
<gpx xmlns="http://www.topografix.com/GPX/1/1" xmlns:xsi="http://www.w3.org/2001/XMLSchema-instance" xsi:schemaLocation="http://www.topografix.com/GPX/1/1 http://www.topografix.com/GPX/1/1/gpx.xsd" version="1.1" creator="VisuGPX - https://www.visugpx.com">
  <metadata>
    <name>PeyreMartineSeranne</name>
    <desc><![CDATA[
]]></desc>
  </metadata>
  <trk>
    <name><![CDATA[PeyreMartineSeranne]]></name>
    <trkseg>
      <trkpt lat="43.82696" lon="3.61802">
        <ele>172.2</ele>
        <time>2019-12-15T08:46:3.000Z</time>
      </trkpt>
      <trkpt lat="43.82716" lon="3.61796">
        <ele>171.7</ele>
        <time>2019-12-15T08:46:20.000Z</time>
      </trkpt>
      <trkpt lat="43.82725" lon="3.61789">
        <ele>171.7</ele>
        <time>2019-12-15T08:46:29.000Z</time>
      </trkpt>
      <trkpt lat="43.82743" lon="3.61773">
        <ele>172.2</ele>
        <time>2019-12-15T08:46:47.000Z</time>
      </trkpt>
      <trkpt lat="43.82757" lon="3.61762">
        <ele>172.2</ele>
        <time>2019-12-15T08:47:3.000Z</time>
      </trkpt>
      <trkpt lat="43.82773" lon="3.61754">
        <ele>172.7</ele>
        <time>2019-12-15T08:47:19.000Z</time>
      </trkpt>
      <trkpt lat="43.82781" lon="3.61743">
        <ele>172.2</ele>
        <time>2019-12-15T08:47:35.000Z</time>
      </trkpt>
      <trkpt lat="43.82778" lon="3.61731">
        <ele>172.7</ele>
        <time>2019-12-15T08:47:43.000Z</time>
      </trkpt>
      <trkpt lat="43.8278" lon="3.6171">
        <ele>173.2</ele>
        <time>2019-12-15T08:47:57.000Z</time>
      </trkpt>
      <trkpt lat="43.82788" lon="3.61685">
        <ele>173.7</ele>
        <time>2019-12-15T08:48:15.000Z</time>
      </trkpt>
      <trkpt lat="43.82793" lon="3.61667">
        <ele>174.6</ele>
        <time>2019-12-15T08:48:30.000Z</time>
      </trkpt>
      <trkpt lat="43.82782" lon="3.6166">
        <ele>175.1</ele>
        <time>2019-12-15T08:48:40.000Z</time>
      </trkpt>
      <trkpt lat="43.82779" lon="3.61638">
        <ele>175.6</ele>
        <time>2019-12-15T08:48:55.000Z</time>
      </trkpt>
      <trkpt lat="43.82772" lon="3.61621">
        <ele>176.5</ele>
        <time>2019-12-15T08:49:10.000Z</time>
      </trkpt>
      <trkpt lat="43.82776" lon="3.61602">
        <ele>178.5</ele>
        <time>2019-12-15T08:49:25.000Z</time>
      </trkpt>
      <trkpt lat="43.82779" lon="3.61583">
        <ele>179.4</ele>
        <time>2019-12-15T08:49:39.000Z</time>
      </trkpt>
      <trkpt lat="43.82774" lon="3.61566">
        <ele>180.9</ele>
        <time>2019-12-15T08:49:54.000Z</time>
      </trkpt>
      <trkpt lat="43.8277" lon="3.61568">
        <ele>180.9</ele>
        <time>2019-12-15T08:50:8.000Z</time>
      </trkpt>
      <trkpt lat="43.82758" lon="3.61569">
        <ele>182.8</ele>
        <time>2019-12-15T08:50:24.000Z</time>
      </trkpt>
      <trkpt lat="43.82752" lon="3.61563">
        <ele>183.8</ele>
        <time>2019-12-15T08:50:32.000Z</time>
      </trkpt>
      <trkpt lat="43.82741" lon="3.61551">
        <ele>184.2</ele>
        <time>2019-12-15T08:50:46.000Z</time>
      </trkpt>
      <trkpt lat="43.82728" lon="3.61537">
        <ele>185.2</ele>
        <time>2019-12-15T08:51:2.000Z</time>
      </trkpt>
      <trkpt lat="43.82714" lon="3.61519">
        <ele>185.2</ele>
        <time>2019-12-15T08:51:18.000Z</time>
      </trkpt>
      <trkpt lat="43.827" lon="3.61511">
        <ele>185.2</ele>
        <time>2019-12-15T08:51:32.000Z</time>
      </trkpt>
      <trkpt lat="43.82691" lon="3.61508">
        <ele>185.7</ele>
        <time>2019-12-15T08:51:41.000Z</time>
      </trkpt>
      <trkpt lat="43.82688" lon="3.61503">
        <ele>185.7</ele>
        <time>2019-12-15T08:51:47.000Z</time>
      </trkpt>
      <trkpt lat="43.82684" lon="3.61482">
        <ele>187.1</ele>
        <time>2019-12-15T08:52:2.000Z</time>
      </trkpt>
      <trkpt lat="43.82679" lon="3.61466">
        <ele>188.1</ele>
        <time>2019-12-15T08:52:16.000Z</time>
      </trkpt>
      <trkpt lat="43.82675" lon="3.61454">
        <ele>189.5</ele>
        <time>2019-12-15T08:52:26.000Z</time>
      </trkpt>
      <trkpt lat="43.8267" lon="3.61433">
        <ele>191</ele>
        <time>2019-12-15T08:52:43.000Z</time>
      </trkpt>
      <trkpt lat="43.82664" lon="3.61416">
        <ele>191.4</ele>
        <time>2019-12-15T08:52:58.000Z</time>
      </trkpt>
      <trkpt lat="43.82657" lon="3.61401">
        <ele>192.4</ele>
        <time>2019-12-15T08:53:12.000Z</time>
      </trkpt>
      <trkpt lat="43.8265" lon="3.61387">
        <ele>193.8</ele>
        <time>2019-12-15T08:53:26.000Z</time>
      </trkpt>
      <trkpt lat="43.82639" lon="3.61374">
        <ele>194.3</ele>
        <time>2019-12-15T08:53:41.000Z</time>
      </trkpt>
      <trkpt lat="43.82633" lon="3.61357">
        <ele>195.8</ele>
        <time>2019-12-15T08:53:57.000Z</time>
      </trkpt>
      <trkpt lat="43.82635" lon="3.61338">
        <ele>197.7</ele>
        <time>2019-12-15T08:54:14.000Z</time>
      </trkpt>
      <trkpt lat="43.82636" lon="3.61326">
        <ele>198.6</ele>
        <time>2019-12-15T08:54:24.000Z</time>
      </trkpt>
      <trkpt lat="43.82636" lon="3.61322">
        <ele>199.1</ele>
        <time>2019-12-15T08:54:27.000Z</time>
      </trkpt>
      <trkpt lat="43.82636" lon="3.61319">
        <ele>198.6</ele>
        <time>2019-12-15T08:54:29.000Z</time>
      </trkpt>
      <trkpt lat="43.82637" lon="3.61313">
        <ele>199.1</ele>
        <time>2019-12-15T08:54:33.000Z</time>
      </trkpt>
      <trkpt lat="43.82638" lon="3.61311">
        <ele>199.1</ele>
        <time>2019-12-15T08:54:35.000Z</time>
      </trkpt>
      <trkpt lat="43.82641" lon="3.61299">
        <ele>200.6</ele>
        <time>2019-12-15T08:54:47.000Z</time>
      </trkpt>
      <trkpt lat="43.82642" lon="3.61296">
        <ele>201.1</ele>
        <time>2019-12-15T08:54:50.000Z</time>
      </trkpt>
      <trkpt lat="43.82645" lon="3.61277">
        <ele>202</ele>
        <time>2019-12-15T08:55:6.000Z</time>
      </trkpt>
      <trkpt lat="43.82648" lon="3.61261">
        <ele>203</ele>
        <time>2019-12-15T08:55:19.000Z</time>
      </trkpt>
      <trkpt lat="43.8265" lon="3.61241">
        <ele>204.9</ele>
        <time>2019-12-15T08:55:34.000Z</time>
      </trkpt>
      <trkpt lat="43.82651" lon="3.6124">
        <ele>205.4</ele>
        <time>2019-12-15T08:55:35.000Z</time>
      </trkpt>
      <trkpt lat="43.82658" lon="3.61226">
        <ele>206.3</ele>
        <time>2019-12-15T08:55:49.000Z</time>
      </trkpt>
      <trkpt lat="43.82663" lon="3.61213">
        <ele>207.8</ele>
        <time>2019-12-15T08:56:2.000Z</time>
      </trkpt>
      <trkpt lat="43.82663" lon="3.61208">
        <ele>208.3</ele>
        <time>2019-12-15T08:56:13.000Z</time>
      </trkpt>
      <trkpt lat="43.8266" lon="3.61197">
        <ele>208.7</ele>
        <time>2019-12-15T08:56:27.000Z</time>
      </trkpt>
      <trkpt lat="43.8266" lon="3.61196">
        <ele>208.7</ele>
        <time>2019-12-15T08:56:28.000Z</time>
      </trkpt>
      <trkpt lat="43.82659" lon="3.61177">
        <ele>209.7</ele>
        <time>2019-12-15T08:56:42.000Z</time>
      </trkpt>
      <trkpt lat="43.82659" lon="3.61176">
        <ele>209.7</ele>
        <time>2019-12-15T08:56:43.000Z</time>
      </trkpt>
      <trkpt lat="43.82659" lon="3.61174">
        <ele>210.2</ele>
        <time>2019-12-15T08:56:45.000Z</time>
      </trkpt>
      <trkpt lat="43.82655" lon="3.61157">
        <ele>211.6</ele>
        <time>2019-12-15T08:56:59.000Z</time>
      </trkpt>
      <trkpt lat="43.8265" lon="3.61148">
        <ele>212.1</ele>
        <time>2019-12-15T08:57:8.000Z</time>
      </trkpt>
      <trkpt lat="43.82643" lon="3.61132">
        <ele>214</ele>
        <time>2019-12-15T08:57:24.000Z</time>
      </trkpt>
      <trkpt lat="43.82639" lon="3.61128">
        <ele>215</ele>
        <time>2019-12-15T08:57:30.000Z</time>
      </trkpt>
      <trkpt lat="43.82635" lon="3.61116">
        <ele>216.4</ele>
        <time>2019-12-15T08:57:43.000Z</time>
      </trkpt>
      <trkpt lat="43.82637" lon="3.61116">
        <ele>217.4</ele>
        <time>2019-12-15T08:57:56.000Z</time>
      </trkpt>
      <trkpt lat="43.82636" lon="3.61115">
        <ele>216.9</ele>
        <time>2019-12-15T08:58:17.000Z</time>
      </trkpt>
      <trkpt lat="43.82639" lon="3.61115">
        <ele>215.9</ele>
        <time>2019-12-15T08:58:36.000Z</time>
      </trkpt>
      <trkpt lat="43.82638" lon="3.61115">
        <ele>215.5</ele>
        <time>2019-12-15T08:59:14.000Z</time>
      </trkpt>
      <trkpt lat="43.82634" lon="3.61112">
        <ele>215.9</ele>
        <time>2019-12-15T08:59:39.000Z</time>
      </trkpt>
      <trkpt lat="43.82635" lon="3.61113">
        <ele>215.5</ele>
        <time>2019-12-15T08:59:57.000Z</time>
      </trkpt>
      <trkpt lat="43.82634" lon="3.61112">
        <ele>215.9</ele>
        <time>2019-12-15T09:00:16.000Z</time>
      </trkpt>
      <trkpt lat="43.82634" lon="3.61113">
        <ele>215.5</ele>
        <time>2019-12-15T09:00:45.000Z</time>
      </trkpt>
      <trkpt lat="43.82633" lon="3.61106">
        <ele>215.9</ele>
        <time>2019-12-15T09:01:8.000Z</time>
      </trkpt>
      <trkpt lat="43.82633" lon="3.61099">
        <ele>216.4</ele>
        <time>2019-12-15T09:01:20.000Z</time>
      </trkpt>
      <trkpt lat="43.82632" lon="3.61091">
        <ele>217.4</ele>
        <time>2019-12-15T09:01:29.000Z</time>
      </trkpt>
      <trkpt lat="43.82633" lon="3.61084">
        <ele>217.4</ele>
        <time>2019-12-15T09:01:34.000Z</time>
      </trkpt>
      <trkpt lat="43.82637" lon="3.61078">
        <ele>217.9</ele>
        <time>2019-12-15T09:01:39.000Z</time>
      </trkpt>
      <trkpt lat="43.82642" lon="3.61069">
        <ele>219.3</ele>
        <time>2019-12-15T09:01:49.000Z</time>
      </trkpt>
      <trkpt lat="43.82651" lon="3.61057">
        <ele>220.8</ele>
        <time>2019-12-15T09:02:5.000Z</time>
      </trkpt>
      <trkpt lat="43.82657" lon="3.61042">
        <ele>222.2</ele>
        <time>2019-12-15T09:02:20.000Z</time>
      </trkpt>
      <trkpt lat="43.82663" lon="3.61029">
        <ele>224.1</ele>
        <time>2019-12-15T09:02:35.000Z</time>
      </trkpt>
      <trkpt lat="43.82665" lon="3.61017">
        <ele>225.1</ele>
        <time>2019-12-15T09:02:47.000Z</time>
      </trkpt>
      <trkpt lat="43.82666" lon="3.61003">
        <ele>227.5</ele>
        <time>2019-12-15T09:03:2.000Z</time>
      </trkpt>
      <trkpt lat="43.82671" lon="3.6099">
        <ele>229.4</ele>
        <time>2019-12-15T09:03:19.000Z</time>
      </trkpt>
      <trkpt lat="43.82677" lon="3.60977">
        <ele>231.8</ele>
        <time>2019-12-15T09:03:35.000Z</time>
      </trkpt>
      <trkpt lat="43.82677" lon="3.60966">
        <ele>233.7</ele>
        <time>2019-12-15T09:03:49.000Z</time>
      </trkpt>
      <trkpt lat="43.8268" lon="3.60957">
        <ele>236.1</ele>
        <time>2019-12-15T09:04:4.000Z</time>
      </trkpt>
      <trkpt lat="43.82681" lon="3.60948">
        <ele>238.1</ele>
        <time>2019-12-15T09:04:17.000Z</time>
      </trkpt>
      <trkpt lat="43.82679" lon="3.60936">
        <ele>240</ele>
        <time>2019-12-15T09:04:31.000Z</time>
      </trkpt>
      <trkpt lat="43.82676" lon="3.60925">
        <ele>241.4</ele>
        <time>2019-12-15T09:04:44.000Z</time>
      </trkpt>
      <trkpt lat="43.82675" lon="3.60913">
        <ele>243.4</ele>
        <time>2019-12-15T09:04:59.000Z</time>
      </trkpt>
      <trkpt lat="43.82673" lon="3.60904">
        <ele>244.8</ele>
        <time>2019-12-15T09:05:12.000Z</time>
      </trkpt>
      <trkpt lat="43.82671" lon="3.60895">
        <ele>247.2</ele>
        <time>2019-12-15T09:05:24.000Z</time>
      </trkpt>
      <trkpt lat="43.82668" lon="3.60887">
        <ele>247.2</ele>
        <time>2019-12-15T09:05:34.000Z</time>
      </trkpt>
      <trkpt lat="43.82666" lon="3.60879">
        <ele>249.1</ele>
        <time>2019-12-15T09:05:46.000Z</time>
      </trkpt>
      <trkpt lat="43.8266" lon="3.60869">
        <ele>250.6</ele>
        <time>2019-12-15T09:05:58.000Z</time>
      </trkpt>
      <trkpt lat="43.82656" lon="3.60862">
        <ele>252</ele>
        <time>2019-12-15T09:06:9.000Z</time>
      </trkpt>
      <trkpt lat="43.82652" lon="3.60851">
        <ele>253</ele>
        <time>2019-12-15T09:06:21.000Z</time>
      </trkpt>
      <trkpt lat="43.82647" lon="3.60839">
        <ele>254.4</ele>
        <time>2019-12-15T09:06:36.000Z</time>
      </trkpt>
      <trkpt lat="43.82642" lon="3.60826">
        <ele>254.9</ele>
        <time>2019-12-15T09:06:49.000Z</time>
      </trkpt>
      <trkpt lat="43.82638" lon="3.6081">
        <ele>255.9</ele>
        <time>2019-12-15T09:07:5.000Z</time>
      </trkpt>
      <trkpt lat="43.82641" lon="3.60803">
        <ele>257.3</ele>
        <time>2019-12-15T09:07:17.000Z</time>
      </trkpt>
      <trkpt lat="43.82643" lon="3.60797">
        <ele>258.7</ele>
        <time>2019-12-15T09:07:25.000Z</time>
      </trkpt>
      <trkpt lat="43.8265" lon="3.60788">
        <ele>261.6</ele>
        <time>2019-12-15T09:07:40.000Z</time>
      </trkpt>
      <trkpt lat="43.82653" lon="3.60782">
        <ele>263.5</ele>
        <time>2019-12-15T09:07:51.000Z</time>
      </trkpt>
      <trkpt lat="43.82658" lon="3.60776">
        <ele>265.5</ele>
        <time>2019-12-15T09:08:2.000Z</time>
      </trkpt>
      <trkpt lat="43.82666" lon="3.60768">
        <ele>266.4</ele>
        <time>2019-12-15T09:08:16.000Z</time>
      </trkpt>
      <trkpt lat="43.82671" lon="3.60765">
        <ele>267.9</ele>
        <time>2019-12-15T09:08:28.000Z</time>
      </trkpt>
      <trkpt lat="43.8268" lon="3.60766">
        <ele>268.8</ele>
        <time>2019-12-15T09:08:40.000Z</time>
      </trkpt>
      <trkpt lat="43.82688" lon="3.60762">
        <ele>271.2</ele>
        <time>2019-12-15T09:08:53.000Z</time>
      </trkpt>
      <trkpt lat="43.82697" lon="3.6076">
        <ele>273.1</ele>
        <time>2019-12-15T09:09:7.000Z</time>
      </trkpt>
      <trkpt lat="43.82702" lon="3.60752">
        <ele>274.6</ele>
        <time>2019-12-15T09:09:19.000Z</time>
      </trkpt>
      <trkpt lat="43.82691" lon="3.60747">
        <ele>276</ele>
        <time>2019-12-15T09:09:34.000Z</time>
      </trkpt>
      <trkpt lat="43.82687" lon="3.60739">
        <ele>278</ele>
        <time>2019-12-15T09:09:47.000Z</time>
      </trkpt>
      <trkpt lat="43.82687" lon="3.60735">
        <ele>279.4</ele>
        <time>2019-12-15T09:09:59.000Z</time>
      </trkpt>
      <trkpt lat="43.82686" lon="3.60725">
        <ele>280.4</ele>
        <time>2019-12-15T09:10:12.000Z</time>
      </trkpt>
      <trkpt lat="43.82684" lon="3.60716">
        <ele>282.3</ele>
        <time>2019-12-15T09:10:27.000Z</time>
      </trkpt>
      <trkpt lat="43.8268" lon="3.60703">
        <ele>284.2</ele>
        <time>2019-12-15T09:10:41.000Z</time>
      </trkpt>
      <trkpt lat="43.82678" lon="3.60693">
        <ele>285.6</ele>
        <time>2019-12-15T09:10:55.000Z</time>
      </trkpt>
      <trkpt lat="43.82677" lon="3.60679">
        <ele>287.6</ele>
        <time>2019-12-15T09:11:11.000Z</time>
      </trkpt>
      <trkpt lat="43.82677" lon="3.60673">
        <ele>289.5</ele>
        <time>2019-12-15T09:11:26.000Z</time>
      </trkpt>
      <trkpt lat="43.82679" lon="3.60669">
        <ele>290</ele>
        <time>2019-12-15T09:11:42.000Z</time>
      </trkpt>
      <trkpt lat="43.82677" lon="3.60674">
        <ele>290</ele>
        <time>2019-12-15T09:12:19.000Z</time>
      </trkpt>
      <trkpt lat="43.82673" lon="3.6067">
        <ele>290</ele>
        <time>2019-12-15T09:12:36.000Z</time>
      </trkpt>
      <trkpt lat="43.82674" lon="3.60661">
        <ele>290.9</ele>
        <time>2019-12-15T09:12:50.000Z</time>
      </trkpt>
      <trkpt lat="43.82671" lon="3.60651">
        <ele>292.9</ele>
        <time>2019-12-15T09:13:4.000Z</time>
      </trkpt>
      <trkpt lat="43.82668" lon="3.60637">
        <ele>295.7</ele>
        <time>2019-12-15T09:13:21.000Z</time>
      </trkpt>
      <trkpt lat="43.82663" lon="3.60625">
        <ele>298.1</ele>
        <time>2019-12-15T09:13:38.000Z</time>
      </trkpt>
      <trkpt lat="43.8266" lon="3.60611">
        <ele>300.5</ele>
        <time>2019-12-15T09:13:53.000Z</time>
      </trkpt>
      <trkpt lat="43.82658" lon="3.60601">
        <ele>301.5</ele>
        <time>2019-12-15T09:14:6.000Z</time>
      </trkpt>
      <trkpt lat="43.82656" lon="3.60593">
        <ele>303</ele>
        <time>2019-12-15T09:14:17.000Z</time>
      </trkpt>
      <trkpt lat="43.82656" lon="3.6059">
        <ele>303.9</ele>
        <time>2019-12-15T09:14:21.000Z</time>
      </trkpt>
      <trkpt lat="43.82652" lon="3.60581">
        <ele>305.8</ele>
        <time>2019-12-15T09:14:32.000Z</time>
      </trkpt>
      <trkpt lat="43.82649" lon="3.60574">
        <ele>306.8</ele>
        <time>2019-12-15T09:14:44.000Z</time>
      </trkpt>
      <trkpt lat="43.82652" lon="3.60563">
        <ele>309.2</ele>
        <time>2019-12-15T09:14:55.000Z</time>
      </trkpt>
      <trkpt lat="43.8265" lon="3.60553">
        <ele>311.1</ele>
        <time>2019-12-15T09:15:7.000Z</time>
      </trkpt>
      <trkpt lat="43.82647" lon="3.60545">
        <ele>313</ele>
        <time>2019-12-15T09:15:18.000Z</time>
      </trkpt>
      <trkpt lat="43.82645" lon="3.60537">
        <ele>315</ele>
        <time>2019-12-15T09:15:30.000Z</time>
      </trkpt>
      <trkpt lat="43.82644" lon="3.60528">
        <ele>316.9</ele>
        <time>2019-12-15T09:15:42.000Z</time>
      </trkpt>
      <trkpt lat="43.8264" lon="3.60522">
        <ele>319.3</ele>
        <time>2019-12-15T09:15:55.000Z</time>
      </trkpt>
      <trkpt lat="43.82637" lon="3.60514">
        <ele>321.2</ele>
        <time>2019-12-15T09:16:7.000Z</time>
      </trkpt>
      <trkpt lat="43.82637" lon="3.60506">
        <ele>323.1</ele>
        <time>2019-12-15T09:16:19.000Z</time>
      </trkpt>
      <trkpt lat="43.82633" lon="3.605">
        <ele>324.6</ele>
        <time>2019-12-15T09:16:30.000Z</time>
      </trkpt>
      <trkpt lat="43.82629" lon="3.60492">
        <ele>327</ele>
        <time>2019-12-15T09:16:42.000Z</time>
      </trkpt>
      <trkpt lat="43.82629" lon="3.60491">
        <ele>327.5</ele>
        <time>2019-12-15T09:16:43.000Z</time>
      </trkpt>
      <trkpt lat="43.82625" lon="3.60483">
        <ele>328.4</ele>
        <time>2019-12-15T09:16:55.000Z</time>
      </trkpt>
      <trkpt lat="43.82615" lon="3.60476">
        <ele>330.4</ele>
        <time>2019-12-15T09:17:8.000Z</time>
      </trkpt>
      <trkpt lat="43.82613" lon="3.60469">
        <ele>331.8</ele>
        <time>2019-12-15T09:17:18.000Z</time>
      </trkpt>
      <trkpt lat="43.82607" lon="3.60462">
        <ele>333.2</ele>
        <time>2019-12-15T09:17:30.000Z</time>
      </trkpt>
      <trkpt lat="43.82602" lon="3.60455">
        <ele>335.2</ele>
        <time>2019-12-15T09:17:42.000Z</time>
      </trkpt>
      <trkpt lat="43.82597" lon="3.60448">
        <ele>337.1</ele>
        <time>2019-12-15T09:17:56.000Z</time>
      </trkpt>
      <trkpt lat="43.82593" lon="3.60438">
        <ele>340</ele>
        <time>2019-12-15T09:18:10.000Z</time>
      </trkpt>
      <trkpt lat="43.82593" lon="3.60426">
        <ele>341.4</ele>
        <time>2019-12-15T09:18:23.000Z</time>
      </trkpt>
      <trkpt lat="43.8259" lon="3.60417">
        <ele>342.9</ele>
        <time>2019-12-15T09:18:32.000Z</time>
      </trkpt>
      <trkpt lat="43.82589" lon="3.60409">
        <ele>344.8</ele>
        <time>2019-12-15T09:18:43.000Z</time>
      </trkpt>
      <trkpt lat="43.82589" lon="3.60401">
        <ele>345.7</ele>
        <time>2019-12-15T09:18:53.000Z</time>
      </trkpt>
      <trkpt lat="43.82585" lon="3.60391">
        <ele>347.2</ele>
        <time>2019-12-15T09:19:4.000Z</time>
      </trkpt>
      <trkpt lat="43.82584" lon="3.60379">
        <ele>347.2</ele>
        <time>2019-12-15T09:19:15.000Z</time>
      </trkpt>
      <trkpt lat="43.82583" lon="3.60368">
        <ele>349.1</ele>
        <time>2019-12-15T09:19:29.000Z</time>
      </trkpt>
      <trkpt lat="43.82586" lon="3.60361">
        <ele>350.1</ele>
        <time>2019-12-15T09:19:40.000Z</time>
      </trkpt>
      <trkpt lat="43.82591" lon="3.60343">
        <ele>351.5</ele>
        <time>2019-12-15T09:19:53.000Z</time>
      </trkpt>
      <trkpt lat="43.82596" lon="3.60326">
        <ele>352.5</ele>
        <time>2019-12-15T09:20:6.000Z</time>
      </trkpt>
      <trkpt lat="43.82597" lon="3.60323">
        <ele>352.5</ele>
        <time>2019-12-15T09:20:9.000Z</time>
      </trkpt>
      <trkpt lat="43.82604" lon="3.60311">
        <ele>353.9</ele>
        <time>2019-12-15T09:20:22.000Z</time>
      </trkpt>
      <trkpt lat="43.82608" lon="3.60299">
        <ele>354.9</ele>
        <time>2019-12-15T09:20:35.000Z</time>
      </trkpt>
      <trkpt lat="43.82611" lon="3.60287">
        <ele>356.3</ele>
        <time>2019-12-15T09:20:48.000Z</time>
      </trkpt>
      <trkpt lat="43.82612" lon="3.60272">
        <ele>357.8</ele>
        <time>2019-12-15T09:21:3.000Z</time>
      </trkpt>
      <trkpt lat="43.82616" lon="3.60259">
        <ele>359.2</ele>
        <time>2019-12-15T09:21:16.000Z</time>
      </trkpt>
      <trkpt lat="43.82618" lon="3.60248">
        <ele>360.1</ele>
        <time>2019-12-15T09:21:28.000Z</time>
      </trkpt>
      <trkpt lat="43.82616" lon="3.60235">
        <ele>361.6</ele>
        <time>2019-12-15T09:21:42.000Z</time>
      </trkpt>
      <trkpt lat="43.82616" lon="3.60226">
        <ele>362.5</ele>
        <time>2019-12-15T09:21:56.000Z</time>
      </trkpt>
      <trkpt lat="43.82615" lon="3.60218">
        <ele>363</ele>
        <time>2019-12-15T09:22:9.000Z</time>
      </trkpt>
      <trkpt lat="43.82617" lon="3.60201">
        <ele>365.9</ele>
        <time>2019-12-15T09:22:27.000Z</time>
      </trkpt>
      <trkpt lat="43.82619" lon="3.60188">
        <ele>367.4</ele>
        <time>2019-12-15T09:22:41.000Z</time>
      </trkpt>
      <trkpt lat="43.8262" lon="3.60176">
        <ele>369.3</ele>
        <time>2019-12-15T09:22:53.000Z</time>
      </trkpt>
      <trkpt lat="43.82619" lon="3.60174">
        <ele>369.8</ele>
        <time>2019-12-15T09:23:5.000Z</time>
      </trkpt>
      <trkpt lat="43.82618" lon="3.60175">
        <ele>369.8</ele>
        <time>2019-12-15T09:23:26.000Z</time>
      </trkpt>
      <trkpt lat="43.82617" lon="3.60175">
        <ele>369.3</ele>
        <time>2019-12-15T09:23:46.000Z</time>
      </trkpt>
      <trkpt lat="43.82617" lon="3.60177">
        <ele>368.8</ele>
        <time>2019-12-15T09:24:6.000Z</time>
      </trkpt>
      <trkpt lat="43.82616" lon="3.60177">
        <ele>368.3</ele>
        <time>2019-12-15T09:24:30.000Z</time>
      </trkpt>
      <trkpt lat="43.82617" lon="3.60177">
        <ele>368.3</ele>
        <time>2019-12-15T09:24:52.000Z</time>
      </trkpt>
      <trkpt lat="43.82617" lon="3.60177">
        <ele>368.3</ele>
        <time>2019-12-15T09:25:8.000Z</time>
      </trkpt>
      <trkpt lat="43.82617" lon="3.60177">
        <ele>368.3</ele>
        <time>2019-12-15T09:25:25.000Z</time>
      </trkpt>
      <trkpt lat="43.82614" lon="3.60178">
        <ele>368.8</ele>
        <time>2019-12-15T09:26:1.000Z</time>
      </trkpt>
      <trkpt lat="43.82612" lon="3.60179">
        <ele>368.8</ele>
        <time>2019-12-15T09:26:22.000Z</time>
      </trkpt>
      <trkpt lat="43.82612" lon="3.60175">
        <ele>368.8</ele>
        <time>2019-12-15T09:26:39.000Z</time>
      </trkpt>
      <trkpt lat="43.82615" lon="3.60167">
        <ele>370.2</ele>
        <time>2019-12-15T09:26:49.000Z</time>
      </trkpt>
      <trkpt lat="43.8262" lon="3.60146">
        <ele>390</ele>
        <time>2019-12-15T09:29:38.000Z</time>
      </trkpt>
      <trkpt lat="43.82619" lon="3.60146">
        <ele>389.5</ele>
        <time>2019-12-15T09:29:39.000Z</time>
      </trkpt>
      <trkpt lat="43.82645" lon="3.60148">
        <ele>388</ele>
        <time>2019-12-15T09:29:59.000Z</time>
      </trkpt>
      <trkpt lat="43.82647" lon="3.60151">
        <ele>387.5</ele>
        <time>2019-12-15T09:30:1.000Z</time>
      </trkpt>
      <trkpt lat="43.82656" lon="3.60169">
        <ele>387.1</ele>
        <time>2019-12-15T09:30:15.000Z</time>
      </trkpt>
      <trkpt lat="43.82667" lon="3.60172">
        <ele>385.1</ele>
        <time>2019-12-15T09:30:29.000Z</time>
      </trkpt>
      <trkpt lat="43.82673" lon="3.6016">
        <ele>384.2</ele>
        <time>2019-12-15T09:30:41.000Z</time>
      </trkpt>
      <trkpt lat="43.82675" lon="3.60155">
        <ele>384.2</ele>
        <time>2019-12-15T09:30:46.000Z</time>
      </trkpt>
      <trkpt lat="43.8268" lon="3.60136">
        <ele>382.3</ele>
        <time>2019-12-15T09:31:1.000Z</time>
      </trkpt>
      <trkpt lat="43.8268" lon="3.60126">
        <ele>381.3</ele>
        <time>2019-12-15T09:31:8.000Z</time>
      </trkpt>
      <trkpt lat="43.82682" lon="3.60116">
        <ele>380.3</ele>
        <time>2019-12-15T09:31:16.000Z</time>
      </trkpt>
      <trkpt lat="43.82688" lon="3.6012">
        <ele>380.3</ele>
        <time>2019-12-15T09:31:24.000Z</time>
      </trkpt>
      <trkpt lat="43.82694" lon="3.60125">
        <ele>380.3</ele>
        <time>2019-12-15T09:31:34.000Z</time>
      </trkpt>
      <trkpt lat="43.82701" lon="3.60132">
        <ele>382.3</ele>
        <time>2019-12-15T09:31:49.000Z</time>
      </trkpt>
      <trkpt lat="43.82705" lon="3.60142">
        <ele>383.7</ele>
        <time>2019-12-15T09:32:4.000Z</time>
      </trkpt>
      <trkpt lat="43.82707" lon="3.60152">
        <ele>386.1</ele>
        <time>2019-12-15T09:32:17.000Z</time>
      </trkpt>
      <trkpt lat="43.82712" lon="3.6016">
        <ele>387.5</ele>
        <time>2019-12-15T09:32:31.000Z</time>
      </trkpt>
      <trkpt lat="43.82717" lon="3.60167">
        <ele>389.5</ele>
        <time>2019-12-15T09:32:47.000Z</time>
      </trkpt>
      <trkpt lat="43.82725" lon="3.60176">
        <ele>391.4</ele>
        <time>2019-12-15T09:33:1.000Z</time>
      </trkpt>
      <trkpt lat="43.82731" lon="3.60184">
        <ele>393.3</ele>
        <time>2019-12-15T09:33:12.000Z</time>
      </trkpt>
      <trkpt lat="43.82735" lon="3.60185">
        <ele>394.8</ele>
        <time>2019-12-15T09:33:24.000Z</time>
      </trkpt>
      <trkpt lat="43.82739" lon="3.6019">
        <ele>396.7</ele>
        <time>2019-12-15T09:33:37.000Z</time>
      </trkpt>
      <trkpt lat="43.82738" lon="3.60197">
        <ele>396.2</ele>
        <time>2019-12-15T09:34:3.000Z</time>
      </trkpt>
      <trkpt lat="43.82738" lon="3.60195">
        <ele>396.7</ele>
        <time>2019-12-15T09:34:17.000Z</time>
      </trkpt>
      <trkpt lat="43.82739" lon="3.60195">
        <ele>396.2</ele>
        <time>2019-12-15T09:34:34.000Z</time>
      </trkpt>
      <trkpt lat="43.82739" lon="3.60194">
        <ele>397.2</ele>
        <time>2019-12-15T09:34:58.000Z</time>
      </trkpt>
      <trkpt lat="43.82741" lon="3.60199">
        <ele>397.2</ele>
        <time>2019-12-15T09:35:21.000Z</time>
      </trkpt>
      <trkpt lat="43.8274" lon="3.60199">
        <ele>397.6</ele>
        <time>2019-12-15T09:35:51.000Z</time>
      </trkpt>
      <trkpt lat="43.8274" lon="3.60194">
        <ele>397.6</ele>
        <time>2019-12-15T09:36:25.000Z</time>
      </trkpt>
      <trkpt lat="43.82743" lon="3.60194">
        <ele>399.6</ele>
        <time>2019-12-15T09:36:53.000Z</time>
      </trkpt>
      <trkpt lat="43.82751" lon="3.60197">
        <ele>400.5</ele>
        <time>2019-12-15T09:37:6.000Z</time>
      </trkpt>
      <trkpt lat="43.82761" lon="3.60206">
        <ele>402.9</ele>
        <time>2019-12-15T09:37:21.000Z</time>
      </trkpt>
      <trkpt lat="43.82772" lon="3.6021">
        <ele>405.3</ele>
        <time>2019-12-15T09:37:36.000Z</time>
      </trkpt>
      <trkpt lat="43.8278" lon="3.60216">
        <ele>406.8</ele>
        <time>2019-12-15T09:37:47.000Z</time>
      </trkpt>
      <trkpt lat="43.82786" lon="3.60221">
        <ele>407.3</ele>
        <time>2019-12-15T09:37:55.000Z</time>
      </trkpt>
      <trkpt lat="43.82797" lon="3.60225">
        <ele>408.7</ele>
        <time>2019-12-15T09:38:9.000Z</time>
      </trkpt>
      <trkpt lat="43.82793" lon="3.60217">
        <ele>410.6</ele>
        <time>2019-12-15T09:38:20.000Z</time>
      </trkpt>
      <trkpt lat="43.82793" lon="3.60216">
        <ele>410.6</ele>
        <time>2019-12-15T09:38:21.000Z</time>
      </trkpt>
      <trkpt lat="43.82788" lon="3.60202">
        <ele>413</ele>
        <time>2019-12-15T09:38:34.000Z</time>
      </trkpt>
      <trkpt lat="43.82784" lon="3.60189">
        <ele>414.5</ele>
        <time>2019-12-15T09:38:48.000Z</time>
      </trkpt>
      <trkpt lat="43.8278" lon="3.6018">
        <ele>415.4</ele>
        <time>2019-12-15T09:38:58.000Z</time>
      </trkpt>
      <trkpt lat="43.82774" lon="3.60165">
        <ele>417.8</ele>
        <time>2019-12-15T09:39:12.000Z</time>
      </trkpt>
      <trkpt lat="43.82768" lon="3.60152">
        <ele>418.8</ele>
        <time>2019-12-15T09:39:25.000Z</time>
      </trkpt>
      <trkpt lat="43.82767" lon="3.60143">
        <ele>420.2</ele>
        <time>2019-12-15T09:39:33.000Z</time>
      </trkpt>
      <trkpt lat="43.82767" lon="3.60133">
        <ele>421.7</ele>
        <time>2019-12-15T09:39:44.000Z</time>
      </trkpt>
      <trkpt lat="43.8277" lon="3.60116">
        <ele>424.6</ele>
        <time>2019-12-15T09:39:59.000Z</time>
      </trkpt>
      <trkpt lat="43.8277" lon="3.60104">
        <ele>425.5</ele>
        <time>2019-12-15T09:40:10.000Z</time>
      </trkpt>
      <trkpt lat="43.82777" lon="3.60099">
        <ele>427.9</ele>
        <time>2019-12-15T09:40:24.000Z</time>
      </trkpt>
      <trkpt lat="43.82777" lon="3.60101">
        <ele>427.9</ele>
        <time>2019-12-15T09:40:27.000Z</time>
      </trkpt>
      <trkpt lat="43.82782" lon="3.60112">
        <ele>429.4</ele>
        <time>2019-12-15T09:40:39.000Z</time>
      </trkpt>
      <trkpt lat="43.82784" lon="3.60119">
        <ele>431.3</ele>
        <time>2019-12-15T09:40:47.000Z</time>
      </trkpt>
      <trkpt lat="43.8279" lon="3.60129">
        <ele>433.2</ele>
        <time>2019-12-15T09:40:59.000Z</time>
      </trkpt>
      <trkpt lat="43.82796" lon="3.60136">
        <ele>433.7</ele>
        <time>2019-12-15T09:41:9.000Z</time>
      </trkpt>
      <trkpt lat="43.82801" lon="3.60144">
        <ele>434.6</ele>
        <time>2019-12-15T09:41:20.000Z</time>
      </trkpt>
      <trkpt lat="43.82808" lon="3.60151">
        <ele>436.6</ele>
        <time>2019-12-15T09:41:31.000Z</time>
      </trkpt>
      <trkpt lat="43.82809" lon="3.60144">
        <ele>439</ele>
        <time>2019-12-15T09:41:45.000Z</time>
      </trkpt>
      <trkpt lat="43.82807" lon="3.60141">
        <ele>439</ele>
        <time>2019-12-15T09:41:48.000Z</time>
      </trkpt>
      <trkpt lat="43.82803" lon="3.60126">
        <ele>440.9</ele>
        <time>2019-12-15T09:42:2.000Z</time>
      </trkpt>
      <trkpt lat="43.82807" lon="3.60118">
        <ele>442.8</ele>
        <time>2019-12-15T09:42:14.000Z</time>
      </trkpt>
      <trkpt lat="43.82812" lon="3.60125">
        <ele>444.8</ele>
        <time>2019-12-15T09:42:25.000Z</time>
      </trkpt>
      <trkpt lat="43.82817" lon="3.60134">
        <ele>446.2</ele>
        <time>2019-12-15T09:42:36.000Z</time>
      </trkpt>
      <trkpt lat="43.82817" lon="3.60124">
        <ele>448.6</ele>
        <time>2019-12-15T09:42:48.000Z</time>
      </trkpt>
      <trkpt lat="43.82816" lon="3.6011">
        <ele>450.5</ele>
        <time>2019-12-15T09:43:2.000Z</time>
      </trkpt>
      <trkpt lat="43.82814" lon="3.60095">
        <ele>452.9</ele>
        <time>2019-12-15T09:43:16.000Z</time>
      </trkpt>
      <trkpt lat="43.82818" lon="3.60093">
        <ele>454.8</ele>
        <time>2019-12-15T09:43:30.000Z</time>
      </trkpt>
      <trkpt lat="43.82819" lon="3.60087">
        <ele>456.3</ele>
        <time>2019-12-15T09:43:41.000Z</time>
      </trkpt>
      <trkpt lat="43.82821" lon="3.60082">
        <ele>457.7</ele>
        <time>2019-12-15T09:43:50.000Z</time>
      </trkpt>
      <trkpt lat="43.82821" lon="3.60068">
        <ele>460.1</ele>
        <time>2019-12-15T09:44:4.000Z</time>
      </trkpt>
      <trkpt lat="43.82828" lon="3.6007">
        <ele>462</ele>
        <time>2019-12-15T09:44:18.000Z</time>
      </trkpt>
      <trkpt lat="43.82831" lon="3.60075">
        <ele>463.5</ele>
        <time>2019-12-15T09:44:29.000Z</time>
      </trkpt>
      <trkpt lat="43.8283" lon="3.60072">
        <ele>464</ele>
        <time>2019-12-15T09:44:42.000Z</time>
      </trkpt>
      <trkpt lat="43.82831" lon="3.60071">
        <ele>464</ele>
        <time>2019-12-15T09:44:51.000Z</time>
      </trkpt>
      <trkpt lat="43.82833" lon="3.60068">
        <ele>464.5</ele>
        <time>2019-12-15T09:45:13.000Z</time>
      </trkpt>
      <trkpt lat="43.82831" lon="3.60065">
        <ele>464.9</ele>
        <time>2019-12-15T09:45:34.000Z</time>
      </trkpt>
      <trkpt lat="43.82831" lon="3.60066">
        <ele>464.9</ele>
        <time>2019-12-15T09:45:51.000Z</time>
      </trkpt>
      <trkpt lat="43.82834" lon="3.60063">
        <ele>466.4</ele>
        <time>2019-12-15T09:46:3.000Z</time>
      </trkpt>
      <trkpt lat="43.82839" lon="3.60068">
        <ele>467.8</ele>
        <time>2019-12-15T09:46:12.000Z</time>
      </trkpt>
      <trkpt lat="43.82841" lon="3.60078">
        <ele>469.7</ele>
        <time>2019-12-15T09:46:24.000Z</time>
      </trkpt>
      <trkpt lat="43.82845" lon="3.60087">
        <ele>471.2</ele>
        <time>2019-12-15T09:46:35.000Z</time>
      </trkpt>
      <trkpt lat="43.82847" lon="3.60084">
        <ele>473.1</ele>
        <time>2019-12-15T09:46:43.000Z</time>
      </trkpt>
      <trkpt lat="43.82849" lon="3.60072">
        <ele>474.5</ele>
        <time>2019-12-15T09:46:54.000Z</time>
      </trkpt>
      <trkpt lat="43.82854" lon="3.60069">
        <ele>476.5</ele>
        <time>2019-12-15T09:47:7.000Z</time>
      </trkpt>
      <trkpt lat="43.82856" lon="3.60075">
        <ele>478.4</ele>
        <time>2019-12-15T09:47:20.000Z</time>
      </trkpt>
      <trkpt lat="43.82861" lon="3.60056">
        <ele>481.8</ele>
        <time>2019-12-15T09:47:39.000Z</time>
      </trkpt>
      <trkpt lat="43.82859" lon="3.60047">
        <ele>483.7</ele>
        <time>2019-12-15T09:47:53.000Z</time>
      </trkpt>
      <trkpt lat="43.82866" lon="3.60052">
        <ele>485.6</ele>
        <time>2019-12-15T09:48:8.000Z</time>
      </trkpt>
      <trkpt lat="43.82867" lon="3.60054">
        <ele>486.6</ele>
        <time>2019-12-15T09:48:11.000Z</time>
      </trkpt>
      <trkpt lat="43.8287" lon="3.60061">
        <ele>487.5</ele>
        <time>2019-12-15T09:48:20.000Z</time>
      </trkpt>
      <trkpt lat="43.82872" lon="3.60073">
        <ele>489.9</ele>
        <time>2019-12-15T09:48:33.000Z</time>
      </trkpt>
      <trkpt lat="43.82877" lon="3.60083">
        <ele>491.9</ele>
        <time>2019-12-15T09:48:47.000Z</time>
      </trkpt>
      <trkpt lat="43.82884" lon="3.60089">
        <ele>493.3</ele>
        <time>2019-12-15T09:48:59.000Z</time>
      </trkpt>
      <trkpt lat="43.82892" lon="3.60098">
        <ele>495.7</ele>
        <time>2019-12-15T09:49:14.000Z</time>
      </trkpt>
      <trkpt lat="43.82899" lon="3.60102">
        <ele>496.7</ele>
        <time>2019-12-15T09:49:25.000Z</time>
      </trkpt>
      <trkpt lat="43.829" lon="3.60103">
        <ele>497.6</ele>
        <time>2019-12-15T09:49:36.000Z</time>
      </trkpt>
      <trkpt lat="43.82901" lon="3.60103">
        <ele>498.6</ele>
        <time>2019-12-15T09:49:51.000Z</time>
      </trkpt>
      <trkpt lat="43.82902" lon="3.60101">
        <ele>498.1</ele>
        <time>2019-12-15T09:50:12.000Z</time>
      </trkpt>
      <trkpt lat="43.829" lon="3.60099">
        <ele>499.1</ele>
        <time>2019-12-15T09:50:36.000Z</time>
      </trkpt>
      <trkpt lat="43.82896" lon="3.60089">
        <ele>500.5</ele>
        <time>2019-12-15T09:50:49.000Z</time>
      </trkpt>
      <trkpt lat="43.82896" lon="3.60092">
        <ele>500.5</ele>
        <time>2019-12-15T09:51:2.000Z</time>
      </trkpt>
      <trkpt lat="43.82895" lon="3.60092">
        <ele>500</ele>
        <time>2019-12-15T09:51:28.000Z</time>
      </trkpt>
      <trkpt lat="43.82893" lon="3.60093">
        <ele>501</ele>
        <time>2019-12-15T09:51:54.000Z</time>
      </trkpt>
      <trkpt lat="43.82894" lon="3.60098">
        <ele>500.5</ele>
        <time>2019-12-15T09:52:12.000Z</time>
      </trkpt>
      <trkpt lat="43.82893" lon="3.60096">
        <ele>500.5</ele>
        <time>2019-12-15T09:52:35.000Z</time>
      </trkpt>
      <trkpt lat="43.82893" lon="3.60096">
        <ele>501</ele>
        <time>2019-12-15T09:53:7.000Z</time>
      </trkpt>
      <trkpt lat="43.82896" lon="3.60099">
        <ele>501</ele>
        <time>2019-12-15T09:53:36.000Z</time>
      </trkpt>
      <trkpt lat="43.82895" lon="3.60096">
        <ele>501.5</ele>
        <time>2019-12-15T09:54:4.000Z</time>
      </trkpt>
      <trkpt lat="43.82894" lon="3.60098">
        <ele>501</ele>
        <time>2019-12-15T09:54:36.000Z</time>
      </trkpt>
      <trkpt lat="43.82894" lon="3.60099">
        <ele>502</ele>
        <time>2019-12-15T09:55:9.000Z</time>
      </trkpt>
      <trkpt lat="43.82893" lon="3.60096">
        <ele>501.5</ele>
        <time>2019-12-15T09:55:43.000Z</time>
      </trkpt>
      <trkpt lat="43.82893" lon="3.60082">
        <ele>503.4</ele>
        <time>2019-12-15T09:55:55.000Z</time>
      </trkpt>
      <trkpt lat="43.82891" lon="3.60069">
        <ele>504.4</ele>
        <time>2019-12-15T09:56:9.000Z</time>
      </trkpt>
      <trkpt lat="43.82894" lon="3.60049">
        <ele>507.7</ele>
        <time>2019-12-15T09:56:25.000Z</time>
      </trkpt>
      <trkpt lat="43.82896" lon="3.60036">
        <ele>509.6</ele>
        <time>2019-12-15T09:56:40.000Z</time>
      </trkpt>
      <trkpt lat="43.82892" lon="3.60025">
        <ele>512</ele>
        <time>2019-12-15T09:56:54.000Z</time>
      </trkpt>
      <trkpt lat="43.82897" lon="3.60024">
        <ele>514.9</ele>
        <time>2019-12-15T09:57:8.000Z</time>
      </trkpt>
      <trkpt lat="43.82906" lon="3.60032">
        <ele>517.3</ele>
        <time>2019-12-15T09:57:23.000Z</time>
      </trkpt>
      <trkpt lat="43.8291" lon="3.60045">
        <ele>518.8</ele>
        <time>2019-12-15T09:57:36.000Z</time>
      </trkpt>
      <trkpt lat="43.82913" lon="3.60059">
        <ele>520.7</ele>
        <time>2019-12-15T09:57:50.000Z</time>
      </trkpt>
      <trkpt lat="43.82915" lon="3.60065">
        <ele>521.2</ele>
        <time>2019-12-15T09:57:55.000Z</time>
      </trkpt>
      <trkpt lat="43.82921" lon="3.60078">
        <ele>522.1</ele>
        <time>2019-12-15T09:58:9.000Z</time>
      </trkpt>
      <trkpt lat="43.82925" lon="3.60093">
        <ele>524.1</ele>
        <time>2019-12-15T09:58:23.000Z</time>
      </trkpt>
      <trkpt lat="43.82929" lon="3.60088">
        <ele>525.5</ele>
        <time>2019-12-15T09:58:36.000Z</time>
      </trkpt>
      <trkpt lat="43.82929" lon="3.60075">
        <ele>527.4</ele>
        <time>2019-12-15T09:58:50.000Z</time>
      </trkpt>
      <trkpt lat="43.82929" lon="3.60063">
        <ele>529.3</ele>
        <time>2019-12-15T09:59:2.000Z</time>
      </trkpt>
      <trkpt lat="43.8293" lon="3.6006">
        <ele>530.8</ele>
        <time>2019-12-15T09:59:16.000Z</time>
      </trkpt>
      <trkpt lat="43.82934" lon="3.60073">
        <ele>531.7</ele>
        <time>2019-12-15T09:59:29.000Z</time>
      </trkpt>
      <trkpt lat="43.82938" lon="3.60079">
        <ele>533.7</ele>
        <time>2019-12-15T09:59:42.000Z</time>
      </trkpt>
      <trkpt lat="43.82939" lon="3.60068">
        <ele>535.6</ele>
        <time>2019-12-15T09:59:53.000Z</time>
      </trkpt>
      <trkpt lat="43.82942" lon="3.60071">
        <ele>537</ele>
        <time>2019-12-15T10:00:5.000Z</time>
      </trkpt>
      <trkpt lat="43.8294" lon="3.60074">
        <ele>538</ele>
        <time>2019-12-15T10:00:17.000Z</time>
      </trkpt>
      <trkpt lat="43.82941" lon="3.60074">
        <ele>538.5</ele>
        <time>2019-12-15T10:00:30.000Z</time>
      </trkpt>
      <trkpt lat="43.82942" lon="3.60075">
        <ele>538.5</ele>
        <time>2019-12-15T10:00:43.000Z</time>
      </trkpt>
      <trkpt lat="43.82943" lon="3.60074">
        <ele>538.5</ele>
        <time>2019-12-15T10:01:3.000Z</time>
      </trkpt>
      <trkpt lat="43.82943" lon="3.60074">
        <ele>538.5</ele>
        <time>2019-12-15T10:01:28.000Z</time>
      </trkpt>
      <trkpt lat="43.82942" lon="3.60071">
        <ele>538.5</ele>
        <time>2019-12-15T10:01:44.000Z</time>
      </trkpt>
      <trkpt lat="43.82942" lon="3.60073">
        <ele>539</ele>
        <time>2019-12-15T10:02:4.000Z</time>
      </trkpt>
      <trkpt lat="43.82945" lon="3.60076">
        <ele>539.4</ele>
        <time>2019-12-15T10:02:18.000Z</time>
      </trkpt>
      <trkpt lat="43.82948" lon="3.60078">
        <ele>542.3</ele>
        <time>2019-12-15T10:02:31.000Z</time>
      </trkpt>
      <trkpt lat="43.82952" lon="3.60082">
        <ele>543.8</ele>
        <time>2019-12-15T10:02:43.000Z</time>
      </trkpt>
      <trkpt lat="43.82956" lon="3.60092">
        <ele>544.2</ele>
        <time>2019-12-15T10:02:57.000Z</time>
      </trkpt>
      <trkpt lat="43.82957" lon="3.601">
        <ele>545.2</ele>
        <time>2019-12-15T10:03:9.000Z</time>
      </trkpt>
      <trkpt lat="43.82959" lon="3.60112">
        <ele>546.2</ele>
        <time>2019-12-15T10:03:22.000Z</time>
      </trkpt>
      <trkpt lat="43.82959" lon="3.60119">
        <ele>547.1</ele>
        <time>2019-12-15T10:03:35.000Z</time>
      </trkpt>
      <trkpt lat="43.8296" lon="3.60124">
        <ele>546.7</ele>
        <time>2019-12-15T10:03:59.000Z</time>
      </trkpt>
      <trkpt lat="43.82962" lon="3.60129">
        <ele>547.1</ele>
        <time>2019-12-15T10:04:3.000Z</time>
      </trkpt>
      <trkpt lat="43.82971" lon="3.60131">
        <ele>546.2</ele>
        <time>2019-12-15T10:04:19.000Z</time>
      </trkpt>
      <trkpt lat="43.82972" lon="3.6013">
        <ele>546.2</ele>
        <time>2019-12-15T10:04:20.000Z</time>
      </trkpt>
      <trkpt lat="43.82978" lon="3.60127">
        <ele>545.2</ele>
        <time>2019-12-15T10:04:24.000Z</time>
      </trkpt>
      <trkpt lat="43.82986" lon="3.60117">
        <ele>541.8</ele>
        <time>2019-12-15T10:04:36.000Z</time>
      </trkpt>
      <trkpt lat="43.82991" lon="3.60123">
        <ele>538.5</ele>
        <time>2019-12-15T10:04:48.000Z</time>
      </trkpt>
      <trkpt lat="43.82993" lon="3.60123">
        <ele>537.5</ele>
        <time>2019-12-15T10:04:50.000Z</time>
      </trkpt>
      <trkpt lat="43.82997" lon="3.60121">
        <ele>536.1</ele>
        <time>2019-12-15T10:04:53.000Z</time>
      </trkpt>
      <trkpt lat="43.83004" lon="3.60113">
        <ele>534.2</ele>
        <time>2019-12-15T10:05:0.000Z</time>
      </trkpt>
      <trkpt lat="43.83023" lon="3.601">
        <ele>532.2</ele>
        <time>2019-12-15T10:05:16.000Z</time>
      </trkpt>
      <trkpt lat="43.83034" lon="3.60092">
        <ele>531.7</ele>
        <time>2019-12-15T10:05:26.000Z</time>
      </trkpt>
      <trkpt lat="43.83048" lon="3.60084">
        <ele>530.8</ele>
        <time>2019-12-15T10:05:44.000Z</time>
      </trkpt>
      <trkpt lat="43.83057" lon="3.60075">
        <ele>534.2</ele>
        <time>2019-12-15T10:06:0.000Z</time>
      </trkpt>
      <trkpt lat="43.8306" lon="3.60068">
        <ele>537</ele>
        <time>2019-12-15T10:06:16.000Z</time>
      </trkpt>
      <trkpt lat="43.83064" lon="3.60074">
        <ele>536.5</ele>
        <time>2019-12-15T10:06:26.000Z</time>
      </trkpt>
      <trkpt lat="43.83073" lon="3.60084">
        <ele>536.1</ele>
        <time>2019-12-15T10:06:37.000Z</time>
      </trkpt>
      <trkpt lat="43.83075" lon="3.60087">
        <ele>536.1</ele>
        <time>2019-12-15T10:06:42.000Z</time>
      </trkpt>
      <trkpt lat="43.83075" lon="3.60087">
        <ele>536.1</ele>
        <time>2019-12-15T10:06:53.000Z</time>
      </trkpt>
      <trkpt lat="43.83074" lon="3.60087">
        <ele>536.5</ele>
        <time>2019-12-15T10:06:55.000Z</time>
      </trkpt>
      <trkpt lat="43.83067" lon="3.60083">
        <ele>536.1</ele>
        <time>2019-12-15T10:07:8.000Z</time>
      </trkpt>
      <trkpt lat="43.83064" lon="3.60075">
        <ele>537.5</ele>
        <time>2019-12-15T10:07:20.000Z</time>
      </trkpt>
      <trkpt lat="43.83061" lon="3.6008">
        <ele>535.6</ele>
        <time>2019-12-15T10:07:30.000Z</time>
      </trkpt>
      <trkpt lat="43.83055" lon="3.60083">
        <ele>532.2</ele>
        <time>2019-12-15T10:07:37.000Z</time>
      </trkpt>
      <trkpt lat="43.83047" lon="3.60083">
        <ele>530.8</ele>
        <time>2019-12-15T10:07:47.000Z</time>
      </trkpt>
      <trkpt lat="43.83034" lon="3.60092">
        <ele>532.2</ele>
        <time>2019-12-15T10:08:0.000Z</time>
      </trkpt>
      <trkpt lat="43.83027" lon="3.60097">
        <ele>532.7</ele>
        <time>2019-12-15T10:08:8.000Z</time>
      </trkpt>
      <trkpt lat="43.83016" lon="3.60105">
        <ele>533.7</ele>
        <time>2019-12-15T10:08:19.000Z</time>
      </trkpt>
      <trkpt lat="43.83003" lon="3.6011">
        <ele>537</ele>
        <time>2019-12-15T10:08:33.000Z</time>
      </trkpt>
      <trkpt lat="43.83001" lon="3.60113">
        <ele>537</ele>
        <time>2019-12-15T10:08:36.000Z</time>
      </trkpt>
      <trkpt lat="43.82995" lon="3.60123">
        <ele>540.4</ele>
        <time>2019-12-15T10:08:48.000Z</time>
      </trkpt>
      <trkpt lat="43.82989" lon="3.60124">
        <ele>543.8</ele>
        <time>2019-12-15T10:09:3.000Z</time>
      </trkpt>
      <trkpt lat="43.82982" lon="3.60125">
        <ele>544.2</ele>
        <time>2019-12-15T10:09:7.000Z</time>
      </trkpt>
      <trkpt lat="43.82979" lon="3.60127">
        <ele>545.2</ele>
        <time>2019-12-15T10:09:11.000Z</time>
      </trkpt>
      <trkpt lat="43.82973" lon="3.60134">
        <ele>546.7</ele>
        <time>2019-12-15T10:09:19.000Z</time>
      </trkpt>
      <trkpt lat="43.82965" lon="3.60137">
        <ele>549</ele>
        <time>2019-12-15T10:09:30.000Z</time>
      </trkpt>
      <trkpt lat="43.82961" lon="3.60123">
        <ele>549</ele>
        <time>2019-12-15T10:09:42.000Z</time>
      </trkpt>
      <trkpt lat="43.82958" lon="3.60112">
        <ele>548.6</ele>
        <time>2019-12-15T10:09:56.000Z</time>
      </trkpt>
      <trkpt lat="43.82957" lon="3.60107">
        <ele>548.6</ele>
        <time>2019-12-15T10:10:1.000Z</time>
      </trkpt>
      <trkpt lat="43.82956" lon="3.60093">
        <ele>547.1</ele>
        <time>2019-12-15T10:10:11.000Z</time>
      </trkpt>
      <trkpt lat="43.82955" lon="3.60081">
        <ele>546.2</ele>
        <time>2019-12-15T10:10:26.000Z</time>
      </trkpt>
      <trkpt lat="43.82953" lon="3.60078">
        <ele>546.2</ele>
        <time>2019-12-15T10:10:42.000Z</time>
      </trkpt>
      <trkpt lat="43.82951" lon="3.60073">
        <ele>545.2</ele>
        <time>2019-12-15T10:10:57.000Z</time>
      </trkpt>
      <trkpt lat="43.82948" lon="3.60073">
        <ele>543.3</ele>
        <time>2019-12-15T10:11:11.000Z</time>
      </trkpt>
      <trkpt lat="43.82946" lon="3.60072">
        <ele>541.8</ele>
        <time>2019-12-15T10:11:14.000Z</time>
      </trkpt>
      <trkpt lat="43.82945" lon="3.60071">
        <ele>541.4</ele>
        <time>2019-12-15T10:11:27.000Z</time>
      </trkpt>
      <trkpt lat="43.82942" lon="3.60062">
        <ele>540.9</ele>
        <time>2019-12-15T10:11:39.000Z</time>
      </trkpt>
      <trkpt lat="43.8294" lon="3.60058">
        <ele>540.9</ele>
        <time>2019-12-15T10:11:51.000Z</time>
      </trkpt>
      <trkpt lat="43.82939" lon="3.60048">
        <ele>541.8</ele>
        <time>2019-12-15T10:12:3.000Z</time>
      </trkpt>
      <trkpt lat="43.82936" lon="3.60039">
        <ele>543.3</ele>
        <time>2019-12-15T10:12:14.000Z</time>
      </trkpt>
      <trkpt lat="43.82939" lon="3.60023">
        <ele>545.2</ele>
        <time>2019-12-15T10:12:27.000Z</time>
      </trkpt>
      <trkpt lat="43.82939" lon="3.6001">
        <ele>547.1</ele>
        <time>2019-12-15T10:12:42.000Z</time>
      </trkpt>
      <trkpt lat="43.8294" lon="3.60008">
        <ele>547.6</ele>
        <time>2019-12-15T10:12:44.000Z</time>
      </trkpt>
      <trkpt lat="43.82936" lon="3.59996">
        <ele>549</ele>
        <time>2019-12-15T10:12:58.000Z</time>
      </trkpt>
      <trkpt lat="43.82929" lon="3.59986">
        <ele>551</ele>
        <time>2019-12-15T10:13:12.000Z</time>
      </trkpt>
      <trkpt lat="43.82924" lon="3.59975">
        <ele>552.9</ele>
        <time>2019-12-15T10:13:26.000Z</time>
      </trkpt>
      <trkpt lat="43.82931" lon="3.59975">
        <ele>555.3</ele>
        <time>2019-12-15T10:13:41.000Z</time>
      </trkpt>
      <trkpt lat="43.82924" lon="3.59965">
        <ele>557.2</ele>
        <time>2019-12-15T10:13:57.000Z</time>
      </trkpt>
      <trkpt lat="43.82918" lon="3.59961">
        <ele>558.2</ele>
        <time>2019-12-15T10:14:7.000Z</time>
      </trkpt>
      <trkpt lat="43.82917" lon="3.59951">
        <ele>558.7</ele>
        <time>2019-12-15T10:14:18.000Z</time>
      </trkpt>
      <trkpt lat="43.82918" lon="3.59947">
        <ele>558.2</ele>
        <time>2019-12-15T10:14:21.000Z</time>
      </trkpt>
      <trkpt lat="43.82919" lon="3.5994">
        <ele>557.2</ele>
        <time>2019-12-15T10:14:27.000Z</time>
      </trkpt>
      <trkpt lat="43.82919" lon="3.59923">
        <ele>555.8</ele>
        <time>2019-12-15T10:14:40.000Z</time>
      </trkpt>
      <trkpt lat="43.8292" lon="3.59905">
        <ele>555.3</ele>
        <time>2019-12-15T10:14:53.000Z</time>
      </trkpt>
      <trkpt lat="43.82919" lon="3.59892">
        <ele>555.3</ele>
        <time>2019-12-15T10:15:4.000Z</time>
      </trkpt>
      <trkpt lat="43.82921" lon="3.59873">
        <ele>554.8</ele>
        <time>2019-12-15T10:15:16.000Z</time>
      </trkpt>
      <trkpt lat="43.82921" lon="3.59852">
        <ele>552.4</ele>
        <time>2019-12-15T10:15:32.000Z</time>
      </trkpt>
      <trkpt lat="43.82922" lon="3.59846">
        <ele>551.5</ele>
        <time>2019-12-15T10:15:37.000Z</time>
      </trkpt>
      <trkpt lat="43.82923" lon="3.59842">
        <ele>551</ele>
        <time>2019-12-15T10:15:40.000Z</time>
      </trkpt>
      <trkpt lat="43.82925" lon="3.5983">
        <ele>550</ele>
        <time>2019-12-15T10:15:47.000Z</time>
      </trkpt>
      <trkpt lat="43.82926" lon="3.59819">
        <ele>550.5</ele>
        <time>2019-12-15T10:16:1.000Z</time>
      </trkpt>
      <trkpt lat="43.82925" lon="3.59817">
        <ele>550</ele>
        <time>2019-12-15T10:16:10.000Z</time>
      </trkpt>
      <trkpt lat="43.82925" lon="3.5981">
        <ele>549.5</ele>
        <time>2019-12-15T10:16:18.000Z</time>
      </trkpt>
      <trkpt lat="43.82926" lon="3.59805">
        <ele>549.5</ele>
        <time>2019-12-15T10:16:22.000Z</time>
      </trkpt>
      <trkpt lat="43.82924" lon="3.59785">
        <ele>550</ele>
        <time>2019-12-15T10:16:37.000Z</time>
      </trkpt>
      <trkpt lat="43.82913" lon="3.59777">
        <ele>550.5</ele>
        <time>2019-12-15T10:16:50.000Z</time>
      </trkpt>
      <trkpt lat="43.82903" lon="3.59768">
        <ele>552.4</ele>
        <time>2019-12-15T10:17:4.000Z</time>
      </trkpt>
      <trkpt lat="43.82895" lon="3.59754">
        <ele>553.4</ele>
        <time>2019-12-15T10:17:20.000Z</time>
      </trkpt>
      <trkpt lat="43.82893" lon="3.59752">
        <ele>553.9</ele>
        <time>2019-12-15T10:17:23.000Z</time>
      </trkpt>
      <trkpt lat="43.82881" lon="3.59744">
        <ele>554.3</ele>
        <time>2019-12-15T10:17:37.000Z</time>
      </trkpt>
      <trkpt lat="43.82874" lon="3.59734">
        <ele>557.2</ele>
        <time>2019-12-15T10:17:51.000Z</time>
      </trkpt>
      <trkpt lat="43.82872" lon="3.59724">
        <ele>559.1</ele>
        <time>2019-12-15T10:18:5.000Z</time>
      </trkpt>
      <trkpt lat="43.8287" lon="3.59713">
        <ele>561.1</ele>
        <time>2019-12-15T10:18:22.000Z</time>
      </trkpt>
      <trkpt lat="43.82859" lon="3.59703">
        <ele>563</ele>
        <time>2019-12-15T10:18:37.000Z</time>
      </trkpt>
      <trkpt lat="43.82848" lon="3.59694">
        <ele>565.4</ele>
        <time>2019-12-15T10:18:52.000Z</time>
      </trkpt>
      <trkpt lat="43.8284" lon="3.59685">
        <ele>566.3</ele>
        <time>2019-12-15T10:19:6.000Z</time>
      </trkpt>
      <trkpt lat="43.82831" lon="3.59676">
        <ele>568.3</ele>
        <time>2019-12-15T10:19:21.000Z</time>
      </trkpt>
      <trkpt lat="43.82827" lon="3.59666">
        <ele>570.2</ele>
        <time>2019-12-15T10:19:35.000Z</time>
      </trkpt>
      <trkpt lat="43.82829" lon="3.59661">
        <ele>572.1</ele>
        <time>2019-12-15T10:19:49.000Z</time>
      </trkpt>
      <trkpt lat="43.82836" lon="3.59662">
        <ele>573.6</ele>
        <time>2019-12-15T10:20:4.000Z</time>
      </trkpt>
      <trkpt lat="43.8284" lon="3.59658">
        <ele>575.5</ele>
        <time>2019-12-15T10:20:19.000Z</time>
      </trkpt>
      <trkpt lat="43.82842" lon="3.59647">
        <ele>577.9</ele>
        <time>2019-12-15T10:20:33.000Z</time>
      </trkpt>
      <trkpt lat="43.82849" lon="3.59637">
        <ele>580.3</ele>
        <time>2019-12-15T10:20:49.000Z</time>
      </trkpt>
      <trkpt lat="43.82856" lon="3.59647">
        <ele>582.2</ele>
        <time>2019-12-15T10:21:6.000Z</time>
      </trkpt>
      <trkpt lat="43.82866" lon="3.59649">
        <ele>584.6</ele>
        <time>2019-12-15T10:21:22.000Z</time>
      </trkpt>
      <trkpt lat="43.82877" lon="3.59655">
        <ele>585.6</ele>
        <time>2019-12-15T10:21:36.000Z</time>
      </trkpt>
      <trkpt lat="43.82878" lon="3.59659">
        <ele>586.1</ele>
        <time>2019-12-15T10:21:55.000Z</time>
      </trkpt>
      <trkpt lat="43.82878" lon="3.59659">
        <ele>586.1</ele>
        <time>2019-12-15T10:22:21.000Z</time>
      </trkpt>
      <trkpt lat="43.82875" lon="3.59663">
        <ele>586.1</ele>
        <time>2019-12-15T10:22:39.000Z</time>
      </trkpt>
      <trkpt lat="43.82877" lon="3.59658">
        <ele>586.1</ele>
        <time>2019-12-15T10:22:59.000Z</time>
      </trkpt>
      <trkpt lat="43.82878" lon="3.59655">
        <ele>586.5</ele>
        <time>2019-12-15T10:23:20.000Z</time>
      </trkpt>
      <trkpt lat="43.82873" lon="3.59646">
        <ele>589</ele>
        <time>2019-12-15T10:23:33.000Z</time>
      </trkpt>
      <trkpt lat="43.82872" lon="3.59635">
        <ele>590.9</ele>
        <time>2019-12-15T10:23:47.000Z</time>
      </trkpt>
      <trkpt lat="43.82876" lon="3.59619">
        <ele>592.3</ele>
        <time>2019-12-15T10:24:3.000Z</time>
      </trkpt>
      <trkpt lat="43.82882" lon="3.59607">
        <ele>593.7</ele>
        <time>2019-12-15T10:24:18.000Z</time>
      </trkpt>
      <trkpt lat="43.82893" lon="3.59597">
        <ele>596.2</ele>
        <time>2019-12-15T10:24:37.000Z</time>
      </trkpt>
      <trkpt lat="43.82902" lon="3.59589">
        <ele>598.1</ele>
        <time>2019-12-15T10:24:52.000Z</time>
      </trkpt>
      <trkpt lat="43.82907" lon="3.59582">
        <ele>599.5</ele>
        <time>2019-12-15T10:25:11.000Z</time>
      </trkpt>
      <trkpt lat="43.8291" lon="3.59578">
        <ele>601</ele>
        <time>2019-12-15T10:25:31.000Z</time>
      </trkpt>
      <trkpt lat="43.82913" lon="3.59565">
        <ele>603.4</ele>
        <time>2019-12-15T10:25:46.000Z</time>
      </trkpt>
      <trkpt lat="43.82919" lon="3.59553">
        <ele>605.8</ele>
        <time>2019-12-15T10:26:2.000Z</time>
      </trkpt>
      <trkpt lat="43.82925" lon="3.59542">
        <ele>608.2</ele>
        <time>2019-12-15T10:26:19.000Z</time>
      </trkpt>
      <trkpt lat="43.82925" lon="3.59525">
        <ele>611.1</ele>
        <time>2019-12-15T10:26:38.000Z</time>
      </trkpt>
      <trkpt lat="43.82926" lon="3.59515">
        <ele>613</ele>
        <time>2019-12-15T10:26:53.000Z</time>
      </trkpt>
      <trkpt lat="43.82937" lon="3.59513">
        <ele>616.3</ele>
        <time>2019-12-15T10:27:11.000Z</time>
      </trkpt>
      <trkpt lat="43.82943" lon="3.59516">
        <ele>618.7</ele>
        <time>2019-12-15T10:27:30.000Z</time>
      </trkpt>
      <trkpt lat="43.82944" lon="3.59504">
        <ele>620.7</ele>
        <time>2019-12-15T10:27:47.000Z</time>
      </trkpt>
      <trkpt lat="43.82948" lon="3.59506">
        <ele>624</ele>
        <time>2019-12-15T10:28:4.000Z</time>
      </trkpt>
      <trkpt lat="43.82951" lon="3.59519">
        <ele>625.5</ele>
        <time>2019-12-15T10:28:19.000Z</time>
      </trkpt>
      <trkpt lat="43.82953" lon="3.59533">
        <ele>626.9</ele>
        <time>2019-12-15T10:28:34.000Z</time>
      </trkpt>
      <trkpt lat="43.82954" lon="3.59546">
        <ele>628.4</ele>
        <time>2019-12-15T10:28:48.000Z</time>
      </trkpt>
      <trkpt lat="43.82956" lon="3.59565">
        <ele>629.8</ele>
        <time>2019-12-15T10:29:6.000Z</time>
      </trkpt>
      <trkpt lat="43.82958" lon="3.59577">
        <ele>631.7</ele>
        <time>2019-12-15T10:29:20.000Z</time>
      </trkpt>
      <trkpt lat="43.8296" lon="3.59589">
        <ele>633.2</ele>
        <time>2019-12-15T10:29:33.000Z</time>
      </trkpt>
      <trkpt lat="43.82965" lon="3.5959">
        <ele>635.6</ele>
        <time>2019-12-15T10:29:50.000Z</time>
      </trkpt>
      <trkpt lat="43.82968" lon="3.59576">
        <ele>637.5</ele>
        <time>2019-12-15T10:30:10.000Z</time>
      </trkpt>
      <trkpt lat="43.8297" lon="3.59566">
        <ele>639.4</ele>
        <time>2019-12-15T10:30:23.000Z</time>
      </trkpt>
      <trkpt lat="43.82972" lon="3.59554">
        <ele>642.8</ele>
        <time>2019-12-15T10:30:39.000Z</time>
      </trkpt>
      <trkpt lat="43.82977" lon="3.59545">
        <ele>644.7</ele>
        <time>2019-12-15T10:30:56.000Z</time>
      </trkpt>
      <trkpt lat="43.82978" lon="3.59531">
        <ele>648.1</ele>
        <time>2019-12-15T10:31:14.000Z</time>
      </trkpt>
      <trkpt lat="43.82979" lon="3.59516">
        <ele>649.5</ele>
        <time>2019-12-15T10:31:28.000Z</time>
      </trkpt>
      <trkpt lat="43.82979" lon="3.59514">
        <ele>651.4</ele>
        <time>2019-12-15T10:31:42.000Z</time>
      </trkpt>
      <trkpt lat="43.82977" lon="3.59516">
        <ele>651</ele>
        <time>2019-12-15T10:32:16.000Z</time>
      </trkpt>
      <trkpt lat="43.82975" lon="3.59518">
        <ele>651</ele>
        <time>2019-12-15T10:32:48.000Z</time>
      </trkpt>
      <trkpt lat="43.82975" lon="3.59517">
        <ele>651.4</ele>
        <time>2019-12-15T10:33:10.000Z</time>
      </trkpt>
      <trkpt lat="43.8298" lon="3.59513">
        <ele>651</ele>
        <time>2019-12-15T10:33:37.000Z</time>
      </trkpt>
      <trkpt lat="43.82979" lon="3.59515">
        <ele>651.4</ele>
        <time>2019-12-15T10:34:4.000Z</time>
      </trkpt>
      <trkpt lat="43.82978" lon="3.59516">
        <ele>651.4</ele>
        <time>2019-12-15T10:34:37.000Z</time>
      </trkpt>
      <trkpt lat="43.8298" lon="3.59522">
        <ele>651</ele>
        <time>2019-12-15T10:35:16.000Z</time>
      </trkpt>
      <trkpt lat="43.82979" lon="3.59515">
        <ele>651.9</ele>
        <time>2019-12-15T10:35:44.000Z</time>
      </trkpt>
      <trkpt lat="43.82982" lon="3.59515">
        <ele>651.4</ele>
        <time>2019-12-15T10:36:12.000Z</time>
      </trkpt>
      <trkpt lat="43.82983" lon="3.59517">
        <ele>651.9</ele>
        <time>2019-12-15T10:36:46.000Z</time>
      </trkpt>
      <trkpt lat="43.8298" lon="3.5951">
        <ele>651.4</ele>
        <time>2019-12-15T10:37:16.000Z</time>
      </trkpt>
      <trkpt lat="43.82981" lon="3.59514">
        <ele>651.4</ele>
        <time>2019-12-15T10:37:43.000Z</time>
      </trkpt>
      <trkpt lat="43.82983" lon="3.59506">
        <ele>653.3</ele>
        <time>2019-12-15T10:37:58.000Z</time>
      </trkpt>
      <trkpt lat="43.82986" lon="3.59496">
        <ele>656.2</ele>
        <time>2019-12-15T10:38:15.000Z</time>
      </trkpt>
      <trkpt lat="43.82989" lon="3.59481">
        <ele>659.1</ele>
        <time>2019-12-15T10:38:34.000Z</time>
      </trkpt>
      <trkpt lat="43.82992" lon="3.5947">
        <ele>661.5</ele>
        <time>2019-12-15T10:38:51.000Z</time>
      </trkpt>
      <trkpt lat="43.8299" lon="3.59457">
        <ele>663.9</ele>
        <time>2019-12-15T10:39:8.000Z</time>
      </trkpt>
      <trkpt lat="43.82984" lon="3.59447">
        <ele>665.4</ele>
        <time>2019-12-15T10:39:23.000Z</time>
      </trkpt>
      <trkpt lat="43.82985" lon="3.59439">
        <ele>665.8</ele>
        <time>2019-12-15T10:39:36.000Z</time>
      </trkpt>
      <trkpt lat="43.82984" lon="3.59437">
        <ele>665.8</ele>
        <time>2019-12-15T10:39:48.000Z</time>
      </trkpt>
      <trkpt lat="43.82985" lon="3.59437">
        <ele>666.3</ele>
        <time>2019-12-15T10:40:16.000Z</time>
      </trkpt>
      <trkpt lat="43.82983" lon="3.59431">
        <ele>666.3</ele>
        <time>2019-12-15T10:40:42.000Z</time>
      </trkpt>
      <trkpt lat="43.82985" lon="3.5942">
        <ele>667.8</ele>
        <time>2019-12-15T10:40:56.000Z</time>
      </trkpt>
      <trkpt lat="43.82985" lon="3.59405">
        <ele>669.2</ele>
        <time>2019-12-15T10:41:12.000Z</time>
      </trkpt>
      <trkpt lat="43.82982" lon="3.59391">
        <ele>670.7</ele>
        <time>2019-12-15T10:41:25.000Z</time>
      </trkpt>
      <trkpt lat="43.82982" lon="3.59381">
        <ele>671.1</ele>
        <time>2019-12-15T10:41:35.000Z</time>
      </trkpt>
      <trkpt lat="43.82987" lon="3.59367">
        <ele>671.1</ele>
        <time>2019-12-15T10:41:49.000Z</time>
      </trkpt>
      <trkpt lat="43.82987" lon="3.59363">
        <ele>671.1</ele>
        <time>2019-12-15T10:41:53.000Z</time>
      </trkpt>
      <trkpt lat="43.82991" lon="3.59344">
        <ele>671.6</ele>
        <time>2019-12-15T10:42:7.000Z</time>
      </trkpt>
      <trkpt lat="43.82992" lon="3.59326">
        <ele>672.6</ele>
        <time>2019-12-15T10:42:24.000Z</time>
      </trkpt>
      <trkpt lat="43.82994" lon="3.59309">
        <ele>673.1</ele>
        <time>2019-12-15T10:42:37.000Z</time>
      </trkpt>
      <trkpt lat="43.82998" lon="3.59307">
        <ele>673.1</ele>
        <time>2019-12-15T10:42:43.000Z</time>
      </trkpt>
      <trkpt lat="43.83001" lon="3.59304">
        <ele>673.5</ele>
        <time>2019-12-15T10:42:47.000Z</time>
      </trkpt>
      <trkpt lat="43.82999" lon="3.59288">
        <ele>673.5</ele>
        <time>2019-12-15T10:43:0.000Z</time>
      </trkpt>
      <trkpt lat="43.82999" lon="3.59276">
        <ele>673.5</ele>
        <time>2019-12-15T10:43:9.000Z</time>
      </trkpt>
      <trkpt lat="43.83003" lon="3.59257">
        <ele>674</ele>
        <time>2019-12-15T10:43:25.000Z</time>
      </trkpt>
      <trkpt lat="43.83008" lon="3.59255">
        <ele>674</ele>
        <time>2019-12-15T10:43:34.000Z</time>
      </trkpt>
      <trkpt lat="43.83012" lon="3.59252">
        <ele>674</ele>
        <time>2019-12-15T10:43:38.000Z</time>
      </trkpt>
      <trkpt lat="43.83016" lon="3.59237">
        <ele>675</ele>
        <time>2019-12-15T10:43:52.000Z</time>
      </trkpt>
      <trkpt lat="43.83022" lon="3.59226">
        <ele>674.5</ele>
        <time>2019-12-15T10:44:2.000Z</time>
      </trkpt>
      <trkpt lat="43.83024" lon="3.59214">
        <ele>675.5</ele>
        <time>2019-12-15T10:44:11.000Z</time>
      </trkpt>
      <trkpt lat="43.83024" lon="3.59208">
        <ele>675.5</ele>
        <time>2019-12-15T10:44:16.000Z</time>
      </trkpt>
      <trkpt lat="43.8303" lon="3.59189">
        <ele>676.4</ele>
        <time>2019-12-15T10:44:32.000Z</time>
      </trkpt>
      <trkpt lat="43.83032" lon="3.59172">
        <ele>676.9</ele>
        <time>2019-12-15T10:44:45.000Z</time>
      </trkpt>
      <trkpt lat="43.83032" lon="3.5916">
        <ele>677.9</ele>
        <time>2019-12-15T10:44:54.000Z</time>
      </trkpt>
      <trkpt lat="43.83035" lon="3.59156">
        <ele>677.9</ele>
        <time>2019-12-15T10:45:6.000Z</time>
      </trkpt>
      <trkpt lat="43.83036" lon="3.59155">
        <ele>677.9</ele>
        <time>2019-12-15T10:45:21.000Z</time>
      </trkpt>
      <trkpt lat="43.83035" lon="3.59155">
        <ele>677.9</ele>
        <time>2019-12-15T10:45:36.000Z</time>
      </trkpt>
      <trkpt lat="43.83035" lon="3.59154">
        <ele>677.9</ele>
        <time>2019-12-15T10:45:46.000Z</time>
      </trkpt>
      <trkpt lat="43.83039" lon="3.59153">
        <ele>677.9</ele>
        <time>2019-12-15T10:45:50.000Z</time>
      </trkpt>
      <trkpt lat="43.83052" lon="3.59149">
        <ele>678.3</ele>
        <time>2019-12-15T10:46:3.000Z</time>
      </trkpt>
      <trkpt lat="43.83063" lon="3.59141">
        <ele>679.3</ele>
        <time>2019-12-15T10:46:16.000Z</time>
      </trkpt>
      <trkpt lat="43.83066" lon="3.59137">
        <ele>678.8</ele>
        <time>2019-12-15T10:46:20.000Z</time>
      </trkpt>
      <trkpt lat="43.83078" lon="3.59126">
        <ele>679.3</ele>
        <time>2019-12-15T10:46:35.000Z</time>
      </trkpt>
      <trkpt lat="43.8309" lon="3.59113">
        <ele>680.3</ele>
        <time>2019-12-15T10:46:50.000Z</time>
      </trkpt>
      <trkpt lat="43.831" lon="3.59101">
        <ele>680.3</ele>
        <time>2019-12-15T10:47:5.000Z</time>
      </trkpt>
      <trkpt lat="43.83111" lon="3.59087">
        <ele>681.2</ele>
        <time>2019-12-15T10:47:19.000Z</time>
      </trkpt>
      <trkpt lat="43.8312" lon="3.59072">
        <ele>681.7</ele>
        <time>2019-12-15T10:47:34.000Z</time>
      </trkpt>
      <trkpt lat="43.83128" lon="3.59058">
        <ele>683.2</ele>
        <time>2019-12-15T10:47:47.000Z</time>
      </trkpt>
      <trkpt lat="43.83138" lon="3.59043">
        <ele>684.1</ele>
        <time>2019-12-15T10:48:4.000Z</time>
      </trkpt>
      <trkpt lat="43.83134" lon="3.59033">
        <ele>685.6</ele>
        <time>2019-12-15T10:48:16.000Z</time>
      </trkpt>
      <trkpt lat="43.83125" lon="3.59019">
        <ele>686.5</ele>
        <time>2019-12-15T10:48:31.000Z</time>
      </trkpt>
      <trkpt lat="43.83119" lon="3.59003">
        <ele>688.4</ele>
        <time>2019-12-15T10:48:46.000Z</time>
      </trkpt>
      <trkpt lat="43.83115" lon="3.58984">
        <ele>690.4</ele>
        <time>2019-12-15T10:49:2.000Z</time>
      </trkpt>
      <trkpt lat="43.83114" lon="3.5897">
        <ele>691.3</ele>
        <time>2019-12-15T10:49:16.000Z</time>
      </trkpt>
      <trkpt lat="43.83109" lon="3.58959">
        <ele>691.8</ele>
        <time>2019-12-15T10:49:30.000Z</time>
      </trkpt>
      <trkpt lat="43.83098" lon="3.58952">
        <ele>694.2</ele>
        <time>2019-12-15T10:49:46.000Z</time>
      </trkpt>
      <trkpt lat="43.83087" lon="3.58949">
        <ele>694.7</ele>
        <time>2019-12-15T10:50:1.000Z</time>
      </trkpt>
      <trkpt lat="43.8308" lon="3.58942">
        <ele>695.7</ele>
        <time>2019-12-15T10:50:14.000Z</time>
      </trkpt>
      <trkpt lat="43.83071" lon="3.58934">
        <ele>696.1</ele>
        <time>2019-12-15T10:50:29.000Z</time>
      </trkpt>
      <trkpt lat="43.83066" lon="3.58926">
        <ele>696.1</ele>
        <time>2019-12-15T10:50:43.000Z</time>
      </trkpt>
      <trkpt lat="43.83059" lon="3.58922">
        <ele>695.7</ele>
        <time>2019-12-15T10:50:54.000Z</time>
      </trkpt>
      <trkpt lat="43.83056" lon="3.58907">
        <ele>696.6</ele>
        <time>2019-12-15T10:51:9.000Z</time>
      </trkpt>
      <trkpt lat="43.83055" lon="3.58894">
        <ele>698</ele>
        <time>2019-12-15T10:51:24.000Z</time>
      </trkpt>
      <trkpt lat="43.8306" lon="3.58882">
        <ele>700</ele>
        <time>2019-12-15T10:51:40.000Z</time>
      </trkpt>
      <trkpt lat="43.83063" lon="3.5887">
        <ele>701.9</ele>
        <time>2019-12-15T10:51:56.000Z</time>
      </trkpt>
      <trkpt lat="43.83064" lon="3.58857">
        <ele>703.8</ele>
        <time>2019-12-15T10:52:12.000Z</time>
      </trkpt>
      <trkpt lat="43.83065" lon="3.58852">
        <ele>703.8</ele>
        <time>2019-12-15T10:52:29.000Z</time>
      </trkpt>
      <trkpt lat="43.83062" lon="3.58841">
        <ele>705.3</ele>
        <time>2019-12-15T10:52:46.000Z</time>
      </trkpt>
      <trkpt lat="43.83059" lon="3.58828">
        <ele>707.7</ele>
        <time>2019-12-15T10:53:2.000Z</time>
      </trkpt>
      <trkpt lat="43.83053" lon="3.58817">
        <ele>709.1</ele>
        <time>2019-12-15T10:53:18.000Z</time>
      </trkpt>
      <trkpt lat="43.83047" lon="3.58806">
        <ele>710.5</ele>
        <time>2019-12-15T10:53:33.000Z</time>
      </trkpt>
      <trkpt lat="43.83037" lon="3.588">
        <ele>712</ele>
        <time>2019-12-15T10:53:48.000Z</time>
      </trkpt>
      <trkpt lat="43.83032" lon="3.58793">
        <ele>713.4</ele>
        <time>2019-12-15T10:54:0.000Z</time>
      </trkpt>
      <trkpt lat="43.83026" lon="3.58783">
        <ele>715.8</ele>
        <time>2019-12-15T10:54:12.000Z</time>
      </trkpt>
      <trkpt lat="43.83022" lon="3.5877">
        <ele>717.8</ele>
        <time>2019-12-15T10:54:27.000Z</time>
      </trkpt>
      <trkpt lat="43.83022" lon="3.58766">
        <ele>719.2</ele>
        <time>2019-12-15T10:54:41.000Z</time>
      </trkpt>
      <trkpt lat="43.83022" lon="3.58767">
        <ele>718.7</ele>
        <time>2019-12-15T10:54:59.000Z</time>
      </trkpt>
      <trkpt lat="43.83021" lon="3.58762">
        <ele>719.7</ele>
        <time>2019-12-15T10:55:24.000Z</time>
      </trkpt>
      <trkpt lat="43.83023" lon="3.58762">
        <ele>720.7</ele>
        <time>2019-12-15T10:55:44.000Z</time>
      </trkpt>
      <trkpt lat="43.83016" lon="3.58756">
        <ele>722.1</ele>
        <time>2019-12-15T10:55:59.000Z</time>
      </trkpt>
      <trkpt lat="43.83013" lon="3.58749">
        <ele>723.5</ele>
        <time>2019-12-15T10:56:19.000Z</time>
      </trkpt>
      <trkpt lat="43.83003" lon="3.58749">
        <ele>725</ele>
        <time>2019-12-15T10:56:35.000Z</time>
      </trkpt>
      <trkpt lat="43.83" lon="3.5874">
        <ele>727.4</ele>
        <time>2019-12-15T10:56:49.000Z</time>
      </trkpt>
      <trkpt lat="43.83001" lon="3.58739">
        <ele>727.4</ele>
        <time>2019-12-15T10:57:2.000Z</time>
      </trkpt>
      <trkpt lat="43.82996" lon="3.58732">
        <ele>729.3</ele>
        <time>2019-12-15T10:57:13.000Z</time>
      </trkpt>
      <trkpt lat="43.82993" lon="3.5873">
        <ele>730.3</ele>
        <time>2019-12-15T10:57:25.000Z</time>
      </trkpt>
      <trkpt lat="43.82991" lon="3.58722">
        <ele>732.2</ele>
        <time>2019-12-15T10:57:35.000Z</time>
      </trkpt>
      <trkpt lat="43.82984" lon="3.58715">
        <ele>734.1</ele>
        <time>2019-12-15T10:57:48.000Z</time>
      </trkpt>
      <trkpt lat="43.82983" lon="3.58705">
        <ele>736.5</ele>
        <time>2019-12-15T10:58:0.000Z</time>
      </trkpt>
      <trkpt lat="43.82983" lon="3.58694">
        <ele>738.4</ele>
        <time>2019-12-15T10:58:15.000Z</time>
      </trkpt>
      <trkpt lat="43.82981" lon="3.58686">
        <ele>741.3</ele>
        <time>2019-12-15T10:58:27.000Z</time>
      </trkpt>
      <trkpt lat="43.8298" lon="3.58673">
        <ele>743.7</ele>
        <time>2019-12-15T10:58:42.000Z</time>
      </trkpt>
      <trkpt lat="43.82979" lon="3.5866">
        <ele>747.1</ele>
        <time>2019-12-15T10:58:56.000Z</time>
      </trkpt>
      <trkpt lat="43.82974" lon="3.58648">
        <ele>748.5</ele>
        <time>2019-12-15T10:59:9.000Z</time>
      </trkpt>
      <trkpt lat="43.82969" lon="3.58636">
        <ele>750.5</ele>
        <time>2019-12-15T10:59:24.000Z</time>
      </trkpt>
      <trkpt lat="43.82969" lon="3.58629">
        <ele>751.9</ele>
        <time>2019-12-15T10:59:38.000Z</time>
      </trkpt>
      <trkpt lat="43.82969" lon="3.5863">
        <ele>752.4</ele>
        <time>2019-12-15T10:59:56.000Z</time>
      </trkpt>
      <trkpt lat="43.82967" lon="3.58624">
        <ele>752.8</ele>
        <time>2019-12-15T11:00:11.000Z</time>
      </trkpt>
      <trkpt lat="43.8296" lon="3.58617">
        <ele>755.2</ele>
        <time>2019-12-15T11:00:24.000Z</time>
      </trkpt>
      <trkpt lat="43.82955" lon="3.58602">
        <ele>757.2</ele>
        <time>2019-12-15T11:00:39.000Z</time>
      </trkpt>
      <trkpt lat="43.82952" lon="3.58596">
        <ele>758.1</ele>
        <time>2019-12-15T11:00:47.000Z</time>
      </trkpt>
      <trkpt lat="43.82946" lon="3.5858">
        <ele>759.6</ele>
        <time>2019-12-15T11:01:2.000Z</time>
      </trkpt>
      <trkpt lat="43.82943" lon="3.58564">
        <ele>759.6</ele>
        <time>2019-12-15T11:01:16.000Z</time>
      </trkpt>
      <trkpt lat="43.82938" lon="3.58551">
        <ele>758.1</ele>
        <time>2019-12-15T11:01:31.000Z</time>
      </trkpt>
      <trkpt lat="43.82936" lon="3.58549">
        <ele>758.1</ele>
        <time>2019-12-15T11:01:45.000Z</time>
      </trkpt>
      <trkpt lat="43.82935" lon="3.58544">
        <ele>758.1</ele>
        <time>2019-12-15T11:02:0.000Z</time>
      </trkpt>
      <trkpt lat="43.82926" lon="3.58537">
        <ele>758.1</ele>
        <time>2019-12-15T11:02:13.000Z</time>
      </trkpt>
      <trkpt lat="43.82916" lon="3.58528">
        <ele>758.1</ele>
        <time>2019-12-15T11:02:29.000Z</time>
      </trkpt>
      <trkpt lat="43.82905" lon="3.58519">
        <ele>758.1</ele>
        <time>2019-12-15T11:02:45.000Z</time>
      </trkpt>
      <trkpt lat="43.82893" lon="3.58514">
        <ele>759.1</ele>
        <time>2019-12-15T11:03:1.000Z</time>
      </trkpt>
      <trkpt lat="43.82881" lon="3.58514">
        <ele>759.6</ele>
        <time>2019-12-15T11:03:17.000Z</time>
      </trkpt>
      <trkpt lat="43.82877" lon="3.58516">
        <ele>760.5</ele>
        <time>2019-12-15T11:03:23.000Z</time>
      </trkpt>
      <trkpt lat="43.82863" lon="3.58517">
        <ele>761</ele>
        <time>2019-12-15T11:03:39.000Z</time>
      </trkpt>
      <trkpt lat="43.82857" lon="3.58519">
        <ele>760.5</ele>
        <time>2019-12-15T11:03:46.000Z</time>
      </trkpt>
      <trkpt lat="43.82853" lon="3.58519">
        <ele>760.1</ele>
        <time>2019-12-15T11:03:50.000Z</time>
      </trkpt>
      <trkpt lat="43.8285" lon="3.5852">
        <ele>760.1</ele>
        <time>2019-12-15T11:03:53.000Z</time>
      </trkpt>
      <trkpt lat="43.82843" lon="3.58521">
        <ele>759.6</ele>
        <time>2019-12-15T11:04:0.000Z</time>
      </trkpt>
      <trkpt lat="43.8283" lon="3.58521">
        <ele>758.6</ele>
        <time>2019-12-15T11:04:16.000Z</time>
      </trkpt>
      <trkpt lat="43.82821" lon="3.58516">
        <ele>756.7</ele>
        <time>2019-12-15T11:04:31.000Z</time>
      </trkpt>
      <trkpt lat="43.82814" lon="3.58512">
        <ele>755.2</ele>
        <time>2019-12-15T11:04:41.000Z</time>
      </trkpt>
      <trkpt lat="43.82808" lon="3.58517">
        <ele>754.8</ele>
        <time>2019-12-15T11:04:48.000Z</time>
      </trkpt>
      <trkpt lat="43.82804" lon="3.5852">
        <ele>754.8</ele>
        <time>2019-12-15T11:04:53.000Z</time>
      </trkpt>
      <trkpt lat="43.82794" lon="3.58529">
        <ele>754.3</ele>
        <time>2019-12-15T11:05:6.000Z</time>
      </trkpt>
      <trkpt lat="43.82794" lon="3.58529">
        <ele>754.8</ele>
        <time>2019-12-15T11:05:7.000Z</time>
      </trkpt>
      <trkpt lat="43.82784" lon="3.58541">
        <ele>754.8</ele>
        <time>2019-12-15T11:05:22.000Z</time>
      </trkpt>
      <trkpt lat="43.82773" lon="3.58544">
        <ele>752.8</ele>
        <time>2019-12-15T11:05:35.000Z</time>
      </trkpt>
      <trkpt lat="43.82761" lon="3.5855">
        <ele>751.4</ele>
        <time>2019-12-15T11:05:49.000Z</time>
      </trkpt>
      <trkpt lat="43.8276" lon="3.58551">
        <ele>751.4</ele>
        <time>2019-12-15T11:05:51.000Z</time>
      </trkpt>
      <trkpt lat="43.82752" lon="3.58551">
        <ele>750.5</ele>
        <time>2019-12-15T11:06:1.000Z</time>
      </trkpt>
      <trkpt lat="43.82741" lon="3.58558">
        <ele>749</ele>
        <time>2019-12-15T11:06:15.000Z</time>
      </trkpt>
      <trkpt lat="43.82734" lon="3.58563">
        <ele>749</ele>
        <time>2019-12-15T11:06:28.000Z</time>
      </trkpt>
      <trkpt lat="43.82724" lon="3.58573">
        <ele>748.5</ele>
        <time>2019-12-15T11:06:42.000Z</time>
      </trkpt>
      <trkpt lat="43.82712" lon="3.58584">
        <ele>748.5</ele>
        <time>2019-12-15T11:06:57.000Z</time>
      </trkpt>
      <trkpt lat="43.82698" lon="3.58581">
        <ele>746.6</ele>
        <time>2019-12-15T11:07:13.000Z</time>
      </trkpt>
      <trkpt lat="43.82689" lon="3.58573">
        <ele>745.6</ele>
        <time>2019-12-15T11:07:26.000Z</time>
      </trkpt>
      <trkpt lat="43.82685" lon="3.58568">
        <ele>744.7</ele>
        <time>2019-12-15T11:07:32.000Z</time>
      </trkpt>
      <trkpt lat="43.82675" lon="3.58562">
        <ele>744.7</ele>
        <time>2019-12-15T11:07:45.000Z</time>
      </trkpt>
      <trkpt lat="43.82666" lon="3.58557">
        <ele>744.2</ele>
        <time>2019-12-15T11:07:56.000Z</time>
      </trkpt>
      <trkpt lat="43.82651" lon="3.58559">
        <ele>744.7</ele>
        <time>2019-12-15T11:08:11.000Z</time>
      </trkpt>
      <trkpt lat="43.82649" lon="3.58562">
        <ele>744.7</ele>
        <time>2019-12-15T11:08:14.000Z</time>
      </trkpt>
      <trkpt lat="43.82642" lon="3.58569">
        <ele>744.7</ele>
        <time>2019-12-15T11:08:23.000Z</time>
      </trkpt>
      <trkpt lat="43.82638" lon="3.58555">
        <ele>745.2</ele>
        <time>2019-12-15T11:08:37.000Z</time>
      </trkpt>
      <trkpt lat="43.82637" lon="3.58542">
        <ele>746.6</ele>
        <time>2019-12-15T11:08:50.000Z</time>
      </trkpt>
      <trkpt lat="43.82633" lon="3.58538">
        <ele>747.1</ele>
        <time>2019-12-15T11:08:57.000Z</time>
      </trkpt>
      <trkpt lat="43.82632" lon="3.58524">
        <ele>748</ele>
        <time>2019-12-15T11:09:13.000Z</time>
      </trkpt>
      <trkpt lat="43.82631" lon="3.58519">
        <ele>747.6</ele>
        <time>2019-12-15T11:09:21.000Z</time>
      </trkpt>
      <trkpt lat="43.8263" lon="3.58518">
        <ele>748.5</ele>
        <time>2019-12-15T11:09:24.000Z</time>
      </trkpt>
      <trkpt lat="43.82627" lon="3.58516">
        <ele>749</ele>
        <time>2019-12-15T11:09:27.000Z</time>
      </trkpt>
      <trkpt lat="43.82625" lon="3.58508">
        <ele>750</ele>
        <time>2019-12-15T11:09:36.000Z</time>
      </trkpt>
      <trkpt lat="43.82625" lon="3.58496">
        <ele>750.5</ele>
        <time>2019-12-15T11:09:46.000Z</time>
      </trkpt>
      <trkpt lat="43.82625" lon="3.58493">
        <ele>750.5</ele>
        <time>2019-12-15T11:09:48.000Z</time>
      </trkpt>
      <trkpt lat="43.82622" lon="3.58483">
        <ele>751.4</ele>
        <time>2019-12-15T11:10:2.000Z</time>
      </trkpt>
      <trkpt lat="43.82617" lon="3.58473">
        <ele>753.3</ele>
        <time>2019-12-15T11:10:16.000Z</time>
      </trkpt>
      <trkpt lat="43.82614" lon="3.58455">
        <ele>754.8</ele>
        <time>2019-12-15T11:10:33.000Z</time>
      </trkpt>
      <trkpt lat="43.82612" lon="3.58441">
        <ele>755.2</ele>
        <time>2019-12-15T11:10:45.000Z</time>
      </trkpt>
      <trkpt lat="43.82608" lon="3.58429">
        <ele>757.2</ele>
        <time>2019-12-15T11:10:57.000Z</time>
      </trkpt>
      <trkpt lat="43.82607" lon="3.5841">
        <ele>759.1</ele>
        <time>2019-12-15T11:11:13.000Z</time>
      </trkpt>
      <trkpt lat="43.82609" lon="3.58394">
        <ele>759.1</ele>
        <time>2019-12-15T11:11:26.000Z</time>
      </trkpt>
      <trkpt lat="43.82607" lon="3.58377">
        <ele>759.6</ele>
        <time>2019-12-15T11:11:40.000Z</time>
      </trkpt>
      <trkpt lat="43.82601" lon="3.58373">
        <ele>761</ele>
        <time>2019-12-15T11:11:52.000Z</time>
      </trkpt>
      <trkpt lat="43.82595" lon="3.58374">
        <ele>763.4</ele>
        <time>2019-12-15T11:12:2.000Z</time>
      </trkpt>
      <trkpt lat="43.82588" lon="3.58376">
        <ele>765.3</ele>
        <time>2019-12-15T11:12:15.000Z</time>
      </trkpt>
      <trkpt lat="43.82586" lon="3.58377">
        <ele>766.8</ele>
        <time>2019-12-15T11:12:20.000Z</time>
      </trkpt>
      <trkpt lat="43.8258" lon="3.58371">
        <ele>768.2</ele>
        <time>2019-12-15T11:12:32.000Z</time>
      </trkpt>
      <trkpt lat="43.82574" lon="3.58366">
        <ele>769.7</ele>
        <time>2019-12-15T11:12:44.000Z</time>
      </trkpt>
      <trkpt lat="43.82568" lon="3.58355">
        <ele>771.1</ele>
        <time>2019-12-15T11:12:56.000Z</time>
      </trkpt>
      <trkpt lat="43.8256" lon="3.58351">
        <ele>773.5</ele>
        <time>2019-12-15T11:13:9.000Z</time>
      </trkpt>
      <trkpt lat="43.82549" lon="3.58348">
        <ele>775.4</ele>
        <time>2019-12-15T11:13:25.000Z</time>
      </trkpt>
      <trkpt lat="43.82541" lon="3.58341">
        <ele>777.8</ele>
        <time>2019-12-15T11:13:40.000Z</time>
      </trkpt>
      <trkpt lat="43.82534" lon="3.58334">
        <ele>779.3</ele>
        <time>2019-12-15T11:13:53.000Z</time>
      </trkpt>
      <trkpt lat="43.82528" lon="3.58324">
        <ele>781.2</ele>
        <time>2019-12-15T11:14:5.000Z</time>
      </trkpt>
      <trkpt lat="43.82527" lon="3.58307">
        <ele>782.2</ele>
        <time>2019-12-15T11:14:19.000Z</time>
      </trkpt>
      <trkpt lat="43.82527" lon="3.58306">
        <ele>781.7</ele>
        <time>2019-12-15T11:14:29.000Z</time>
      </trkpt>
      <trkpt lat="43.82527" lon="3.5831">
        <ele>781.7</ele>
        <time>2019-12-15T11:14:32.000Z</time>
      </trkpt>
      <trkpt lat="43.82527" lon="3.58313">
        <ele>781.7</ele>
        <time>2019-12-15T11:14:34.000Z</time>
      </trkpt>
      <trkpt lat="43.8252" lon="3.58318">
        <ele>783.6</ele>
        <time>2019-12-15T11:14:49.000Z</time>
      </trkpt>
      <trkpt lat="43.82512" lon="3.58317">
        <ele>785</ele>
        <time>2019-12-15T11:15:3.000Z</time>
      </trkpt>
      <trkpt lat="43.8251" lon="3.58327">
        <ele>786</ele>
        <time>2019-12-15T11:15:17.000Z</time>
      </trkpt>
      <trkpt lat="43.82509" lon="3.58325">
        <ele>787</ele>
        <time>2019-12-15T11:15:31.000Z</time>
      </trkpt>
      <trkpt lat="43.82509" lon="3.58325">
        <ele>786.5</ele>
        <time>2019-12-15T11:15:33.000Z</time>
      </trkpt>
      <trkpt lat="43.82511" lon="3.58328">
        <ele>786</ele>
        <time>2019-12-15T11:15:44.000Z</time>
      </trkpt>
      <trkpt lat="43.8251" lon="3.5833">
        <ele>786</ele>
        <time>2019-12-15T11:15:56.000Z</time>
      </trkpt>
      <trkpt lat="43.82509" lon="3.5833">
        <ele>785.5</ele>
        <time>2019-12-15T11:16:4.000Z</time>
      </trkpt>
      <trkpt lat="43.82506" lon="3.58329">
        <ele>787</ele>
        <time>2019-12-15T12:02:18.000Z</time>
      </trkpt>
      <trkpt lat="43.82509" lon="3.58332">
        <ele>785.5</ele>
        <time>2019-12-15T12:02:40.000Z</time>
      </trkpt>
      <trkpt lat="43.82509" lon="3.58332">
        <ele>785</ele>
        <time>2019-12-15T12:02:41.000Z</time>
      </trkpt>
      <trkpt lat="43.82509" lon="3.58331">
        <ele>783.1</ele>
        <time>2019-12-15T12:03:4.000Z</time>
      </trkpt>
      <trkpt lat="43.82509" lon="3.5833">
        <ele>784.1</ele>
        <time>2019-12-15T12:03:23.000Z</time>
      </trkpt>
      <trkpt lat="43.8251" lon="3.58331">
        <ele>782.7</ele>
        <time>2019-12-15T12:03:42.000Z</time>
      </trkpt>
      <trkpt lat="43.8251" lon="3.58327">
        <ele>783.1</ele>
        <time>2019-12-15T12:04:0.000Z</time>
      </trkpt>
      <trkpt lat="43.82513" lon="3.58317">
        <ele>782.7</ele>
        <time>2019-12-15T12:04:13.000Z</time>
      </trkpt>
      <trkpt lat="43.82522" lon="3.5832">
        <ele>780.7</ele>
        <time>2019-12-15T12:04:30.000Z</time>
      </trkpt>
      <trkpt lat="43.82527" lon="3.5831">
        <ele>778.8</ele>
        <time>2019-12-15T12:04:45.000Z</time>
      </trkpt>
      <trkpt lat="43.82527" lon="3.58299">
        <ele>778.3</ele>
        <time>2019-12-15T12:04:58.000Z</time>
      </trkpt>
      <trkpt lat="43.82529" lon="3.58275">
        <ele>776.4</ele>
        <time>2019-12-15T12:05:15.000Z</time>
      </trkpt>
      <trkpt lat="43.82533" lon="3.58262">
        <ele>775.4</ele>
        <time>2019-12-15T12:05:27.000Z</time>
      </trkpt>
      <trkpt lat="43.82534" lon="3.58247">
        <ele>774</ele>
        <time>2019-12-15T12:05:42.000Z</time>
      </trkpt>
      <trkpt lat="43.82532" lon="3.5824">
        <ele>774</ele>
        <time>2019-12-15T12:05:55.000Z</time>
      </trkpt>
      <trkpt lat="43.8253" lon="3.58235">
        <ele>774</ele>
        <time>2019-12-15T12:05:58.000Z</time>
      </trkpt>
      <trkpt lat="43.8253" lon="3.58228">
        <ele>772.6</ele>
        <time>2019-12-15T12:06:4.000Z</time>
      </trkpt>
      <trkpt lat="43.82528" lon="3.5822">
        <ele>770.2</ele>
        <time>2019-12-15T12:06:15.000Z</time>
      </trkpt>
      <trkpt lat="43.82528" lon="3.58215">
        <ele>769.2</ele>
        <time>2019-12-15T12:06:20.000Z</time>
      </trkpt>
      <trkpt lat="43.82527" lon="3.58209">
        <ele>768.2</ele>
        <time>2019-12-15T12:06:25.000Z</time>
      </trkpt>
      <trkpt lat="43.82528" lon="3.58199">
        <ele>766.3</ele>
        <time>2019-12-15T12:06:36.000Z</time>
      </trkpt>
      <trkpt lat="43.82533" lon="3.58191">
        <ele>763.9</ele>
        <time>2019-12-15T12:06:49.000Z</time>
      </trkpt>
      <trkpt lat="43.82536" lon="3.58185">
        <ele>762</ele>
        <time>2019-12-15T12:07:2.000Z</time>
      </trkpt>
      <trkpt lat="43.82535" lon="3.58185">
        <ele>762</ele>
        <time>2019-12-15T12:07:3.000Z</time>
      </trkpt>
      <trkpt lat="43.82533" lon="3.58183">
        <ele>762</ele>
        <time>2019-12-15T12:07:18.000Z</time>
      </trkpt>
      <trkpt lat="43.82531" lon="3.58181">
        <ele>762</ele>
        <time>2019-12-15T12:07:30.000Z</time>
      </trkpt>
      <trkpt lat="43.82531" lon="3.58171">
        <ele>759.1</ele>
        <time>2019-12-15T12:07:43.000Z</time>
      </trkpt>
      <trkpt lat="43.82534" lon="3.58169">
        <ele>758.6</ele>
        <time>2019-12-15T12:07:57.000Z</time>
      </trkpt>
      <trkpt lat="43.82534" lon="3.58164">
        <ele>758.6</ele>
        <time>2019-12-15T12:08:3.000Z</time>
      </trkpt>
      <trkpt lat="43.8254" lon="3.58155">
        <ele>757.2</ele>
        <time>2019-12-15T12:08:13.000Z</time>
      </trkpt>
      <trkpt lat="43.82536" lon="3.58147">
        <ele>755.2</ele>
        <time>2019-12-15T12:08:25.000Z</time>
      </trkpt>
      <trkpt lat="43.82531" lon="3.58148">
        <ele>754.3</ele>
        <time>2019-12-15T12:08:34.000Z</time>
      </trkpt>
      <trkpt lat="43.82523" lon="3.58146">
        <ele>752.4</ele>
        <time>2019-12-15T12:08:44.000Z</time>
      </trkpt>
      <trkpt lat="43.82519" lon="3.58142">
        <ele>750.9</ele>
        <time>2019-12-15T12:08:51.000Z</time>
      </trkpt>
      <trkpt lat="43.82511" lon="3.58137">
        <ele>748</ele>
        <time>2019-12-15T12:09:5.000Z</time>
      </trkpt>
      <trkpt lat="43.82509" lon="3.58131">
        <ele>747.1</ele>
        <time>2019-12-15T12:09:11.000Z</time>
      </trkpt>
      <trkpt lat="43.82506" lon="3.58122">
        <ele>743.2</ele>
        <time>2019-12-15T12:09:21.000Z</time>
      </trkpt>
      <trkpt lat="43.82504" lon="3.58106">
        <ele>740.3</ele>
        <time>2019-12-15T12:09:36.000Z</time>
      </trkpt>
      <trkpt lat="43.82502" lon="3.58089">
        <ele>737</ele>
        <time>2019-12-15T12:09:50.000Z</time>
      </trkpt>
      <trkpt lat="43.82501" lon="3.58088">
        <ele>737</ele>
        <time>2019-12-15T12:09:51.000Z</time>
      </trkpt>
      <trkpt lat="43.82494" lon="3.58077">
        <ele>733.6</ele>
        <time>2019-12-15T12:10:4.000Z</time>
      </trkpt>
      <trkpt lat="43.82494" lon="3.58068">
        <ele>732.7</ele>
        <time>2019-12-15T12:10:12.000Z</time>
      </trkpt>
      <trkpt lat="43.82494" lon="3.58059">
        <ele>730.7</ele>
        <time>2019-12-15T12:10:27.000Z</time>
      </trkpt>
      <trkpt lat="43.82494" lon="3.5806">
        <ele>731.2</ele>
        <time>2019-12-15T12:10:52.000Z</time>
      </trkpt>
      <trkpt lat="43.82493" lon="3.58062">
        <ele>731.2</ele>
        <time>2019-12-15T12:11:18.000Z</time>
      </trkpt>
      <trkpt lat="43.82493" lon="3.58056">
        <ele>730.7</ele>
        <time>2019-12-15T12:11:39.000Z</time>
      </trkpt>
      <trkpt lat="43.82492" lon="3.58042">
        <ele>728.8</ele>
        <time>2019-12-15T12:11:54.000Z</time>
      </trkpt>
      <trkpt lat="43.82491" lon="3.58036">
        <ele>728.8</ele>
        <time>2019-12-15T12:11:59.000Z</time>
      </trkpt>
      <trkpt lat="43.82486" lon="3.58032">
        <ele>727.4</ele>
        <time>2019-12-15T12:12:4.000Z</time>
      </trkpt>
      <trkpt lat="43.82487" lon="3.58022">
        <ele>725.5</ele>
        <time>2019-12-15T12:12:17.000Z</time>
      </trkpt>
      <trkpt lat="43.8248" lon="3.58007">
        <ele>722.6</ele>
        <time>2019-12-15T12:12:32.000Z</time>
      </trkpt>
      <trkpt lat="43.82478" lon="3.57994">
        <ele>720.2</ele>
        <time>2019-12-15T12:12:45.000Z</time>
      </trkpt>
      <trkpt lat="43.82479" lon="3.57975">
        <ele>718.7</ele>
        <time>2019-12-15T12:13:3.000Z</time>
      </trkpt>
      <trkpt lat="43.82477" lon="3.57964">
        <ele>715.8</ele>
        <time>2019-12-15T12:13:18.000Z</time>
      </trkpt>
      <trkpt lat="43.82478" lon="3.57948">
        <ele>713.9</ele>
        <time>2019-12-15T12:13:33.000Z</time>
      </trkpt>
      <trkpt lat="43.82477" lon="3.57945">
        <ele>713.4</ele>
        <time>2019-12-15T12:13:48.000Z</time>
      </trkpt>
      <trkpt lat="43.82477" lon="3.57945">
        <ele>713</ele>
        <time>2019-12-15T12:14:11.000Z</time>
      </trkpt>
      <trkpt lat="43.82474" lon="3.5794">
        <ele>712.5</ele>
        <time>2019-12-15T12:14:37.000Z</time>
      </trkpt>
      <trkpt lat="43.82468" lon="3.57927">
        <ele>710.5</ele>
        <time>2019-12-15T12:14:51.000Z</time>
      </trkpt>
      <trkpt lat="43.82459" lon="3.5792">
        <ele>710.5</ele>
        <time>2019-12-15T12:15:4.000Z</time>
      </trkpt>
      <trkpt lat="43.82455" lon="3.57918">
        <ele>710.1</ele>
        <time>2019-12-15T12:15:9.000Z</time>
      </trkpt>
      <trkpt lat="43.82453" lon="3.57903">
        <ele>709.6</ele>
        <time>2019-12-15T12:15:24.000Z</time>
      </trkpt>
      <trkpt lat="43.82451" lon="3.5789">
        <ele>710.1</ele>
        <time>2019-12-15T12:15:37.000Z</time>
      </trkpt>
      <trkpt lat="43.82449" lon="3.57876">
        <ele>708.6</ele>
        <time>2019-12-15T12:15:50.000Z</time>
      </trkpt>
      <trkpt lat="43.82443" lon="3.57867">
        <ele>708.2</ele>
        <time>2019-12-15T12:16:1.000Z</time>
      </trkpt>
      <trkpt lat="43.8244" lon="3.57865">
        <ele>708.2</ele>
        <time>2019-12-15T12:16:6.000Z</time>
      </trkpt>
      <trkpt lat="43.8243" lon="3.57856">
        <ele>707.7</ele>
        <time>2019-12-15T12:16:20.000Z</time>
      </trkpt>
      <trkpt lat="43.82424" lon="3.57844">
        <ele>706.7</ele>
        <time>2019-12-15T12:16:33.000Z</time>
      </trkpt>
      <trkpt lat="43.82421" lon="3.57837">
        <ele>705.7</ele>
        <time>2019-12-15T12:16:42.000Z</time>
      </trkpt>
      <trkpt lat="43.82421" lon="3.57824">
        <ele>704.3</ele>
        <time>2019-12-15T12:16:56.000Z</time>
      </trkpt>
      <trkpt lat="43.82421" lon="3.57811">
        <ele>703.3</ele>
        <time>2019-12-15T12:17:8.000Z</time>
      </trkpt>
      <trkpt lat="43.8242" lon="3.5781">
        <ele>703.8</ele>
        <time>2019-12-15T12:17:10.000Z</time>
      </trkpt>
      <trkpt lat="43.82417" lon="3.57797">
        <ele>702.9</ele>
        <time>2019-12-15T12:17:24.000Z</time>
      </trkpt>
      <trkpt lat="43.82416" lon="3.57788">
        <ele>702.4</ele>
        <time>2019-12-15T12:17:36.000Z</time>
      </trkpt>
      <trkpt lat="43.82412" lon="3.57777">
        <ele>702.4</ele>
        <time>2019-12-15T12:17:48.000Z</time>
      </trkpt>
      <trkpt lat="43.8241" lon="3.57766">
        <ele>702.4</ele>
        <time>2019-12-15T12:17:59.000Z</time>
      </trkpt>
      <trkpt lat="43.82409" lon="3.57752">
        <ele>701.4</ele>
        <time>2019-12-15T12:18:14.000Z</time>
      </trkpt>
      <trkpt lat="43.82404" lon="3.57746">
        <ele>701.4</ele>
        <time>2019-12-15T12:18:27.000Z</time>
      </trkpt>
      <trkpt lat="43.82404" lon="3.57741">
        <ele>701.4</ele>
        <time>2019-12-15T12:18:43.000Z</time>
      </trkpt>
      <trkpt lat="43.82404" lon="3.57742">
        <ele>700.9</ele>
        <time>2019-12-15T12:19:10.000Z</time>
      </trkpt>
      <trkpt lat="43.82404" lon="3.57736">
        <ele>700.5</ele>
        <time>2019-12-15T12:19:28.000Z</time>
      </trkpt>
      <trkpt lat="43.82402" lon="3.57737">
        <ele>700.9</ele>
        <time>2019-12-15T12:19:50.000Z</time>
      </trkpt>
      <trkpt lat="43.82402" lon="3.5774">
        <ele>700.5</ele>
        <time>2019-12-15T12:20:12.000Z</time>
      </trkpt>
      <trkpt lat="43.82403" lon="3.57738">
        <ele>700.5</ele>
        <time>2019-12-15T12:20:28.000Z</time>
      </trkpt>
      <trkpt lat="43.82403" lon="3.57738">
        <ele>700.9</ele>
        <time>2019-12-15T12:20:51.000Z</time>
      </trkpt>
      <trkpt lat="43.82408" lon="3.57737">
        <ele>700.9</ele>
        <time>2019-12-15T12:21:15.000Z</time>
      </trkpt>
      <trkpt lat="43.82408" lon="3.57732">
        <ele>699</ele>
        <time>2019-12-15T12:21:39.000Z</time>
      </trkpt>
      <trkpt lat="43.82413" lon="3.57721">
        <ele>696.1</ele>
        <time>2019-12-15T12:21:56.000Z</time>
      </trkpt>
      <trkpt lat="43.82413" lon="3.57706">
        <ele>694.2</ele>
        <time>2019-12-15T12:22:9.000Z</time>
      </trkpt>
      <trkpt lat="43.82412" lon="3.57698">
        <ele>692.3</ele>
        <time>2019-12-15T12:22:26.000Z</time>
      </trkpt>
      <trkpt lat="43.8241" lon="3.5769">
        <ele>691.3</ele>
        <time>2019-12-15T12:22:32.000Z</time>
      </trkpt>
      <trkpt lat="43.82407" lon="3.57675">
        <ele>689.9</ele>
        <time>2019-12-15T12:22:45.000Z</time>
      </trkpt>
      <trkpt lat="43.82404" lon="3.57668">
        <ele>688.4</ele>
        <time>2019-12-15T12:22:52.000Z</time>
      </trkpt>
      <trkpt lat="43.82401" lon="3.57663">
        <ele>688</ele>
        <time>2019-12-15T12:22:57.000Z</time>
      </trkpt>
      <trkpt lat="43.82407" lon="3.5765">
        <ele>687.5</ele>
        <time>2019-12-15T12:23:12.000Z</time>
      </trkpt>
      <trkpt lat="43.82409" lon="3.57641">
        <ele>686.5</ele>
        <time>2019-12-15T12:23:24.000Z</time>
      </trkpt>
      <trkpt lat="43.82407" lon="3.57635">
        <ele>685.1</ele>
        <time>2019-12-15T12:23:35.000Z</time>
      </trkpt>
      <trkpt lat="43.82402" lon="3.5763">
        <ele>684.1</ele>
        <time>2019-12-15T12:23:46.000Z</time>
      </trkpt>
      <trkpt lat="43.82399" lon="3.57618">
        <ele>682.2</ele>
        <time>2019-12-15T12:24:0.000Z</time>
      </trkpt>
      <trkpt lat="43.82395" lon="3.57614">
        <ele>682.2</ele>
        <time>2019-12-15T12:24:5.000Z</time>
      </trkpt>
      <trkpt lat="43.82391" lon="3.57607">
        <ele>681.2</ele>
        <time>2019-12-15T12:24:13.000Z</time>
      </trkpt>
      <trkpt lat="43.82384" lon="3.57606">
        <ele>680.7</ele>
        <time>2019-12-15T12:24:20.000Z</time>
      </trkpt>
      <trkpt lat="43.82378" lon="3.57601">
        <ele>679.8</ele>
        <time>2019-12-15T12:24:27.000Z</time>
      </trkpt>
      <trkpt lat="43.82365" lon="3.57597">
        <ele>678.8</ele>
        <time>2019-12-15T12:24:41.000Z</time>
      </trkpt>
      <trkpt lat="43.82354" lon="3.57591">
        <ele>676.4</ele>
        <time>2019-12-15T12:24:54.000Z</time>
      </trkpt>
      <trkpt lat="43.82347" lon="3.57587">
        <ele>675.9</ele>
        <time>2019-12-15T12:25:2.000Z</time>
      </trkpt>
      <trkpt lat="43.8234" lon="3.57571">
        <ele>674</ele>
        <time>2019-12-15T12:25:16.000Z</time>
      </trkpt>
      <trkpt lat="43.82336" lon="3.57566">
        <ele>673.5</ele>
        <time>2019-12-15T12:25:21.000Z</time>
      </trkpt>
      <trkpt lat="43.82334" lon="3.57561">
        <ele>673.1</ele>
        <time>2019-12-15T12:25:25.000Z</time>
      </trkpt>
      <trkpt lat="43.82333" lon="3.57558">
        <ele>673.1</ele>
        <time>2019-12-15T12:25:28.000Z</time>
      </trkpt>
      <trkpt lat="43.8233" lon="3.57555">
        <ele>672.6</ele>
        <time>2019-12-15T12:25:32.000Z</time>
      </trkpt>
      <trkpt lat="43.82328" lon="3.57552">
        <ele>672.1</ele>
        <time>2019-12-15T12:25:35.000Z</time>
      </trkpt>
      <trkpt lat="43.82323" lon="3.57549">
        <ele>671.1</ele>
        <time>2019-12-15T12:25:49.000Z</time>
      </trkpt>
      <trkpt lat="43.8232" lon="3.57551">
        <ele>671.1</ele>
        <time>2019-12-15T12:26:10.000Z</time>
      </trkpt>
      <trkpt lat="43.8232" lon="3.57552">
        <ele>671.1</ele>
        <time>2019-12-15T12:26:39.000Z</time>
      </trkpt>
      <trkpt lat="43.8232" lon="3.57551">
        <ele>671.1</ele>
        <time>2019-12-15T12:27:8.000Z</time>
      </trkpt>
      <trkpt lat="43.82321" lon="3.57549">
        <ele>670.7</ele>
        <time>2019-12-15T12:27:44.000Z</time>
      </trkpt>
      <trkpt lat="43.82317" lon="3.57536">
        <ele>669.2</ele>
        <time>2019-12-15T12:28:2.000Z</time>
      </trkpt>
      <trkpt lat="43.82302" lon="3.57529">
        <ele>669.7</ele>
        <time>2019-12-15T12:28:18.000Z</time>
      </trkpt>
      <trkpt lat="43.823" lon="3.57528">
        <ele>669.7</ele>
        <time>2019-12-15T12:28:21.000Z</time>
      </trkpt>
      <trkpt lat="43.82298" lon="3.57525">
        <ele>669.7</ele>
        <time>2019-12-15T12:28:24.000Z</time>
      </trkpt>
      <trkpt lat="43.82294" lon="3.57522">
        <ele>669.7</ele>
        <time>2019-12-15T12:28:28.000Z</time>
      </trkpt>
      <trkpt lat="43.82291" lon="3.57515">
        <ele>669.2</ele>
        <time>2019-12-15T12:28:33.000Z</time>
      </trkpt>
      <trkpt lat="43.82289" lon="3.57512">
        <ele>669.2</ele>
        <time>2019-12-15T12:28:36.000Z</time>
      </trkpt>
      <trkpt lat="43.82288" lon="3.57511">
        <ele>669.2</ele>
        <time>2019-12-15T12:28:38.000Z</time>
      </trkpt>
      <trkpt lat="43.82285" lon="3.57505">
        <ele>668.7</ele>
        <time>2019-12-15T12:28:43.000Z</time>
      </trkpt>
      <trkpt lat="43.82285" lon="3.57502">
        <ele>668.7</ele>
        <time>2019-12-15T12:28:45.000Z</time>
      </trkpt>
      <trkpt lat="43.82283" lon="3.575">
        <ele>668.7</ele>
        <time>2019-12-15T12:28:47.000Z</time>
      </trkpt>
      <trkpt lat="43.82273" lon="3.57493">
        <ele>669.7</ele>
        <time>2019-12-15T12:29:0.000Z</time>
      </trkpt>
      <trkpt lat="43.82266" lon="3.57489">
        <ele>670.2</ele>
        <time>2019-12-15T12:29:8.000Z</time>
      </trkpt>
      <trkpt lat="43.82259" lon="3.57484">
        <ele>671.1</ele>
        <time>2019-12-15T12:29:23.000Z</time>
      </trkpt>
      <trkpt lat="43.82254" lon="3.57473">
        <ele>671.1</ele>
        <time>2019-12-15T12:29:37.000Z</time>
      </trkpt>
      <trkpt lat="43.82245" lon="3.57457">
        <ele>671.1</ele>
        <time>2019-12-15T12:29:51.000Z</time>
      </trkpt>
      <trkpt lat="43.82237" lon="3.57447">
        <ele>671.1</ele>
        <time>2019-12-15T12:30:4.000Z</time>
      </trkpt>
      <trkpt lat="43.82236" lon="3.57441">
        <ele>670.2</ele>
        <time>2019-12-15T12:30:13.000Z</time>
      </trkpt>
      <trkpt lat="43.82231" lon="3.57432">
        <ele>669.7</ele>
        <time>2019-12-15T12:30:22.000Z</time>
      </trkpt>
      <trkpt lat="43.82228" lon="3.57421">
        <ele>669.2</ele>
        <time>2019-12-15T12:30:34.000Z</time>
      </trkpt>
      <trkpt lat="43.82228" lon="3.5742">
        <ele>669.2</ele>
        <time>2019-12-15T12:30:35.000Z</time>
      </trkpt>
      <trkpt lat="43.82227" lon="3.5741">
        <ele>667.3</ele>
        <time>2019-12-15T12:30:44.000Z</time>
      </trkpt>
      <trkpt lat="43.8222" lon="3.57394">
        <ele>665.8</ele>
        <time>2019-12-15T12:30:57.000Z</time>
      </trkpt>
      <trkpt lat="43.8222" lon="3.57389">
        <ele>666.3</ele>
        <time>2019-12-15T12:31:8.000Z</time>
      </trkpt>
      <trkpt lat="43.82218" lon="3.57387">
        <ele>665.8</ele>
        <time>2019-12-15T12:31:34.000Z</time>
      </trkpt>
      <trkpt lat="43.82216" lon="3.57375">
        <ele>664.9</ele>
        <time>2019-12-15T12:31:45.000Z</time>
      </trkpt>
      <trkpt lat="43.82216" lon="3.57371">
        <ele>664.9</ele>
        <time>2019-12-15T12:31:56.000Z</time>
      </trkpt>
      <trkpt lat="43.82215" lon="3.57368">
        <ele>664.9</ele>
        <time>2019-12-15T12:32:8.000Z</time>
      </trkpt>
      <trkpt lat="43.82215" lon="3.57362">
        <ele>665.4</ele>
        <time>2019-12-15T12:32:22.000Z</time>
      </trkpt>
      <trkpt lat="43.82214" lon="3.5736">
        <ele>665.4</ele>
        <time>2019-12-15T12:32:29.000Z</time>
      </trkpt>
      <trkpt lat="43.82214" lon="3.57357">
        <ele>665.4</ele>
        <time>2019-12-15T12:32:34.000Z</time>
      </trkpt>
      <trkpt lat="43.82214" lon="3.57343">
        <ele>665.8</ele>
        <time>2019-12-15T12:32:45.000Z</time>
      </trkpt>
      <trkpt lat="43.82214" lon="3.57329">
        <ele>666.3</ele>
        <time>2019-12-15T12:32:55.000Z</time>
      </trkpt>
      <trkpt lat="43.82213" lon="3.57322">
        <ele>666.8</ele>
        <time>2019-12-15T12:33:0.000Z</time>
      </trkpt>
      <trkpt lat="43.82208" lon="3.57303">
        <ele>667.8</ele>
        <time>2019-12-15T12:33:12.000Z</time>
      </trkpt>
      <trkpt lat="43.82208" lon="3.57302">
        <ele>668.2</ele>
        <time>2019-12-15T12:33:13.000Z</time>
      </trkpt>
      <trkpt lat="43.82203" lon="3.57287">
        <ele>668.7</ele>
        <time>2019-12-15T12:33:24.000Z</time>
      </trkpt>
      <trkpt lat="43.82203" lon="3.57281">
        <ele>669.2</ele>
        <time>2019-12-15T12:33:29.000Z</time>
      </trkpt>
      <trkpt lat="43.82195" lon="3.57263">
        <ele>670.7</ele>
        <time>2019-12-15T12:33:43.000Z</time>
      </trkpt>
      <trkpt lat="43.82185" lon="3.5726">
        <ele>670.2</ele>
        <time>2019-12-15T12:33:54.000Z</time>
      </trkpt>
      <trkpt lat="43.82182" lon="3.57254">
        <ele>669.2</ele>
        <time>2019-12-15T12:33:58.000Z</time>
      </trkpt>
      <trkpt lat="43.82181" lon="3.57247">
        <ele>668.7</ele>
        <time>2019-12-15T12:34:3.000Z</time>
      </trkpt>
      <trkpt lat="43.82176" lon="3.57243">
        <ele>668.7</ele>
        <time>2019-12-15T12:34:9.000Z</time>
      </trkpt>
      <trkpt lat="43.82165" lon="3.57244">
        <ele>668.2</ele>
        <time>2019-12-15T12:34:22.000Z</time>
      </trkpt>
      <trkpt lat="43.82159" lon="3.57245">
        <ele>667.8</ele>
        <time>2019-12-15T12:34:28.000Z</time>
      </trkpt>
      <trkpt lat="43.82152" lon="3.57241">
        <ele>667.3</ele>
        <time>2019-12-15T12:34:35.000Z</time>
      </trkpt>
      <trkpt lat="43.82147" lon="3.57238">
        <ele>667.8</ele>
        <time>2019-12-15T12:34:41.000Z</time>
      </trkpt>
      <trkpt lat="43.82134" lon="3.57232">
        <ele>667.8</ele>
        <time>2019-12-15T12:34:55.000Z</time>
      </trkpt>
      <trkpt lat="43.82122" lon="3.57224">
        <ele>667.3</ele>
        <time>2019-12-15T12:35:7.000Z</time>
      </trkpt>
      <trkpt lat="43.82114" lon="3.57216">
        <ele>667.3</ele>
        <time>2019-12-15T12:35:18.000Z</time>
      </trkpt>
      <trkpt lat="43.82102" lon="3.57206">
        <ele>667.3</ele>
        <time>2019-12-15T12:35:30.000Z</time>
      </trkpt>
      <trkpt lat="43.82101" lon="3.57206">
        <ele>666.8</ele>
        <time>2019-12-15T12:35:32.000Z</time>
      </trkpt>
      <trkpt lat="43.8209" lon="3.572">
        <ele>668.2</ele>
        <time>2019-12-15T12:35:45.000Z</time>
      </trkpt>
      <trkpt lat="43.82079" lon="3.5719">
        <ele>669.7</ele>
        <time>2019-12-15T12:35:59.000Z</time>
      </trkpt>
      <trkpt lat="43.82069" lon="3.5718">
        <ele>670.7</ele>
        <time>2019-12-15T12:36:13.000Z</time>
      </trkpt>
      <trkpt lat="43.8206" lon="3.57167">
        <ele>672.1</ele>
        <time>2019-12-15T12:36:26.000Z</time>
      </trkpt>
      <trkpt lat="43.82059" lon="3.57161">
        <ele>672.6</ele>
        <time>2019-12-15T12:36:31.000Z</time>
      </trkpt>
      <trkpt lat="43.8205" lon="3.57149">
        <ele>674</ele>
        <time>2019-12-15T12:36:44.000Z</time>
      </trkpt>
      <trkpt lat="43.82052" lon="3.57135">
        <ele>675.5</ele>
        <time>2019-12-15T12:36:58.000Z</time>
      </trkpt>
      <trkpt lat="43.82053" lon="3.57134">
        <ele>675.9</ele>
        <time>2019-12-15T12:36:59.000Z</time>
      </trkpt>
      <trkpt lat="43.82048" lon="3.57116">
        <ele>677.4</ele>
        <time>2019-12-15T12:37:12.000Z</time>
      </trkpt>
      <trkpt lat="43.82045" lon="3.57112">
        <ele>677.9</ele>
        <time>2019-12-15T12:37:17.000Z</time>
      </trkpt>
      <trkpt lat="43.82042" lon="3.57093">
        <ele>678.8</ele>
        <time>2019-12-15T12:37:31.000Z</time>
      </trkpt>
      <trkpt lat="43.8203" lon="3.57084">
        <ele>680.3</ele>
        <time>2019-12-15T12:37:44.000Z</time>
      </trkpt>
      <trkpt lat="43.82017" lon="3.57081">
        <ele>681.2</ele>
        <time>2019-12-15T12:37:57.000Z</time>
      </trkpt>
      <trkpt lat="43.82015" lon="3.57081">
        <ele>681.2</ele>
        <time>2019-12-15T12:37:59.000Z</time>
      </trkpt>
      <trkpt lat="43.8201" lon="3.57086">
        <ele>681.2</ele>
        <time>2019-12-15T12:38:6.000Z</time>
      </trkpt>
      <trkpt lat="43.82009" lon="3.57091">
        <ele>681.7</ele>
        <time>2019-12-15T12:38:18.000Z</time>
      </trkpt>
      <trkpt lat="43.82008" lon="3.57089">
        <ele>681.7</ele>
        <time>2019-12-15T12:38:39.000Z</time>
      </trkpt>
      <trkpt lat="43.82007" lon="3.5709">
        <ele>681.7</ele>
        <time>2019-12-15T12:38:55.000Z</time>
      </trkpt>
      <trkpt lat="43.82007" lon="3.5709">
        <ele>682.2</ele>
        <time>2019-12-15T12:39:19.000Z</time>
      </trkpt>
      <trkpt lat="43.82008" lon="3.5709">
        <ele>682.2</ele>
        <time>2019-12-15T12:39:37.000Z</time>
      </trkpt>
      <trkpt lat="43.82009" lon="3.57091">
        <ele>682.2</ele>
        <time>2019-12-15T12:40:3.000Z</time>
      </trkpt>
      <trkpt lat="43.82009" lon="3.5709">
        <ele>682.2</ele>
        <time>2019-12-15T12:40:25.000Z</time>
      </trkpt>
      <trkpt lat="43.82005" lon="3.57095">
        <ele>682.2</ele>
        <time>2019-12-15T12:40:42.000Z</time>
      </trkpt>
      <trkpt lat="43.81995" lon="3.57103">
        <ele>682.7</ele>
        <time>2019-12-15T12:40:56.000Z</time>
      </trkpt>
      <trkpt lat="43.81993" lon="3.57106">
        <ele>683.6</ele>
        <time>2019-12-15T12:40:59.000Z</time>
      </trkpt>
      <trkpt lat="43.81981" lon="3.57118">
        <ele>683.6</ele>
        <time>2019-12-15T12:41:12.000Z</time>
      </trkpt>
      <trkpt lat="43.81979" lon="3.57121">
        <ele>683.6</ele>
        <time>2019-12-15T12:41:15.000Z</time>
      </trkpt>
      <trkpt lat="43.81977" lon="3.57122">
        <ele>683.6</ele>
        <time>2019-12-15T12:41:18.000Z</time>
      </trkpt>
      <trkpt lat="43.81973" lon="3.57131">
        <ele>684.6</ele>
        <time>2019-12-15T12:41:26.000Z</time>
      </trkpt>
      <trkpt lat="43.81961" lon="3.57144">
        <ele>685.1</ele>
        <time>2019-12-15T12:41:42.000Z</time>
      </trkpt>
      <trkpt lat="43.8195" lon="3.57144">
        <ele>686</ele>
        <time>2019-12-15T12:41:56.000Z</time>
      </trkpt>
      <trkpt lat="43.81941" lon="3.57149">
        <ele>686</ele>
        <time>2019-12-15T12:42:9.000Z</time>
      </trkpt>
      <trkpt lat="43.81939" lon="3.57148">
        <ele>686</ele>
        <time>2019-12-15T12:42:26.000Z</time>
      </trkpt>
      <trkpt lat="43.81931" lon="3.57147">
        <ele>686.5</ele>
        <time>2019-12-15T12:42:40.000Z</time>
      </trkpt>
      <trkpt lat="43.8193" lon="3.57146">
        <ele>686.5</ele>
        <time>2019-12-15T12:42:47.000Z</time>
      </trkpt>
      <trkpt lat="43.81927" lon="3.57147">
        <ele>685.6</ele>
        <time>2019-12-15T12:42:53.000Z</time>
      </trkpt>
      <trkpt lat="43.81922" lon="3.57148">
        <ele>685.6</ele>
        <time>2019-12-15T12:42:58.000Z</time>
      </trkpt>
      <trkpt lat="43.81912" lon="3.57146">
        <ele>685.6</ele>
        <time>2019-12-15T12:43:13.000Z</time>
      </trkpt>
      <trkpt lat="43.81909" lon="3.57136">
        <ele>686</ele>
        <time>2019-12-15T12:43:22.000Z</time>
      </trkpt>
      <trkpt lat="43.81899" lon="3.57125">
        <ele>687.5</ele>
        <time>2019-12-15T12:43:36.000Z</time>
      </trkpt>
      <trkpt lat="43.81898" lon="3.57125">
        <ele>688</ele>
        <time>2019-12-15T12:43:37.000Z</time>
      </trkpt>
      <trkpt lat="43.81893" lon="3.57128">
        <ele>687.5</ele>
        <time>2019-12-15T12:43:41.000Z</time>
      </trkpt>
      <trkpt lat="43.81885" lon="3.57134">
        <ele>688</ele>
        <time>2019-12-15T12:43:51.000Z</time>
      </trkpt>
      <trkpt lat="43.81872" lon="3.57145">
        <ele>688.4</ele>
        <time>2019-12-15T12:44:6.000Z</time>
      </trkpt>
      <trkpt lat="43.81866" lon="3.57143">
        <ele>689.4</ele>
        <time>2019-12-15T12:44:13.000Z</time>
      </trkpt>
      <trkpt lat="43.8185" lon="3.57146">
        <ele>690.4</ele>
        <time>2019-12-15T12:44:30.000Z</time>
      </trkpt>
      <trkpt lat="43.81849" lon="3.57147">
        <ele>689.9</ele>
        <time>2019-12-15T12:44:31.000Z</time>
      </trkpt>
      <trkpt lat="43.81847" lon="3.5715">
        <ele>689.9</ele>
        <time>2019-12-15T12:44:33.000Z</time>
      </trkpt>
      <trkpt lat="43.81837" lon="3.57154">
        <ele>689.9</ele>
        <time>2019-12-15T12:44:43.000Z</time>
      </trkpt>
      <trkpt lat="43.81826" lon="3.57153">
        <ele>691.3</ele>
        <time>2019-12-15T12:44:57.000Z</time>
      </trkpt>
      <trkpt lat="43.81818" lon="3.57154">
        <ele>692.8</ele>
        <time>2019-12-15T12:45:7.000Z</time>
      </trkpt>
      <trkpt lat="43.81805" lon="3.57159">
        <ele>693.2</ele>
        <time>2019-12-15T12:45:20.000Z</time>
      </trkpt>
      <trkpt lat="43.81805" lon="3.57162">
        <ele>693.7</ele>
        <time>2019-12-15T12:45:22.000Z</time>
      </trkpt>
      <trkpt lat="43.81797" lon="3.57168">
        <ele>694.2</ele>
        <time>2019-12-15T12:45:33.000Z</time>
      </trkpt>
      <trkpt lat="43.81791" lon="3.57171">
        <ele>694.7</ele>
        <time>2019-12-15T12:45:44.000Z</time>
      </trkpt>
      <trkpt lat="43.81785" lon="3.57174">
        <ele>694.2</ele>
        <time>2019-12-15T12:45:50.000Z</time>
      </trkpt>
      <trkpt lat="43.81776" lon="3.57183">
        <ele>694.7</ele>
        <time>2019-12-15T12:46:1.000Z</time>
      </trkpt>
      <trkpt lat="43.81771" lon="3.5718">
        <ele>695.2</ele>
        <time>2019-12-15T12:46:6.000Z</time>
      </trkpt>
      <trkpt lat="43.81765" lon="3.57179">
        <ele>695.2</ele>
        <time>2019-12-15T12:46:12.000Z</time>
      </trkpt>
      <trkpt lat="43.81747" lon="3.57187">
        <ele>695.7</ele>
        <time>2019-12-15T12:46:29.000Z</time>
      </trkpt>
      <trkpt lat="43.81733" lon="3.57186">
        <ele>697.1</ele>
        <time>2019-12-15T12:46:44.000Z</time>
      </trkpt>
      <trkpt lat="43.81719" lon="3.57192">
        <ele>699</ele>
        <time>2019-12-15T12:47:0.000Z</time>
      </trkpt>
      <trkpt lat="43.81713" lon="3.57197">
        <ele>699.5</ele>
        <time>2019-12-15T12:47:7.000Z</time>
      </trkpt>
      <trkpt lat="43.81699" lon="3.572">
        <ele>700.5</ele>
        <time>2019-12-15T12:47:20.000Z</time>
      </trkpt>
      <trkpt lat="43.81695" lon="3.57201">
        <ele>700</ele>
        <time>2019-12-15T12:47:24.000Z</time>
      </trkpt>
      <trkpt lat="43.81685" lon="3.57198">
        <ele>700.5</ele>
        <time>2019-12-15T12:47:35.000Z</time>
      </trkpt>
      <trkpt lat="43.81679" lon="3.572">
        <ele>700.5</ele>
        <time>2019-12-15T12:47:41.000Z</time>
      </trkpt>
      <trkpt lat="43.81664" lon="3.57197">
        <ele>701.9</ele>
        <time>2019-12-15T12:47:56.000Z</time>
      </trkpt>
      <trkpt lat="43.81655" lon="3.572">
        <ele>700.9</ele>
        <time>2019-12-15T12:48:5.000Z</time>
      </trkpt>
      <trkpt lat="43.81641" lon="3.57187">
        <ele>700.9</ele>
        <time>2019-12-15T12:48:21.000Z</time>
      </trkpt>
      <trkpt lat="43.81628" lon="3.57184">
        <ele>700.5</ele>
        <time>2019-12-15T12:48:32.000Z</time>
      </trkpt>
      <trkpt lat="43.81609" lon="3.57174">
        <ele>699.5</ele>
        <time>2019-12-15T12:48:50.000Z</time>
      </trkpt>
      <trkpt lat="43.81603" lon="3.57171">
        <ele>700</ele>
        <time>2019-12-15T12:48:56.000Z</time>
      </trkpt>
      <trkpt lat="43.81601" lon="3.57167">
        <ele>698.5</ele>
        <time>2019-12-15T12:49:14.000Z</time>
      </trkpt>
      <trkpt lat="43.816" lon="3.57169">
        <ele>698.5</ele>
        <time>2019-12-15T12:49:42.000Z</time>
      </trkpt>
      <trkpt lat="43.81601" lon="3.57168">
        <ele>698.5</ele>
        <time>2019-12-15T12:50:27.000Z</time>
      </trkpt>
      <trkpt lat="43.81599" lon="3.57169">
        <ele>700</ele>
        <time>2019-12-15T12:50:33.000Z</time>
      </trkpt>
      <trkpt lat="43.81594" lon="3.57168">
        <ele>699.5</ele>
        <time>2019-12-15T12:50:37.000Z</time>
      </trkpt>
      <trkpt lat="43.81577" lon="3.5717">
        <ele>698</ele>
        <time>2019-12-15T12:50:48.000Z</time>
      </trkpt>
      <trkpt lat="43.81576" lon="3.57174">
        <ele>697.6</ele>
        <time>2019-12-15T12:50:50.000Z</time>
      </trkpt>
      <trkpt lat="43.81561" lon="3.57185">
        <ele>694.7</ele>
        <time>2019-12-15T12:51:5.000Z</time>
      </trkpt>
      <trkpt lat="43.81553" lon="3.57179">
        <ele>694.2</ele>
        <time>2019-12-15T12:51:14.000Z</time>
      </trkpt>
      <trkpt lat="43.81544" lon="3.57179">
        <ele>693.7</ele>
        <time>2019-12-15T12:51:21.000Z</time>
      </trkpt>
      <trkpt lat="43.8153" lon="3.57191">
        <ele>692.3</ele>
        <time>2019-12-15T12:51:31.000Z</time>
      </trkpt>
      <trkpt lat="43.81508" lon="3.57187">
        <ele>692.3</ele>
        <time>2019-12-15T12:51:47.000Z</time>
      </trkpt>
      <trkpt lat="43.81493" lon="3.57188">
        <ele>692.3</ele>
        <time>2019-12-15T12:52:0.000Z</time>
      </trkpt>
      <trkpt lat="43.81481" lon="3.57185">
        <ele>693.2</ele>
        <time>2019-12-15T12:52:10.000Z</time>
      </trkpt>
      <trkpt lat="43.81475" lon="3.57185">
        <ele>693.2</ele>
        <time>2019-12-15T12:52:14.000Z</time>
      </trkpt>
      <trkpt lat="43.81465" lon="3.57187">
        <ele>692.8</ele>
        <time>2019-12-15T12:52:19.000Z</time>
      </trkpt>
      <trkpt lat="43.81448" lon="3.57187">
        <ele>692.8</ele>
        <time>2019-12-15T12:52:32.000Z</time>
      </trkpt>
      <trkpt lat="43.81436" lon="3.57176">
        <ele>693.7</ele>
        <time>2019-12-15T12:52:45.000Z</time>
      </trkpt>
      <trkpt lat="43.81431" lon="3.57166">
        <ele>693.7</ele>
        <time>2019-12-15T12:52:52.000Z</time>
      </trkpt>
      <trkpt lat="43.81424" lon="3.57155">
        <ele>693.2</ele>
        <time>2019-12-15T12:53:3.000Z</time>
      </trkpt>
      <trkpt lat="43.8142" lon="3.57152">
        <ele>692.8</ele>
        <time>2019-12-15T12:53:8.000Z</time>
      </trkpt>
      <trkpt lat="43.81406" lon="3.57135">
        <ele>691.8</ele>
        <time>2019-12-15T12:53:25.000Z</time>
      </trkpt>
      <trkpt lat="43.81395" lon="3.57122">
        <ele>690.8</ele>
        <time>2019-12-15T12:53:38.000Z</time>
      </trkpt>
      <trkpt lat="43.81392" lon="3.57115">
        <ele>689.9</ele>
        <time>2019-12-15T12:53:46.000Z</time>
      </trkpt>
      <trkpt lat="43.81392" lon="3.57112">
        <ele>690.4</ele>
        <time>2019-12-15T12:53:48.000Z</time>
      </trkpt>
      <trkpt lat="43.81385" lon="3.57098">
        <ele>688.9</ele>
        <time>2019-12-15T12:53:59.000Z</time>
      </trkpt>
      <trkpt lat="43.81374" lon="3.57085">
        <ele>687.5</ele>
        <time>2019-12-15T12:54:12.000Z</time>
      </trkpt>
      <trkpt lat="43.81372" lon="3.57082">
        <ele>688</ele>
        <time>2019-12-15T12:54:16.000Z</time>
      </trkpt>
      <trkpt lat="43.81364" lon="3.57072">
        <ele>687.5</ele>
        <time>2019-12-15T12:54:25.000Z</time>
      </trkpt>
      <trkpt lat="43.81357" lon="3.57065">
        <ele>687.5</ele>
        <time>2019-12-15T12:54:33.000Z</time>
      </trkpt>
      <trkpt lat="43.81343" lon="3.57057">
        <ele>687</ele>
        <time>2019-12-15T12:54:47.000Z</time>
      </trkpt>
      <trkpt lat="43.81332" lon="3.57046">
        <ele>687</ele>
        <time>2019-12-15T12:55:0.000Z</time>
      </trkpt>
      <trkpt lat="43.81322" lon="3.57039">
        <ele>686</ele>
        <time>2019-12-15T12:55:12.000Z</time>
      </trkpt>
      <trkpt lat="43.81318" lon="3.57033">
        <ele>686.5</ele>
        <time>2019-12-15T12:55:18.000Z</time>
      </trkpt>
      <trkpt lat="43.81311" lon="3.57024">
        <ele>686</ele>
        <time>2019-12-15T12:55:24.000Z</time>
      </trkpt>
      <trkpt lat="43.81299" lon="3.57011">
        <ele>685.6</ele>
        <time>2019-12-15T12:55:38.000Z</time>
      </trkpt>
      <trkpt lat="43.81295" lon="3.57008">
        <ele>685.1</ele>
        <time>2019-12-15T12:55:43.000Z</time>
      </trkpt>
      <trkpt lat="43.81285" lon="3.57">
        <ele>685.1</ele>
        <time>2019-12-15T12:55:57.000Z</time>
      </trkpt>
      <trkpt lat="43.81286" lon="3.56999">
        <ele>685.6</ele>
        <time>2019-12-15T12:56:20.000Z</time>
      </trkpt>
      <trkpt lat="43.81282" lon="3.56992">
        <ele>685.6</ele>
        <time>2019-12-15T12:56:38.000Z</time>
      </trkpt>
      <trkpt lat="43.81274" lon="3.5698">
        <ele>685.1</ele>
        <time>2019-12-15T12:56:51.000Z</time>
      </trkpt>
      <trkpt lat="43.81269" lon="3.56973">
        <ele>685.1</ele>
        <time>2019-12-15T12:56:58.000Z</time>
      </trkpt>
      <trkpt lat="43.81268" lon="3.56967">
        <ele>685.1</ele>
        <time>2019-12-15T12:57:3.000Z</time>
      </trkpt>
      <trkpt lat="43.81266" lon="3.56959">
        <ele>685.1</ele>
        <time>2019-12-15T12:57:9.000Z</time>
      </trkpt>
      <trkpt lat="43.81258" lon="3.5695">
        <ele>684.6</ele>
        <time>2019-12-15T12:57:18.000Z</time>
      </trkpt>
      <trkpt lat="43.81247" lon="3.56932">
        <ele>684.6</ele>
        <time>2019-12-15T12:57:32.000Z</time>
      </trkpt>
      <trkpt lat="43.81239" lon="3.5692">
        <ele>684.1</ele>
        <time>2019-12-15T12:57:43.000Z</time>
      </trkpt>
      <trkpt lat="43.81227" lon="3.569">
        <ele>684.1</ele>
        <time>2019-12-15T12:57:59.000Z</time>
      </trkpt>
      <trkpt lat="43.81226" lon="3.56895">
        <ele>683.6</ele>
        <time>2019-12-15T12:58:3.000Z</time>
      </trkpt>
      <trkpt lat="43.81222" lon="3.56893">
        <ele>683.2</ele>
        <time>2019-12-15T12:58:8.000Z</time>
      </trkpt>
      <trkpt lat="43.81212" lon="3.56892">
        <ele>681.2</ele>
        <time>2019-12-15T12:58:19.000Z</time>
      </trkpt>
      <trkpt lat="43.81201" lon="3.56884">
        <ele>679.8</ele>
        <time>2019-12-15T12:58:31.000Z</time>
      </trkpt>
      <trkpt lat="43.81194" lon="3.56874">
        <ele>679.8</ele>
        <time>2019-12-15T12:58:46.000Z</time>
      </trkpt>
      <trkpt lat="43.81188" lon="3.56868">
        <ele>680.3</ele>
        <time>2019-12-15T12:58:56.000Z</time>
      </trkpt>
      <trkpt lat="43.81176" lon="3.56859">
        <ele>679.8</ele>
        <time>2019-12-15T12:59:11.000Z</time>
      </trkpt>
      <trkpt lat="43.81161" lon="3.56846">
        <ele>680.3</ele>
        <time>2019-12-15T12:59:27.000Z</time>
      </trkpt>
      <trkpt lat="43.81147" lon="3.56837">
        <ele>680.7</ele>
        <time>2019-12-15T12:59:42.000Z</time>
      </trkpt>
      <trkpt lat="43.81131" lon="3.56825">
        <ele>680.3</ele>
        <time>2019-12-15T12:59:59.000Z</time>
      </trkpt>
      <trkpt lat="43.81114" lon="3.56806">
        <ele>678.8</ele>
        <time>2019-12-15T13:00:18.000Z</time>
      </trkpt>
      <trkpt lat="43.81102" lon="3.56789">
        <ele>678.3</ele>
        <time>2019-12-15T13:00:35.000Z</time>
      </trkpt>
      <trkpt lat="43.81096" lon="3.56791">
        <ele>676.4</ele>
        <time>2019-12-15T13:00:47.000Z</time>
      </trkpt>
      <trkpt lat="43.81084" lon="3.56788">
        <ele>673.5</ele>
        <time>2019-12-15T13:01:1.000Z</time>
      </trkpt>
      <trkpt lat="43.81071" lon="3.56776">
        <ele>672.1</ele>
        <time>2019-12-15T13:01:16.000Z</time>
      </trkpt>
      <trkpt lat="43.81068" lon="3.56774">
        <ele>671.6</ele>
        <time>2019-12-15T13:01:22.000Z</time>
      </trkpt>
      <trkpt lat="43.81063" lon="3.56779">
        <ele>669.7</ele>
        <time>2019-12-15T13:01:28.000Z</time>
      </trkpt>
      <trkpt lat="43.81053" lon="3.56775">
        <ele>666.8</ele>
        <time>2019-12-15T13:01:42.000Z</time>
      </trkpt>
      <trkpt lat="43.81049" lon="3.56777">
        <ele>665.4</ele>
        <time>2019-12-15T13:01:46.000Z</time>
      </trkpt>
      <trkpt lat="43.81044" lon="3.56775">
        <ele>663</ele>
        <time>2019-12-15T13:01:56.000Z</time>
      </trkpt>
      <trkpt lat="43.81037" lon="3.56767">
        <ele>661</ele>
        <time>2019-12-15T13:02:6.000Z</time>
      </trkpt>
      <trkpt lat="43.81026" lon="3.56755">
        <ele>660.6</ele>
        <time>2019-12-15T13:02:18.000Z</time>
      </trkpt>
      <trkpt lat="43.81017" lon="3.56742">
        <ele>659.6</ele>
        <time>2019-12-15T13:02:30.000Z</time>
      </trkpt>
      <trkpt lat="43.81007" lon="3.56729">
        <ele>658.2</ele>
        <time>2019-12-15T13:02:43.000Z</time>
      </trkpt>
      <trkpt lat="43.81006" lon="3.5672">
        <ele>658.2</ele>
        <time>2019-12-15T13:02:50.000Z</time>
      </trkpt>
      <trkpt lat="43.81001" lon="3.56706">
        <ele>658.2</ele>
        <time>2019-12-15T13:03:2.000Z</time>
      </trkpt>
      <trkpt lat="43.80996" lon="3.56703">
        <ele>657.2</ele>
        <time>2019-12-15T13:03:6.000Z</time>
      </trkpt>
      <trkpt lat="43.80982" lon="3.56691">
        <ele>654.3</ele>
        <time>2019-12-15T13:03:20.000Z</time>
      </trkpt>
      <trkpt lat="43.80972" lon="3.56684">
        <ele>651.9</ele>
        <time>2019-12-15T13:03:32.000Z</time>
      </trkpt>
      <trkpt lat="43.80972" lon="3.56684">
        <ele>652.4</ele>
        <time>2019-12-15T13:03:35.000Z</time>
      </trkpt>
      <trkpt lat="43.80967" lon="3.5668">
        <ele>651.9</ele>
        <time>2019-12-15T13:03:43.000Z</time>
      </trkpt>
      <trkpt lat="43.80957" lon="3.56673">
        <ele>651</ele>
        <time>2019-12-15T13:03:55.000Z</time>
      </trkpt>
      <trkpt lat="43.80951" lon="3.56668">
        <ele>650.5</ele>
        <time>2019-12-15T13:04:2.000Z</time>
      </trkpt>
      <trkpt lat="43.80941" lon="3.56656">
        <ele>650.5</ele>
        <time>2019-12-15T13:04:14.000Z</time>
      </trkpt>
      <trkpt lat="43.80939" lon="3.56654">
        <ele>650</ele>
        <time>2019-12-15T13:04:16.000Z</time>
      </trkpt>
      <trkpt lat="43.80933" lon="3.5665">
        <ele>650</ele>
        <time>2019-12-15T13:04:23.000Z</time>
      </trkpt>
      <trkpt lat="43.80926" lon="3.56649">
        <ele>649.5</ele>
        <time>2019-12-15T13:04:31.000Z</time>
      </trkpt>
      <trkpt lat="43.80912" lon="3.56659">
        <ele>649.5</ele>
        <time>2019-12-15T13:04:48.000Z</time>
      </trkpt>
      <trkpt lat="43.80901" lon="3.56667">
        <ele>649</ele>
        <time>2019-12-15T13:05:5.000Z</time>
      </trkpt>
      <trkpt lat="43.80897" lon="3.56677">
        <ele>648.5</ele>
        <time>2019-12-15T13:05:20.000Z</time>
      </trkpt>
      <trkpt lat="43.80898" lon="3.5668">
        <ele>648.5</ele>
        <time>2019-12-15T13:05:35.000Z</time>
      </trkpt>
      <trkpt lat="43.80906" lon="3.5668">
        <ele>649</ele>
        <time>2019-12-15T13:05:48.000Z</time>
      </trkpt>
      <trkpt lat="43.80913" lon="3.56675">
        <ele>649</ele>
        <time>2019-12-15T13:06:1.000Z</time>
      </trkpt>
      <trkpt lat="43.80916" lon="3.56671">
        <ele>649</ele>
        <time>2019-12-15T13:06:11.000Z</time>
      </trkpt>
      <trkpt lat="43.80916" lon="3.56674">
        <ele>649</ele>
        <time>2019-12-15T13:06:27.000Z</time>
      </trkpt>
      <trkpt lat="43.80919" lon="3.56675">
        <ele>648.5</ele>
        <time>2019-12-15T13:06:48.000Z</time>
      </trkpt>
      <trkpt lat="43.80922" lon="3.56677">
        <ele>648.5</ele>
        <time>2019-12-15T13:06:56.000Z</time>
      </trkpt>
      <trkpt lat="43.80924" lon="3.5668">
        <ele>648.5</ele>
        <time>2019-12-15T13:06:59.000Z</time>
      </trkpt>
      <trkpt lat="43.80937" lon="3.56689">
        <ele>648.5</ele>
        <time>2019-12-15T13:07:13.000Z</time>
      </trkpt>
      <trkpt lat="43.80944" lon="3.56695">
        <ele>648.5</ele>
        <time>2019-12-15T13:07:22.000Z</time>
      </trkpt>
      <trkpt lat="43.80949" lon="3.56703">
        <ele>648.5</ele>
        <time>2019-12-15T13:07:33.000Z</time>
      </trkpt>
      <trkpt lat="43.80948" lon="3.56702">
        <ele>649</ele>
        <time>2019-12-15T13:07:35.000Z</time>
      </trkpt>
      <trkpt lat="43.80943" lon="3.56694">
        <ele>648.5</ele>
        <time>2019-12-15T13:07:44.000Z</time>
      </trkpt>
      <trkpt lat="43.80941" lon="3.56684">
        <ele>649</ele>
        <time>2019-12-15T13:07:52.000Z</time>
      </trkpt>
      <trkpt lat="43.80944" lon="3.56677">
        <ele>649.5</ele>
        <time>2019-12-15T13:08:2.000Z</time>
      </trkpt>
      <trkpt lat="43.80953" lon="3.56681">
        <ele>650</ele>
        <time>2019-12-15T13:08:12.000Z</time>
      </trkpt>
      <trkpt lat="43.80959" lon="3.56678">
        <ele>651.4</ele>
        <time>2019-12-15T13:08:21.000Z</time>
      </trkpt>
      <trkpt lat="43.80969" lon="3.56687">
        <ele>651.9</ele>
        <time>2019-12-15T13:08:35.000Z</time>
      </trkpt>
      <trkpt lat="43.80971" lon="3.56699">
        <ele>652.9</ele>
        <time>2019-12-15T13:08:47.000Z</time>
      </trkpt>
      <trkpt lat="43.80971" lon="3.56703">
        <ele>652.4</ele>
        <time>2019-12-15T13:08:50.000Z</time>
      </trkpt>
      <trkpt lat="43.80971" lon="3.56715">
        <ele>651.4</ele>
        <time>2019-12-15T13:09:1.000Z</time>
      </trkpt>
      <trkpt lat="43.80967" lon="3.56729">
        <ele>649.5</ele>
        <time>2019-12-15T13:09:14.000Z</time>
      </trkpt>
      <trkpt lat="43.80967" lon="3.56732">
        <ele>649.5</ele>
        <time>2019-12-15T13:09:17.000Z</time>
      </trkpt>
      <trkpt lat="43.80968" lon="3.56749">
        <ele>648.5</ele>
        <time>2019-12-15T13:09:30.000Z</time>
      </trkpt>
      <trkpt lat="43.80959" lon="3.56763">
        <ele>646.1</ele>
        <time>2019-12-15T13:09:45.000Z</time>
      </trkpt>
      <trkpt lat="43.80957" lon="3.56764">
        <ele>646.1</ele>
        <time>2019-12-15T13:09:47.000Z</time>
      </trkpt>
      <trkpt lat="43.80949" lon="3.56773">
        <ele>643.7</ele>
        <time>2019-12-15T13:10:1.000Z</time>
      </trkpt>
      <trkpt lat="43.8095" lon="3.56779">
        <ele>643.7</ele>
        <time>2019-12-15T13:10:6.000Z</time>
      </trkpt>
      <trkpt lat="43.8096" lon="3.56792">
        <ele>643.3</ele>
        <time>2019-12-15T13:10:19.000Z</time>
      </trkpt>
      <trkpt lat="43.80962" lon="3.56804">
        <ele>642.3</ele>
        <time>2019-12-15T13:10:32.000Z</time>
      </trkpt>
      <trkpt lat="43.80956" lon="3.56817">
        <ele>640.9</ele>
        <time>2019-12-15T13:10:48.000Z</time>
      </trkpt>
      <trkpt lat="43.80954" lon="3.56834">
        <ele>639.4</ele>
        <time>2019-12-15T13:11:3.000Z</time>
      </trkpt>
      <trkpt lat="43.80957" lon="3.5685">
        <ele>638.5</ele>
        <time>2019-12-15T13:11:18.000Z</time>
      </trkpt>
      <trkpt lat="43.80958" lon="3.56861">
        <ele>637</ele>
        <time>2019-12-15T13:11:29.000Z</time>
      </trkpt>
      <trkpt lat="43.80962" lon="3.5687">
        <ele>636</ele>
        <time>2019-12-15T13:11:39.000Z</time>
      </trkpt>
      <trkpt lat="43.80962" lon="3.56879">
        <ele>634.6</ele>
        <time>2019-12-15T13:11:54.000Z</time>
      </trkpt>
      <trkpt lat="43.80964" lon="3.5689">
        <ele>633.2</ele>
        <time>2019-12-15T13:12:8.000Z</time>
      </trkpt>
      <trkpt lat="43.80965" lon="3.56893">
        <ele>632.7</ele>
        <time>2019-12-15T13:12:11.000Z</time>
      </trkpt>
      <trkpt lat="43.80956" lon="3.56904">
        <ele>631.7</ele>
        <time>2019-12-15T13:12:26.000Z</time>
      </trkpt>
      <trkpt lat="43.8096" lon="3.56918">
        <ele>630.3</ele>
        <time>2019-12-15T13:12:38.000Z</time>
      </trkpt>
      <trkpt lat="43.80962" lon="3.56929">
        <ele>628.8</ele>
        <time>2019-12-15T13:12:50.000Z</time>
      </trkpt>
      <trkpt lat="43.80964" lon="3.56939">
        <ele>627.4</ele>
        <time>2019-12-15T13:13:1.000Z</time>
      </trkpt>
      <trkpt lat="43.80965" lon="3.56946">
        <ele>626</ele>
        <time>2019-12-15T13:13:10.000Z</time>
      </trkpt>
      <trkpt lat="43.80967" lon="3.56956">
        <ele>625</ele>
        <time>2019-12-15T13:13:19.000Z</time>
      </trkpt>
      <trkpt lat="43.80973" lon="3.56972">
        <ele>623.1</ele>
        <time>2019-12-15T13:13:34.000Z</time>
      </trkpt>
      <trkpt lat="43.80976" lon="3.56982">
        <ele>622.6</ele>
        <time>2019-12-15T13:13:46.000Z</time>
      </trkpt>
      <trkpt lat="43.8098" lon="3.56993">
        <ele>621.2</ele>
        <time>2019-12-15T13:13:59.000Z</time>
      </trkpt>
      <trkpt lat="43.80984" lon="3.57007">
        <ele>619.2</ele>
        <time>2019-12-15T13:14:12.000Z</time>
      </trkpt>
      <trkpt lat="43.80989" lon="3.57018">
        <ele>617.8</ele>
        <time>2019-12-15T13:14:24.000Z</time>
      </trkpt>
      <trkpt lat="43.80991" lon="3.57028">
        <ele>616.8</ele>
        <time>2019-12-15T13:14:34.000Z</time>
      </trkpt>
      <trkpt lat="43.80991" lon="3.57042">
        <ele>615.4</ele>
        <time>2019-12-15T13:14:48.000Z</time>
      </trkpt>
      <trkpt lat="43.80993" lon="3.57055">
        <ele>613.9</ele>
        <time>2019-12-15T13:15:1.000Z</time>
      </trkpt>
      <trkpt lat="43.80998" lon="3.57069">
        <ele>613</ele>
        <time>2019-12-15T13:15:15.000Z</time>
      </trkpt>
      <trkpt lat="43.81" lon="3.57075">
        <ele>612</ele>
        <time>2019-12-15T13:15:21.000Z</time>
      </trkpt>
      <trkpt lat="43.81005" lon="3.5709">
        <ele>610.6</ele>
        <time>2019-12-15T13:15:35.000Z</time>
      </trkpt>
      <trkpt lat="43.81003" lon="3.57104">
        <ele>609.1</ele>
        <time>2019-12-15T13:15:49.000Z</time>
      </trkpt>
      <trkpt lat="43.81001" lon="3.57114">
        <ele>607.2</ele>
        <time>2019-12-15T13:16:2.000Z</time>
      </trkpt>
      <trkpt lat="43.81002" lon="3.57127">
        <ele>604.8</ele>
        <time>2019-12-15T13:16:15.000Z</time>
      </trkpt>
      <trkpt lat="43.81002" lon="3.57138">
        <ele>603.4</ele>
        <time>2019-12-15T13:16:28.000Z</time>
      </trkpt>
      <trkpt lat="43.81002" lon="3.57139">
        <ele>603.4</ele>
        <time>2019-12-15T13:16:29.000Z</time>
      </trkpt>
      <trkpt lat="43.80998" lon="3.57152">
        <ele>601</ele>
        <time>2019-12-15T13:16:44.000Z</time>
      </trkpt>
      <trkpt lat="43.80997" lon="3.5716">
        <ele>598.6</ele>
        <time>2019-12-15T13:16:55.000Z</time>
      </trkpt>
      <trkpt lat="43.81002" lon="3.57174">
        <ele>597.6</ele>
        <time>2019-12-15T13:17:8.000Z</time>
      </trkpt>
      <trkpt lat="43.81004" lon="3.57187">
        <ele>595.2</ele>
        <time>2019-12-15T13:17:21.000Z</time>
      </trkpt>
      <trkpt lat="43.8101" lon="3.57197">
        <ele>593.7</ele>
        <time>2019-12-15T13:17:32.000Z</time>
      </trkpt>
      <trkpt lat="43.8101" lon="3.57198">
        <ele>593.7</ele>
        <time>2019-12-15T13:17:33.000Z</time>
      </trkpt>
      <trkpt lat="43.81" lon="3.57203">
        <ele>591.8</ele>
        <time>2019-12-15T13:17:46.000Z</time>
      </trkpt>
      <trkpt lat="43.80999" lon="3.57204">
        <ele>591.3</ele>
        <time>2019-12-15T13:17:49.000Z</time>
      </trkpt>
      <trkpt lat="43.80996" lon="3.57205">
        <ele>591.3</ele>
        <time>2019-12-15T13:17:52.000Z</time>
      </trkpt>
      <trkpt lat="43.80993" lon="3.57203">
        <ele>590.9</ele>
        <time>2019-12-15T13:17:55.000Z</time>
      </trkpt>
      <trkpt lat="43.8099" lon="3.57199">
        <ele>590.4</ele>
        <time>2019-12-15T13:17:59.000Z</time>
      </trkpt>
      <trkpt lat="43.80987" lon="3.572">
        <ele>589.4</ele>
        <time>2019-12-15T13:18:4.000Z</time>
      </trkpt>
      <trkpt lat="43.80977" lon="3.57198">
        <ele>586.5</ele>
        <time>2019-12-15T13:18:18.000Z</time>
      </trkpt>
      <trkpt lat="43.80969" lon="3.572">
        <ele>584.6</ele>
        <time>2019-12-15T13:18:31.000Z</time>
      </trkpt>
      <trkpt lat="43.80965" lon="3.57207">
        <ele>582.7</ele>
        <time>2019-12-15T13:18:40.000Z</time>
      </trkpt>
      <trkpt lat="43.80956" lon="3.57216">
        <ele>581.7</ele>
        <time>2019-12-15T13:18:53.000Z</time>
      </trkpt>
      <trkpt lat="43.80948" lon="3.57222">
        <ele>579.8</ele>
        <time>2019-12-15T13:19:6.000Z</time>
      </trkpt>
      <trkpt lat="43.80939" lon="3.5723">
        <ele>578.8</ele>
        <time>2019-12-15T13:19:16.000Z</time>
      </trkpt>
      <trkpt lat="43.8093" lon="3.57246">
        <ele>577.9</ele>
        <time>2019-12-15T13:19:32.000Z</time>
      </trkpt>
      <trkpt lat="43.80929" lon="3.57262">
        <ele>576.9</ele>
        <time>2019-12-15T13:19:46.000Z</time>
      </trkpt>
      <trkpt lat="43.80923" lon="3.57272">
        <ele>576.5</ele>
        <time>2019-12-15T13:19:58.000Z</time>
      </trkpt>
      <trkpt lat="43.80916" lon="3.57284">
        <ele>574.5</ele>
        <time>2019-12-15T13:20:12.000Z</time>
      </trkpt>
      <trkpt lat="43.80906" lon="3.57297">
        <ele>573.6</ele>
        <time>2019-12-15T13:20:26.000Z</time>
      </trkpt>
      <trkpt lat="43.80904" lon="3.57299">
        <ele>573.1</ele>
        <time>2019-12-15T13:20:29.000Z</time>
      </trkpt>
      <trkpt lat="43.809" lon="3.57302">
        <ele>572.6</ele>
        <time>2019-12-15T13:20:35.000Z</time>
      </trkpt>
      <trkpt lat="43.80892" lon="3.57311">
        <ele>571.6</ele>
        <time>2019-12-15T13:20:45.000Z</time>
      </trkpt>
      <trkpt lat="43.80884" lon="3.57319">
        <ele>571.2</ele>
        <time>2019-12-15T13:20:56.000Z</time>
      </trkpt>
      <trkpt lat="43.80877" lon="3.57333">
        <ele>568.8</ele>
        <time>2019-12-15T13:21:10.000Z</time>
      </trkpt>
      <trkpt lat="43.8087" lon="3.57339">
        <ele>566.8</ele>
        <time>2019-12-15T13:21:20.000Z</time>
      </trkpt>
      <trkpt lat="43.80863" lon="3.5735">
        <ele>564.9</ele>
        <time>2019-12-15T13:21:32.000Z</time>
      </trkpt>
      <trkpt lat="43.80852" lon="3.57362">
        <ele>562</ele>
        <time>2019-12-15T13:21:47.000Z</time>
      </trkpt>
      <trkpt lat="43.80852" lon="3.57366">
        <ele>561.5</ele>
        <time>2019-12-15T13:21:51.000Z</time>
      </trkpt>
      <trkpt lat="43.80836" lon="3.57378">
        <ele>559.1</ele>
        <time>2019-12-15T13:22:8.000Z</time>
      </trkpt>
      <trkpt lat="43.80825" lon="3.57385">
        <ele>558.2</ele>
        <time>2019-12-15T13:22:25.000Z</time>
      </trkpt>
      <trkpt lat="43.80812" lon="3.57394">
        <ele>557.2</ele>
        <time>2019-12-15T13:22:39.000Z</time>
      </trkpt>
      <trkpt lat="43.80796" lon="3.57399">
        <ele>554.3</ele>
        <time>2019-12-15T13:22:56.000Z</time>
      </trkpt>
      <trkpt lat="43.80785" lon="3.57403">
        <ele>553.9</ele>
        <time>2019-12-15T13:23:8.000Z</time>
      </trkpt>
      <trkpt lat="43.8077" lon="3.5741">
        <ele>551.9</ele>
        <time>2019-12-15T13:23:25.000Z</time>
      </trkpt>
      <trkpt lat="43.80768" lon="3.57412">
        <ele>551.5</ele>
        <time>2019-12-15T13:23:27.000Z</time>
      </trkpt>
      <trkpt lat="43.80762" lon="3.57411">
        <ele>551.5</ele>
        <time>2019-12-15T13:23:33.000Z</time>
      </trkpt>
      <trkpt lat="43.80755" lon="3.57412">
        <ele>550.5</ele>
        <time>2019-12-15T13:23:41.000Z</time>
      </trkpt>
      <trkpt lat="43.80749" lon="3.57414">
        <ele>549</ele>
        <time>2019-12-15T13:23:47.000Z</time>
      </trkpt>
      <trkpt lat="43.80743" lon="3.57417">
        <ele>547.6</ele>
        <time>2019-12-15T13:24:1.000Z</time>
      </trkpt>
      <trkpt lat="43.80744" lon="3.57417">
        <ele>548.1</ele>
        <time>2019-12-15T13:24:22.000Z</time>
      </trkpt>
      <trkpt lat="43.80744" lon="3.57414">
        <ele>548.1</ele>
        <time>2019-12-15T13:24:46.000Z</time>
      </trkpt>
      <trkpt lat="43.80748" lon="3.57414">
        <ele>548.6</ele>
        <time>2019-12-15T13:25:4.000Z</time>
      </trkpt>
      <trkpt lat="43.80746" lon="3.57413">
        <ele>549</ele>
        <time>2019-12-15T13:25:27.000Z</time>
      </trkpt>
      <trkpt lat="43.80747" lon="3.57413">
        <ele>549</ele>
        <time>2019-12-15T13:25:39.000Z</time>
      </trkpt>
      <trkpt lat="43.80748" lon="3.57412">
        <ele>549</ele>
        <time>2019-12-15T13:26:2.000Z</time>
      </trkpt>
      <trkpt lat="43.80745" lon="3.57412">
        <ele>549</ele>
        <time>2019-12-15T13:26:19.000Z</time>
      </trkpt>
      <trkpt lat="43.80746" lon="3.57416">
        <ele>549</ele>
        <time>2019-12-15T13:26:47.000Z</time>
      </trkpt>
      <trkpt lat="43.80745" lon="3.57415">
        <ele>548.6</ele>
        <time>2019-12-15T13:27:6.000Z</time>
      </trkpt>
      <trkpt lat="43.80745" lon="3.57415">
        <ele>548.1</ele>
        <time>2019-12-15T13:27:21.000Z</time>
      </trkpt>
      <trkpt lat="43.80745" lon="3.57414">
        <ele>548.6</ele>
        <time>2019-12-15T13:27:38.000Z</time>
      </trkpt>
      <trkpt lat="43.80746" lon="3.57414">
        <ele>548.6</ele>
        <time>2019-12-15T13:28:5.000Z</time>
      </trkpt>
      <trkpt lat="43.80743" lon="3.57414">
        <ele>548.1</ele>
        <time>2019-12-15T13:28:22.000Z</time>
      </trkpt>
      <trkpt lat="43.80742" lon="3.57414">
        <ele>548.1</ele>
        <time>2019-12-15T13:28:31.000Z</time>
      </trkpt>
      <trkpt lat="43.80737" lon="3.57417">
        <ele>547.1</ele>
        <time>2019-12-15T13:28:41.000Z</time>
      </trkpt>
      <trkpt lat="43.80731" lon="3.57417">
        <ele>546.2</ele>
        <time>2019-12-15T13:28:52.000Z</time>
      </trkpt>
      <trkpt lat="43.80725" lon="3.57418">
        <ele>545.7</ele>
        <time>2019-12-15T13:28:57.000Z</time>
      </trkpt>
      <trkpt lat="43.80716" lon="3.57417">
        <ele>544.7</ele>
        <time>2019-12-15T13:29:6.000Z</time>
      </trkpt>
      <trkpt lat="43.80707" lon="3.57418">
        <ele>543.3</ele>
        <time>2019-12-15T13:29:15.000Z</time>
      </trkpt>
      <trkpt lat="43.80707" lon="3.57418">
        <ele>542.8</ele>
        <time>2019-12-15T13:29:17.000Z</time>
      </trkpt>
      <trkpt lat="43.80702" lon="3.57419">
        <ele>541.8</ele>
        <time>2019-12-15T13:29:21.000Z</time>
      </trkpt>
      <trkpt lat="43.80699" lon="3.5742">
        <ele>541.4</ele>
        <time>2019-12-15T13:29:26.000Z</time>
      </trkpt>
      <trkpt lat="43.80693" lon="3.5742">
        <ele>539.9</ele>
        <time>2019-12-15T13:29:34.000Z</time>
      </trkpt>
      <trkpt lat="43.80682" lon="3.57423">
        <ele>537.5</ele>
        <time>2019-12-15T13:29:44.000Z</time>
      </trkpt>
      <trkpt lat="43.80681" lon="3.57423">
        <ele>537.5</ele>
        <time>2019-12-15T13:29:45.000Z</time>
      </trkpt>
      <trkpt lat="43.80669" lon="3.57427">
        <ele>535.6</ele>
        <time>2019-12-15T13:29:55.000Z</time>
      </trkpt>
      <trkpt lat="43.80661" lon="3.57429">
        <ele>533.7</ele>
        <time>2019-12-15T13:30:4.000Z</time>
      </trkpt>
      <trkpt lat="43.80656" lon="3.57431">
        <ele>531.7</ele>
        <time>2019-12-15T13:30:12.000Z</time>
      </trkpt>
      <trkpt lat="43.80648" lon="3.57433">
        <ele>530.3</ele>
        <time>2019-12-15T13:30:22.000Z</time>
      </trkpt>
      <trkpt lat="43.8064" lon="3.57436">
        <ele>528.4</ele>
        <time>2019-12-15T13:30:31.000Z</time>
      </trkpt>
      <trkpt lat="43.80638" lon="3.57435">
        <ele>527.4</ele>
        <time>2019-12-15T13:30:34.000Z</time>
      </trkpt>
      <trkpt lat="43.80631" lon="3.57434">
        <ele>527.9</ele>
        <time>2019-12-15T13:30:38.000Z</time>
      </trkpt>
      <trkpt lat="43.80615" lon="3.5743">
        <ele>525</ele>
        <time>2019-12-15T13:30:54.000Z</time>
      </trkpt>
      <trkpt lat="43.8061" lon="3.57428">
        <ele>524.5</ele>
        <time>2019-12-15T13:30:58.000Z</time>
      </trkpt>
      <trkpt lat="43.80602" lon="3.57427">
        <ele>523.1</ele>
        <time>2019-12-15T13:31:8.000Z</time>
      </trkpt>
      <trkpt lat="43.80596" lon="3.57426">
        <ele>521.7</ele>
        <time>2019-12-15T13:31:15.000Z</time>
      </trkpt>
      <trkpt lat="43.80584" lon="3.57422">
        <ele>520.2</ele>
        <time>2019-12-15T13:31:25.000Z</time>
      </trkpt>
      <trkpt lat="43.80574" lon="3.57415">
        <ele>519.2</ele>
        <time>2019-12-15T13:31:34.000Z</time>
      </trkpt>
      <trkpt lat="43.8057" lon="3.57411">
        <ele>518.8</ele>
        <time>2019-12-15T13:31:37.000Z</time>
      </trkpt>
      <trkpt lat="43.80567" lon="3.5741">
        <ele>518.8</ele>
        <time>2019-12-15T13:31:42.000Z</time>
      </trkpt>
      <trkpt lat="43.80555" lon="3.57402">
        <ele>518.3</ele>
        <time>2019-12-15T13:31:52.000Z</time>
      </trkpt>
      <trkpt lat="43.80545" lon="3.57396">
        <ele>518.3</ele>
        <time>2019-12-15T13:32:1.000Z</time>
      </trkpt>
      <trkpt lat="43.80536" lon="3.57392">
        <ele>517.3</ele>
        <time>2019-12-15T13:32:12.000Z</time>
      </trkpt>
      <trkpt lat="43.80534" lon="3.57391">
        <ele>517.3</ele>
        <time>2019-12-15T13:32:13.000Z</time>
      </trkpt>
      <trkpt lat="43.80523" lon="3.57388">
        <ele>515.4</ele>
        <time>2019-12-15T13:32:24.000Z</time>
      </trkpt>
      <trkpt lat="43.80523" lon="3.57387">
        <ele>515.4</ele>
        <time>2019-12-15T13:32:27.000Z</time>
      </trkpt>
      <trkpt lat="43.80516" lon="3.57391">
        <ele>514</ele>
        <time>2019-12-15T13:32:32.000Z</time>
      </trkpt>
      <trkpt lat="43.80508" lon="3.57391">
        <ele>512.5</ele>
        <time>2019-12-15T13:32:41.000Z</time>
      </trkpt>
      <trkpt lat="43.80509" lon="3.57391">
        <ele>512.5</ele>
        <time>2019-12-15T13:32:43.000Z</time>
      </trkpt>
      <trkpt lat="43.805" lon="3.57394">
        <ele>511.6</ele>
        <time>2019-12-15T13:32:51.000Z</time>
      </trkpt>
      <trkpt lat="43.80489" lon="3.57392">
        <ele>511.1</ele>
        <time>2019-12-15T13:33:0.000Z</time>
      </trkpt>
      <trkpt lat="43.80484" lon="3.57392">
        <ele>510.1</ele>
        <time>2019-12-15T13:33:8.000Z</time>
      </trkpt>
      <trkpt lat="43.80475" lon="3.57393">
        <ele>509.6</ele>
        <time>2019-12-15T13:33:15.000Z</time>
      </trkpt>
      <trkpt lat="43.80469" lon="3.57396">
        <ele>508.2</ele>
        <time>2019-12-15T13:33:22.000Z</time>
      </trkpt>
      <trkpt lat="43.80465" lon="3.57395">
        <ele>507.7</ele>
        <time>2019-12-15T13:33:28.000Z</time>
      </trkpt>
      <trkpt lat="43.80453" lon="3.57397">
        <ele>505.8</ele>
        <time>2019-12-15T13:33:39.000Z</time>
      </trkpt>
      <trkpt lat="43.80447" lon="3.57397">
        <ele>504.4</ele>
        <time>2019-12-15T13:33:49.000Z</time>
      </trkpt>
      <trkpt lat="43.80436" lon="3.57398">
        <ele>502.4</ele>
        <time>2019-12-15T13:34:1.000Z</time>
      </trkpt>
      <trkpt lat="43.80425" lon="3.574">
        <ele>502</ele>
        <time>2019-12-15T13:34:9.000Z</time>
      </trkpt>
      <trkpt lat="43.80418" lon="3.57398">
        <ele>501</ele>
        <time>2019-12-15T13:34:13.000Z</time>
      </trkpt>
      <trkpt lat="43.8041" lon="3.57397">
        <ele>500.5</ele>
        <time>2019-12-15T13:34:23.000Z</time>
      </trkpt>
      <trkpt lat="43.804" lon="3.57393">
        <ele>500</ele>
        <time>2019-12-15T13:34:31.000Z</time>
      </trkpt>
      <trkpt lat="43.8039" lon="3.57384">
        <ele>500</ele>
        <time>2019-12-15T13:34:41.000Z</time>
      </trkpt>
      <trkpt lat="43.8039" lon="3.57384">
        <ele>499.1</ele>
        <time>2019-12-15T13:34:44.000Z</time>
      </trkpt>
      <trkpt lat="43.80379" lon="3.5738">
        <ele>497.1</ele>
        <time>2019-12-15T13:34:54.000Z</time>
      </trkpt>
      <trkpt lat="43.80369" lon="3.57382">
        <ele>495.2</ele>
        <time>2019-12-15T13:35:3.000Z</time>
      </trkpt>
      <trkpt lat="43.80366" lon="3.5738">
        <ele>494.3</ele>
        <time>2019-12-15T13:35:11.000Z</time>
      </trkpt>
      <trkpt lat="43.80357" lon="3.57381">
        <ele>493.3</ele>
        <time>2019-12-15T13:35:20.000Z</time>
      </trkpt>
      <trkpt lat="43.80345" lon="3.57382">
        <ele>492.3</ele>
        <time>2019-12-15T13:35:28.000Z</time>
      </trkpt>
      <trkpt lat="43.80335" lon="3.57384">
        <ele>490.4</ele>
        <time>2019-12-15T13:35:38.000Z</time>
      </trkpt>
      <trkpt lat="43.80335" lon="3.57383">
        <ele>489.9</ele>
        <time>2019-12-15T13:35:41.000Z</time>
      </trkpt>
      <trkpt lat="43.8033" lon="3.57383">
        <ele>489.5</ele>
        <time>2019-12-15T13:35:44.000Z</time>
      </trkpt>
      <trkpt lat="43.80326" lon="3.57384">
        <ele>488.5</ele>
        <time>2019-12-15T13:35:50.000Z</time>
      </trkpt>
      <trkpt lat="43.80315" lon="3.57384">
        <ele>487.5</ele>
        <time>2019-12-15T13:36:0.000Z</time>
      </trkpt>
      <trkpt lat="43.80305" lon="3.5738">
        <ele>487</ele>
        <time>2019-12-15T13:36:8.000Z</time>
      </trkpt>
      <trkpt lat="43.80295" lon="3.57374">
        <ele>486.6</ele>
        <time>2019-12-15T13:36:18.000Z</time>
      </trkpt>
      <trkpt lat="43.80283" lon="3.57369">
        <ele>486.6</ele>
        <time>2019-12-15T13:36:27.000Z</time>
      </trkpt>
      <trkpt lat="43.80269" lon="3.57364">
        <ele>486.1</ele>
        <time>2019-12-15T13:36:38.000Z</time>
      </trkpt>
      <trkpt lat="43.80259" lon="3.57353">
        <ele>485.6</ele>
        <time>2019-12-15T13:36:49.000Z</time>
      </trkpt>
      <trkpt lat="43.80249" lon="3.57345">
        <ele>485.6</ele>
        <time>2019-12-15T13:36:59.000Z</time>
      </trkpt>
      <trkpt lat="43.80247" lon="3.57347">
        <ele>484.2</ele>
        <time>2019-12-15T13:37:8.000Z</time>
      </trkpt>
      <trkpt lat="43.80242" lon="3.57348">
        <ele>482.2</ele>
        <time>2019-12-15T13:37:17.000Z</time>
      </trkpt>
      <trkpt lat="43.80237" lon="3.57347">
        <ele>481.8</ele>
        <time>2019-12-15T13:37:27.000Z</time>
      </trkpt>
      <trkpt lat="43.80237" lon="3.57345">
        <ele>481.8</ele>
        <time>2019-12-15T13:37:43.000Z</time>
      </trkpt>
      <trkpt lat="43.80237" lon="3.57343">
        <ele>482.2</ele>
        <time>2019-12-15T13:38:4.000Z</time>
      </trkpt>
      <trkpt lat="43.80237" lon="3.57346">
        <ele>482.2</ele>
        <time>2019-12-15T13:38:20.000Z</time>
      </trkpt>
      <trkpt lat="43.80236" lon="3.57345">
        <ele>482.2</ele>
        <time>2019-12-15T13:38:36.000Z</time>
      </trkpt>
      <trkpt lat="43.80237" lon="3.5735">
        <ele>482.7</ele>
        <time>2019-12-15T13:39:4.000Z</time>
      </trkpt>
      <trkpt lat="43.80237" lon="3.57348">
        <ele>482.2</ele>
        <time>2019-12-15T13:39:22.000Z</time>
      </trkpt>
      <trkpt lat="43.80235" lon="3.57347">
        <ele>482.2</ele>
        <time>2019-12-15T13:39:41.000Z</time>
      </trkpt>
      <trkpt lat="43.80236" lon="3.57347">
        <ele>482.2</ele>
        <time>2019-12-15T13:39:59.000Z</time>
      </trkpt>
      <trkpt lat="43.80238" lon="3.57349">
        <ele>482.2</ele>
        <time>2019-12-15T13:40:26.000Z</time>
      </trkpt>
      <trkpt lat="43.80237" lon="3.57347">
        <ele>482.2</ele>
        <time>2019-12-15T13:40:42.000Z</time>
      </trkpt>
      <trkpt lat="43.80238" lon="3.57347">
        <ele>482.7</ele>
        <time>2019-12-15T13:41:1.000Z</time>
      </trkpt>
      <trkpt lat="43.80239" lon="3.57348">
        <ele>482.7</ele>
        <time>2019-12-15T13:41:17.000Z</time>
      </trkpt>
      <trkpt lat="43.80237" lon="3.57347">
        <ele>482.2</ele>
        <time>2019-12-15T13:41:39.000Z</time>
      </trkpt>
      <trkpt lat="43.80234" lon="3.57341">
        <ele>481.3</ele>
        <time>2019-12-15T13:41:46.000Z</time>
      </trkpt>
      <trkpt lat="43.80232" lon="3.57333">
        <ele>480.8</ele>
        <time>2019-12-15T13:41:53.000Z</time>
      </trkpt>
      <trkpt lat="43.80229" lon="3.5733">
        <ele>480.3</ele>
        <time>2019-12-15T13:41:58.000Z</time>
      </trkpt>
      <trkpt lat="43.80227" lon="3.57328">
        <ele>479.4</ele>
        <time>2019-12-15T13:42:3.000Z</time>
      </trkpt>
      <trkpt lat="43.80219" lon="3.5732">
        <ele>477</ele>
        <time>2019-12-15T13:42:15.000Z</time>
      </trkpt>
      <trkpt lat="43.80213" lon="3.57314">
        <ele>474.5</ele>
        <time>2019-12-15T13:42:25.000Z</time>
      </trkpt>
      <trkpt lat="43.80205" lon="3.57314">
        <ele>473.1</ele>
        <time>2019-12-15T13:42:32.000Z</time>
      </trkpt>
      <trkpt lat="43.80198" lon="3.57313">
        <ele>471.7</ele>
        <time>2019-12-15T13:42:40.000Z</time>
      </trkpt>
      <trkpt lat="43.80192" lon="3.57312">
        <ele>471.2</ele>
        <time>2019-12-15T13:42:46.000Z</time>
      </trkpt>
      <trkpt lat="43.80186" lon="3.57315">
        <ele>469.3</ele>
        <time>2019-12-15T13:42:55.000Z</time>
      </trkpt>
      <trkpt lat="43.80189" lon="3.57318">
        <ele>468.3</ele>
        <time>2019-12-15T13:43:1.000Z</time>
      </trkpt>
      <trkpt lat="43.80196" lon="3.57324">
        <ele>467.3</ele>
        <time>2019-12-15T13:43:9.000Z</time>
      </trkpt>
      <trkpt lat="43.80202" lon="3.5733">
        <ele>465.9</ele>
        <time>2019-12-15T13:43:17.000Z</time>
      </trkpt>
      <trkpt lat="43.80205" lon="3.57335">
        <ele>465.4</ele>
        <time>2019-12-15T13:43:22.000Z</time>
      </trkpt>
      <trkpt lat="43.80209" lon="3.5734">
        <ele>464.5</ele>
        <time>2019-12-15T13:43:26.000Z</time>
      </trkpt>
      <trkpt lat="43.80214" lon="3.57351">
        <ele>462</ele>
        <time>2019-12-15T13:43:38.000Z</time>
      </trkpt>
      <trkpt lat="43.8022" lon="3.57364">
        <ele>461.1</ele>
        <time>2019-12-15T13:43:47.000Z</time>
      </trkpt>
      <trkpt lat="43.8022" lon="3.57366">
        <ele>460.1</ele>
        <time>2019-12-15T13:43:50.000Z</time>
      </trkpt>
      <trkpt lat="43.80224" lon="3.57373">
        <ele>459.6</ele>
        <time>2019-12-15T13:43:57.000Z</time>
      </trkpt>
      <trkpt lat="43.80229" lon="3.5738">
        <ele>459.2</ele>
        <time>2019-12-15T13:44:1.000Z</time>
      </trkpt>
      <trkpt lat="43.80231" lon="3.57383">
        <ele>458.7</ele>
        <time>2019-12-15T13:44:6.000Z</time>
      </trkpt>
      <trkpt lat="43.80236" lon="3.57386">
        <ele>458.7</ele>
        <time>2019-12-15T13:44:11.000Z</time>
      </trkpt>
      <trkpt lat="43.80236" lon="3.57393">
        <ele>456.3</ele>
        <time>2019-12-15T13:44:23.000Z</time>
      </trkpt>
      <trkpt lat="43.80235" lon="3.57392">
        <ele>456.3</ele>
        <time>2019-12-15T13:44:24.000Z</time>
      </trkpt>
      <trkpt lat="43.80225" lon="3.57392">
        <ele>454.8</ele>
        <time>2019-12-15T13:44:33.000Z</time>
      </trkpt>
      <trkpt lat="43.80225" lon="3.57391">
        <ele>454.4</ele>
        <time>2019-12-15T13:44:34.000Z</time>
      </trkpt>
      <trkpt lat="43.80214" lon="3.57384">
        <ele>452.9</ele>
        <time>2019-12-15T13:44:46.000Z</time>
      </trkpt>
      <trkpt lat="43.8021" lon="3.57379">
        <ele>452</ele>
        <time>2019-12-15T13:44:55.000Z</time>
      </trkpt>
      <trkpt lat="43.80208" lon="3.57379">
        <ele>451.5</ele>
        <time>2019-12-15T13:44:57.000Z</time>
      </trkpt>
      <trkpt lat="43.80202" lon="3.5737">
        <ele>450</ele>
        <time>2019-12-15T13:45:6.000Z</time>
      </trkpt>
      <trkpt lat="43.80197" lon="3.57364">
        <ele>449.5</ele>
        <time>2019-12-15T13:45:12.000Z</time>
      </trkpt>
      <trkpt lat="43.8019" lon="3.57357">
        <ele>448.6</ele>
        <time>2019-12-15T13:45:20.000Z</time>
      </trkpt>
      <trkpt lat="43.80185" lon="3.57357">
        <ele>446.7</ele>
        <time>2019-12-15T13:45:27.000Z</time>
      </trkpt>
      <trkpt lat="43.80177" lon="3.57356">
        <ele>445.7</ele>
        <time>2019-12-15T13:45:35.000Z</time>
      </trkpt>
      <trkpt lat="43.80168" lon="3.57354">
        <ele>444.8</ele>
        <time>2019-12-15T13:45:46.000Z</time>
      </trkpt>
      <trkpt lat="43.80162" lon="3.57351">
        <ele>444.8</ele>
        <time>2019-12-15T13:45:53.000Z</time>
      </trkpt>
      <trkpt lat="43.80165" lon="3.57359">
        <ele>443.8</ele>
        <time>2019-12-15T13:45:59.000Z</time>
      </trkpt>
      <trkpt lat="43.80169" lon="3.57364">
        <ele>442.8</ele>
        <time>2019-12-15T13:46:5.000Z</time>
      </trkpt>
      <trkpt lat="43.80173" lon="3.57369">
        <ele>441.9</ele>
        <time>2019-12-15T13:46:12.000Z</time>
      </trkpt>
      <trkpt lat="43.8018" lon="3.5738">
        <ele>440.4</ele>
        <time>2019-12-15T13:46:26.000Z</time>
      </trkpt>
      <trkpt lat="43.80181" lon="3.57382">
        <ele>439.5</ele>
        <time>2019-12-15T13:46:28.000Z</time>
      </trkpt>
      <trkpt lat="43.80184" lon="3.57394">
        <ele>438</ele>
        <time>2019-12-15T13:46:37.000Z</time>
      </trkpt>
      <trkpt lat="43.80175" lon="3.5739">
        <ele>436.1</ele>
        <time>2019-12-15T13:46:47.000Z</time>
      </trkpt>
      <trkpt lat="43.80175" lon="3.5739">
        <ele>435.6</ele>
        <time>2019-12-15T13:46:49.000Z</time>
      </trkpt>
      <trkpt lat="43.80174" lon="3.57388">
        <ele>435.6</ele>
        <time>2019-12-15T13:46:51.000Z</time>
      </trkpt>
      <trkpt lat="43.80171" lon="3.57387">
        <ele>435.1</ele>
        <time>2019-12-15T13:46:54.000Z</time>
      </trkpt>
      <trkpt lat="43.80164" lon="3.57385">
        <ele>433.2</ele>
        <time>2019-12-15T13:47:3.000Z</time>
      </trkpt>
      <trkpt lat="43.80162" lon="3.57384">
        <ele>432.7</ele>
        <time>2019-12-15T13:47:7.000Z</time>
      </trkpt>
      <trkpt lat="43.80149" lon="3.57375">
        <ele>431.8</ele>
        <time>2019-12-15T13:47:17.000Z</time>
      </trkpt>
      <trkpt lat="43.80143" lon="3.57369">
        <ele>431.3</ele>
        <time>2019-12-15T13:47:23.000Z</time>
      </trkpt>
      <trkpt lat="43.80139" lon="3.57367">
        <ele>429.9</ele>
        <time>2019-12-15T13:47:27.000Z</time>
      </trkpt>
      <trkpt lat="43.80131" lon="3.57363">
        <ele>428.4</ele>
        <time>2019-12-15T13:47:37.000Z</time>
      </trkpt>
      <trkpt lat="43.80125" lon="3.57357">
        <ele>427.4</ele>
        <time>2019-12-15T13:47:44.000Z</time>
      </trkpt>
      <trkpt lat="43.80119" lon="3.57353">
        <ele>426</ele>
        <time>2019-12-15T13:47:51.000Z</time>
      </trkpt>
      <trkpt lat="43.80118" lon="3.57358">
        <ele>425</ele>
        <time>2019-12-15T13:47:58.000Z</time>
      </trkpt>
      <trkpt lat="43.80122" lon="3.57362">
        <ele>424.1</ele>
        <time>2019-12-15T13:48:4.000Z</time>
      </trkpt>
      <trkpt lat="43.80126" lon="3.57372">
        <ele>422.6</ele>
        <time>2019-12-15T13:48:13.000Z</time>
      </trkpt>
      <trkpt lat="43.8013" lon="3.57388">
        <ele>421.2</ele>
        <time>2019-12-15T13:48:22.000Z</time>
      </trkpt>
      <trkpt lat="43.80133" lon="3.57396">
        <ele>420.2</ele>
        <time>2019-12-15T13:48:28.000Z</time>
      </trkpt>
      <trkpt lat="43.80133" lon="3.57405">
        <ele>419.3</ele>
        <time>2019-12-15T13:48:32.000Z</time>
      </trkpt>
      <trkpt lat="43.80132" lon="3.57411">
        <ele>418.3</ele>
        <time>2019-12-15T13:48:39.000Z</time>
      </trkpt>
      <trkpt lat="43.8013" lon="3.57414">
        <ele>418.3</ele>
        <time>2019-12-15T13:48:41.000Z</time>
      </trkpt>
      <trkpt lat="43.80129" lon="3.57419">
        <ele>417.4</ele>
        <time>2019-12-15T13:48:46.000Z</time>
      </trkpt>
      <trkpt lat="43.80125" lon="3.57415">
        <ele>415.9</ele>
        <time>2019-12-15T13:48:54.000Z</time>
      </trkpt>
      <trkpt lat="43.80123" lon="3.57404">
        <ele>414.5</ele>
        <time>2019-12-15T13:49:3.000Z</time>
      </trkpt>
      <trkpt lat="43.80113" lon="3.57393">
        <ele>413</ele>
        <time>2019-12-15T13:49:13.000Z</time>
      </trkpt>
      <trkpt lat="43.80103" lon="3.57384">
        <ele>411.6</ele>
        <time>2019-12-15T13:49:23.000Z</time>
      </trkpt>
      <trkpt lat="43.80101" lon="3.57384">
        <ele>411.1</ele>
        <time>2019-12-15T13:49:27.000Z</time>
      </trkpt>
      <trkpt lat="43.80102" lon="3.57393">
        <ele>409.2</ele>
        <time>2019-12-15T13:49:36.000Z</time>
      </trkpt>
      <trkpt lat="43.80105" lon="3.57398">
        <ele>407.7</ele>
        <time>2019-12-15T13:49:45.000Z</time>
      </trkpt>
      <trkpt lat="43.80106" lon="3.57405">
        <ele>406.3</ele>
        <time>2019-12-15T13:49:50.000Z</time>
      </trkpt>
      <trkpt lat="43.80102" lon="3.57415">
        <ele>403.9</ele>
        <time>2019-12-15T13:49:59.000Z</time>
      </trkpt>
      <trkpt lat="43.80102" lon="3.57416">
        <ele>403.9</ele>
        <time>2019-12-15T13:50:0.000Z</time>
      </trkpt>
      <trkpt lat="43.80102" lon="3.57422">
        <ele>403.4</ele>
        <time>2019-12-15T13:50:3.000Z</time>
      </trkpt>
      <trkpt lat="43.80101" lon="3.57426">
        <ele>402.5</ele>
        <time>2019-12-15T13:50:8.000Z</time>
      </trkpt>
      <trkpt lat="43.80094" lon="3.57416">
        <ele>401</ele>
        <time>2019-12-15T13:50:17.000Z</time>
      </trkpt>
      <trkpt lat="43.80094" lon="3.57414">
        <ele>400.5</ele>
        <time>2019-12-15T13:50:19.000Z</time>
      </trkpt>
      <trkpt lat="43.80093" lon="3.57411">
        <ele>400.5</ele>
        <time>2019-12-15T13:50:20.000Z</time>
      </trkpt>
      <trkpt lat="43.8009" lon="3.57405">
        <ele>400</ele>
        <time>2019-12-15T13:50:26.000Z</time>
      </trkpt>
      <trkpt lat="43.80089" lon="3.57403">
        <ele>399.6</ele>
        <time>2019-12-15T13:50:28.000Z</time>
      </trkpt>
      <trkpt lat="43.80084" lon="3.57396">
        <ele>399.6</ele>
        <time>2019-12-15T13:50:34.000Z</time>
      </trkpt>
      <trkpt lat="43.80079" lon="3.57398">
        <ele>397.2</ele>
        <time>2019-12-15T13:50:47.000Z</time>
      </trkpt>
      <trkpt lat="43.80086" lon="3.57409">
        <ele>394.8</ele>
        <time>2019-12-15T13:50:59.000Z</time>
      </trkpt>
      <trkpt lat="43.80088" lon="3.57412">
        <ele>394.8</ele>
        <time>2019-12-15T13:51:2.000Z</time>
      </trkpt>
      <trkpt lat="43.80084" lon="3.57416">
        <ele>392.8</ele>
        <time>2019-12-15T13:51:14.000Z</time>
      </trkpt>
      <trkpt lat="43.80076" lon="3.5741">
        <ele>389.5</ele>
        <time>2019-12-15T13:51:30.000Z</time>
      </trkpt>
      <trkpt lat="43.80079" lon="3.57422">
        <ele>387.1</ele>
        <time>2019-12-15T13:51:44.000Z</time>
      </trkpt>
      <trkpt lat="43.80071" lon="3.57414">
        <ele>385.1</ele>
        <time>2019-12-15T13:51:57.000Z</time>
      </trkpt>
      <trkpt lat="43.80071" lon="3.57413">
        <ele>385.1</ele>
        <time>2019-12-15T13:51:58.000Z</time>
      </trkpt>
      <trkpt lat="43.80068" lon="3.57402">
        <ele>381.8</ele>
        <time>2019-12-15T13:52:12.000Z</time>
      </trkpt>
      <trkpt lat="43.80064" lon="3.57398">
        <ele>380.3</ele>
        <time>2019-12-15T13:52:22.000Z</time>
      </trkpt>
      <trkpt lat="43.8005" lon="3.57391">
        <ele>378.4</ele>
        <time>2019-12-15T13:52:36.000Z</time>
      </trkpt>
      <trkpt lat="43.80049" lon="3.57391">
        <ele>378.4</ele>
        <time>2019-12-15T13:52:37.000Z</time>
      </trkpt>
      <trkpt lat="43.80046" lon="3.57388">
        <ele>378.4</ele>
        <time>2019-12-15T13:52:40.000Z</time>
      </trkpt>
      <trkpt lat="43.80033" lon="3.57381">
        <ele>377</ele>
        <time>2019-12-15T13:52:56.000Z</time>
      </trkpt>
      <trkpt lat="43.80033" lon="3.57382">
        <ele>377</ele>
        <time>2019-12-15T13:52:57.000Z</time>
      </trkpt>
      <trkpt lat="43.80036" lon="3.57389">
        <ele>376</ele>
        <time>2019-12-15T13:53:3.000Z</time>
      </trkpt>
      <trkpt lat="43.8004" lon="3.57399">
        <ele>373.6</ele>
        <time>2019-12-15T13:53:15.000Z</time>
      </trkpt>
      <trkpt lat="43.80049" lon="3.57412">
        <ele>370.7</ele>
        <time>2019-12-15T13:53:30.000Z</time>
      </trkpt>
      <trkpt lat="43.80053" lon="3.57421">
        <ele>369.3</ele>
        <time>2019-12-15T13:53:38.000Z</time>
      </trkpt>
      <trkpt lat="43.80054" lon="3.57421">
        <ele>368.8</ele>
        <time>2019-12-15T13:53:39.000Z</time>
      </trkpt>
      <trkpt lat="43.80059" lon="3.57428">
        <ele>366.4</ele>
        <time>2019-12-15T13:53:51.000Z</time>
      </trkpt>
      <trkpt lat="43.8006" lon="3.57429">
        <ele>366.4</ele>
        <time>2019-12-15T13:53:52.000Z</time>
      </trkpt>
      <trkpt lat="43.80066" lon="3.57442">
        <ele>364.5</ele>
        <time>2019-12-15T13:54:4.000Z</time>
      </trkpt>
      <trkpt lat="43.8007" lon="3.5745">
        <ele>363</ele>
        <time>2019-12-15T13:54:11.000Z</time>
      </trkpt>
      <trkpt lat="43.80075" lon="3.5746">
        <ele>362.1</ele>
        <time>2019-12-15T13:54:19.000Z</time>
      </trkpt>
      <trkpt lat="43.80083" lon="3.57477">
        <ele>360.1</ele>
        <time>2019-12-15T13:54:36.000Z</time>
      </trkpt>
      <trkpt lat="43.80091" lon="3.57496">
        <ele>358.2</ele>
        <time>2019-12-15T13:54:52.000Z</time>
      </trkpt>
      <trkpt lat="43.80096" lon="3.57504">
        <ele>356.3</ele>
        <time>2019-12-15T13:55:2.000Z</time>
      </trkpt>
      <trkpt lat="43.80096" lon="3.57504">
        <ele>356.3</ele>
        <time>2019-12-15T13:55:3.000Z</time>
      </trkpt>
      <trkpt lat="43.80103" lon="3.57515">
        <ele>354.4</ele>
        <time>2019-12-15T13:55:17.000Z</time>
      </trkpt>
      <trkpt lat="43.80107" lon="3.57522">
        <ele>353.4</ele>
        <time>2019-12-15T13:55:23.000Z</time>
      </trkpt>
      <trkpt lat="43.80102" lon="3.57526">
        <ele>351.5</ele>
        <time>2019-12-15T13:55:33.000Z</time>
      </trkpt>
      <trkpt lat="43.80106" lon="3.57542">
        <ele>348.1</ele>
        <time>2019-12-15T13:55:48.000Z</time>
      </trkpt>
      <trkpt lat="43.8011" lon="3.5756">
        <ele>346.2</ele>
        <time>2019-12-15T13:56:2.000Z</time>
      </trkpt>
      <trkpt lat="43.80117" lon="3.57579">
        <ele>344.3</ele>
        <time>2019-12-15T13:56:17.000Z</time>
      </trkpt>
      <trkpt lat="43.80119" lon="3.57586">
        <ele>343.3</ele>
        <time>2019-12-15T13:56:23.000Z</time>
      </trkpt>
      <trkpt lat="43.8012" lon="3.57596">
        <ele>342.4</ele>
        <time>2019-12-15T13:56:31.000Z</time>
      </trkpt>
      <trkpt lat="43.80125" lon="3.57613">
        <ele>340</ele>
        <time>2019-12-15T13:56:44.000Z</time>
      </trkpt>
      <trkpt lat="43.80125" lon="3.57615">
        <ele>339.5</ele>
        <time>2019-12-15T13:56:46.000Z</time>
      </trkpt>
      <trkpt lat="43.80123" lon="3.57618">
        <ele>338.5</ele>
        <time>2019-12-15T13:56:50.000Z</time>
      </trkpt>
      <trkpt lat="43.80127" lon="3.57628">
        <ele>335.6</ele>
        <time>2019-12-15T13:57:0.000Z</time>
      </trkpt>
      <trkpt lat="43.80126" lon="3.57631">
        <ele>335.2</ele>
        <time>2019-12-15T13:57:12.000Z</time>
      </trkpt>
      <trkpt lat="43.80125" lon="3.57629">
        <ele>335.2</ele>
        <time>2019-12-15T13:57:27.000Z</time>
      </trkpt>
      <trkpt lat="43.80126" lon="3.57636">
        <ele>333.7</ele>
        <time>2019-12-15T13:57:50.000Z</time>
      </trkpt>
      <trkpt lat="43.80125" lon="3.57642">
        <ele>332.8</ele>
        <time>2019-12-15T13:57:56.000Z</time>
      </trkpt>
      <trkpt lat="43.80123" lon="3.57658">
        <ele>330.4</ele>
        <time>2019-12-15T13:58:7.000Z</time>
      </trkpt>
      <trkpt lat="43.80121" lon="3.57674">
        <ele>328.9</ele>
        <time>2019-12-15T13:58:20.000Z</time>
      </trkpt>
      <trkpt lat="43.80119" lon="3.57688">
        <ele>328</ele>
        <time>2019-12-15T13:58:33.000Z</time>
      </trkpt>
      <trkpt lat="43.80118" lon="3.57694">
        <ele>326.5</ele>
        <time>2019-12-15T13:58:37.000Z</time>
      </trkpt>
      <trkpt lat="43.80112" lon="3.57698">
        <ele>325.1</ele>
        <time>2019-12-15T13:58:46.000Z</time>
      </trkpt>
      <trkpt lat="43.80113" lon="3.57707">
        <ele>324.1</ele>
        <time>2019-12-15T13:58:52.000Z</time>
      </trkpt>
      <trkpt lat="43.80108" lon="3.57718">
        <ele>322.2</ele>
        <time>2019-12-15T13:59:2.000Z</time>
      </trkpt>
      <trkpt lat="43.80107" lon="3.57719">
        <ele>322.2</ele>
        <time>2019-12-15T13:59:4.000Z</time>
      </trkpt>
      <trkpt lat="43.80108" lon="3.57723">
        <ele>321.2</ele>
        <time>2019-12-15T13:59:18.000Z</time>
      </trkpt>
      <trkpt lat="43.80105" lon="3.57721">
        <ele>320.7</ele>
        <time>2019-12-15T13:59:41.000Z</time>
      </trkpt>
      <trkpt lat="43.8011" lon="3.57721">
        <ele>320.7</ele>
        <time>2019-12-15T14:00:5.000Z</time>
      </trkpt>
      <trkpt lat="43.80108" lon="3.5772">
        <ele>321.2</ele>
        <time>2019-12-15T14:00:30.000Z</time>
      </trkpt>
      <trkpt lat="43.80107" lon="3.57721">
        <ele>321.2</ele>
        <time>2019-12-15T14:00:55.000Z</time>
      </trkpt>
      <trkpt lat="43.80107" lon="3.57721">
        <ele>321.2</ele>
        <time>2019-12-15T14:01:19.000Z</time>
      </trkpt>
      <trkpt lat="43.80107" lon="3.57719">
        <ele>320.7</ele>
        <time>2019-12-15T14:01:51.000Z</time>
      </trkpt>
      <trkpt lat="43.80107" lon="3.57718">
        <ele>320.7</ele>
        <time>2019-12-15T14:02:13.000Z</time>
      </trkpt>
      <trkpt lat="43.80107" lon="3.57719">
        <ele>321.2</ele>
        <time>2019-12-15T14:02:45.000Z</time>
      </trkpt>
      <trkpt lat="43.80107" lon="3.57719">
        <ele>321.2</ele>
        <time>2019-12-15T14:03:16.000Z</time>
      </trkpt>
      <trkpt lat="43.80109" lon="3.57719">
        <ele>321.2</ele>
        <time>2019-12-15T14:03:43.000Z</time>
      </trkpt>
      <trkpt lat="43.80108" lon="3.57719">
        <ele>321.2</ele>
        <time>2019-12-15T14:04:13.000Z</time>
      </trkpt>
      <trkpt lat="43.80106" lon="3.57719">
        <ele>321.2</ele>
        <time>2019-12-15T14:04:44.000Z</time>
      </trkpt>
      <trkpt lat="43.80107" lon="3.57721">
        <ele>321.2</ele>
        <time>2019-12-15T14:05:6.000Z</time>
      </trkpt>
      <trkpt lat="43.80104" lon="3.57722">
        <ele>320.7</ele>
        <time>2019-12-15T14:05:27.000Z</time>
      </trkpt>
      <trkpt lat="43.80102" lon="3.57736">
        <ele>319.8</ele>
        <time>2019-12-15T14:05:39.000Z</time>
      </trkpt>
      <trkpt lat="43.80102" lon="3.57738">
        <ele>319.3</ele>
        <time>2019-12-15T14:05:41.000Z</time>
      </trkpt>
      <trkpt lat="43.80104" lon="3.57745">
        <ele>319.3</ele>
        <time>2019-12-15T14:05:46.000Z</time>
      </trkpt>
      <trkpt lat="43.80107" lon="3.57755">
        <ele>318.3</ele>
        <time>2019-12-15T14:05:55.000Z</time>
      </trkpt>
      <trkpt lat="43.80114" lon="3.57765">
        <ele>315.9</ele>
        <time>2019-12-15T14:06:8.000Z</time>
      </trkpt>
      <trkpt lat="43.80115" lon="3.57768">
        <ele>315.9</ele>
        <time>2019-12-15T14:06:11.000Z</time>
      </trkpt>
      <trkpt lat="43.80116" lon="3.57774">
        <ele>314.5</ele>
        <time>2019-12-15T14:06:18.000Z</time>
      </trkpt>
      <trkpt lat="43.8012" lon="3.57789">
        <ele>312.6</ele>
        <time>2019-12-15T14:06:32.000Z</time>
      </trkpt>
      <trkpt lat="43.80123" lon="3.5781">
        <ele>310.2</ele>
        <time>2019-12-15T14:06:51.000Z</time>
      </trkpt>
      <trkpt lat="43.80133" lon="3.57817">
        <ele>307.8</ele>
        <time>2019-12-15T14:07:5.000Z</time>
      </trkpt>
      <trkpt lat="43.80138" lon="3.57821">
        <ele>306.3</ele>
        <time>2019-12-15T14:07:13.000Z</time>
      </trkpt>
      <trkpt lat="43.80145" lon="3.57841">
        <ele>304.9</ele>
        <time>2019-12-15T14:07:27.000Z</time>
      </trkpt>
      <trkpt lat="43.80149" lon="3.57861">
        <ele>303</ele>
        <time>2019-12-15T14:07:44.000Z</time>
      </trkpt>
      <trkpt lat="43.80158" lon="3.57877">
        <ele>300.5</ele>
        <time>2019-12-15T14:07:59.000Z</time>
      </trkpt>
      <trkpt lat="43.80166" lon="3.5789">
        <ele>299.6</ele>
        <time>2019-12-15T14:08:14.000Z</time>
      </trkpt>
      <trkpt lat="43.80167" lon="3.57891">
        <ele>299.6</ele>
        <time>2019-12-15T14:08:15.000Z</time>
      </trkpt>
      <trkpt lat="43.80174" lon="3.57905">
        <ele>297.2</ele>
        <time>2019-12-15T14:08:29.000Z</time>
      </trkpt>
      <trkpt lat="43.80177" lon="3.57918">
        <ele>294.8</ele>
        <time>2019-12-15T14:08:42.000Z</time>
      </trkpt>
      <trkpt lat="43.80176" lon="3.57926">
        <ele>293.3</ele>
        <time>2019-12-15T14:08:49.000Z</time>
      </trkpt>
      <trkpt lat="43.80178" lon="3.57934">
        <ele>292.4</ele>
        <time>2019-12-15T14:09:2.000Z</time>
      </trkpt>
      <trkpt lat="43.80182" lon="3.57942">
        <ele>291.4</ele>
        <time>2019-12-15T14:09:17.000Z</time>
      </trkpt>
      <trkpt lat="43.80194" lon="3.57948">
        <ele>290.5</ele>
        <time>2019-12-15T14:09:32.000Z</time>
      </trkpt>
      <trkpt lat="43.80202" lon="3.5796">
        <ele>289.5</ele>
        <time>2019-12-15T14:09:41.000Z</time>
      </trkpt>
      <trkpt lat="43.80212" lon="3.57972">
        <ele>288.5</ele>
        <time>2019-12-15T14:09:55.000Z</time>
      </trkpt>
      <trkpt lat="43.80219" lon="3.57981">
        <ele>287.6</ele>
        <time>2019-12-15T14:10:9.000Z</time>
      </trkpt>
      <trkpt lat="43.80225" lon="3.5799">
        <ele>286.6</ele>
        <time>2019-12-15T14:10:20.000Z</time>
      </trkpt>
      <trkpt lat="43.80231" lon="3.58003">
        <ele>285.6</ele>
        <time>2019-12-15T14:10:32.000Z</time>
      </trkpt>
      <trkpt lat="43.80238" lon="3.58016">
        <ele>284.2</ele>
        <time>2019-12-15T14:10:46.000Z</time>
      </trkpt>
      <trkpt lat="43.80245" lon="3.58028">
        <ele>283.3</ele>
        <time>2019-12-15T14:10:59.000Z</time>
      </trkpt>
      <trkpt lat="43.80248" lon="3.58032">
        <ele>282.3</ele>
        <time>2019-12-15T14:11:4.000Z</time>
      </trkpt>
      <trkpt lat="43.80251" lon="3.58048">
        <ele>282.3</ele>
        <time>2019-12-15T14:11:20.000Z</time>
      </trkpt>
      <trkpt lat="43.80253" lon="3.58052">
        <ele>282.8</ele>
        <time>2019-12-15T14:11:39.000Z</time>
      </trkpt>
      <trkpt lat="43.80255" lon="3.58055">
        <ele>282.8</ele>
        <time>2019-12-15T14:12:3.000Z</time>
      </trkpt>
      <trkpt lat="43.80256" lon="3.58058">
        <ele>282.8</ele>
        <time>2019-12-15T14:12:20.000Z</time>
      </trkpt>
      <trkpt lat="43.80258" lon="3.58073">
        <ele>283.7</ele>
        <time>2019-12-15T14:12:33.000Z</time>
      </trkpt>
      <trkpt lat="43.80264" lon="3.58092">
        <ele>283.3</ele>
        <time>2019-12-15T14:12:48.000Z</time>
      </trkpt>
      <trkpt lat="43.80273" lon="3.58106">
        <ele>282.3</ele>
        <time>2019-12-15T14:13:1.000Z</time>
      </trkpt>
      <trkpt lat="43.8028" lon="3.58123">
        <ele>281.8</ele>
        <time>2019-12-15T14:13:14.000Z</time>
      </trkpt>
      <trkpt lat="43.80282" lon="3.58129">
        <ele>280.8</ele>
        <time>2019-12-15T14:13:20.000Z</time>
      </trkpt>
      <trkpt lat="43.80284" lon="3.58136">
        <ele>279.9</ele>
        <time>2019-12-15T14:13:24.000Z</time>
      </trkpt>
      <trkpt lat="43.80288" lon="3.58141">
        <ele>279.4</ele>
        <time>2019-12-15T14:13:30.000Z</time>
      </trkpt>
      <trkpt lat="43.80297" lon="3.58151">
        <ele>278</ele>
        <time>2019-12-15T14:13:42.000Z</time>
      </trkpt>
      <trkpt lat="43.80304" lon="3.5816">
        <ele>275.1</ele>
        <time>2019-12-15T14:13:53.000Z</time>
      </trkpt>
      <trkpt lat="43.80309" lon="3.58164">
        <ele>273.1</ele>
        <time>2019-12-15T14:14:1.000Z</time>
      </trkpt>
      <trkpt lat="43.80317" lon="3.58173">
        <ele>271.2</ele>
        <time>2019-12-15T14:14:13.000Z</time>
      </trkpt>
      <trkpt lat="43.80318" lon="3.58175">
        <ele>270.8</ele>
        <time>2019-12-15T14:14:15.000Z</time>
      </trkpt>
      <trkpt lat="43.80326" lon="3.58186">
        <ele>270.3</ele>
        <time>2019-12-15T14:14:26.000Z</time>
      </trkpt>
      <trkpt lat="43.8033" lon="3.58196">
        <ele>269.8</ele>
        <time>2019-12-15T14:14:35.000Z</time>
      </trkpt>
      <trkpt lat="43.80332" lon="3.58215">
        <ele>269.3</ele>
        <time>2019-12-15T14:14:48.000Z</time>
      </trkpt>
      <trkpt lat="43.80332" lon="3.58231">
        <ele>269.8</ele>
        <time>2019-12-15T14:15:2.000Z</time>
      </trkpt>
      <trkpt lat="43.80327" lon="3.58238">
        <ele>269.3</ele>
        <time>2019-12-15T14:15:8.000Z</time>
      </trkpt>
      <trkpt lat="43.80328" lon="3.58258">
        <ele>269.3</ele>
        <time>2019-12-15T14:15:20.000Z</time>
      </trkpt>
      <trkpt lat="43.80325" lon="3.58271">
        <ele>267.4</ele>
        <time>2019-12-15T14:15:33.000Z</time>
      </trkpt>
      <trkpt lat="43.80327" lon="3.58274">
        <ele>266.9</ele>
        <time>2019-12-15T14:15:36.000Z</time>
      </trkpt>
      <trkpt lat="43.80329" lon="3.58276">
        <ele>266.4</ele>
        <time>2019-12-15T14:15:38.000Z</time>
      </trkpt>
      <trkpt lat="43.80332" lon="3.58281">
        <ele>265.5</ele>
        <time>2019-12-15T14:15:43.000Z</time>
      </trkpt>
      <trkpt lat="43.80338" lon="3.58289">
        <ele>263.1</ele>
        <time>2019-12-15T14:15:54.000Z</time>
      </trkpt>
      <trkpt lat="43.80341" lon="3.58293">
        <ele>262.1</ele>
        <time>2019-12-15T14:15:57.000Z</time>
      </trkpt>
      <trkpt lat="43.80346" lon="3.58302">
        <ele>260.2</ele>
        <time>2019-12-15T14:16:6.000Z</time>
      </trkpt>
      <trkpt lat="43.80351" lon="3.58315">
        <ele>258.7</ele>
        <time>2019-12-15T14:16:16.000Z</time>
      </trkpt>
      <trkpt lat="43.80353" lon="3.58329">
        <ele>257.8</ele>
        <time>2019-12-15T14:16:28.000Z</time>
      </trkpt>
      <trkpt lat="43.80356" lon="3.58346">
        <ele>255.9</ele>
        <time>2019-12-15T14:16:42.000Z</time>
      </trkpt>
      <trkpt lat="43.80359" lon="3.58362">
        <ele>253.4</ele>
        <time>2019-12-15T14:16:55.000Z</time>
      </trkpt>
      <trkpt lat="43.80367" lon="3.58373">
        <ele>252</ele>
        <time>2019-12-15T14:17:7.000Z</time>
      </trkpt>
      <trkpt lat="43.80371" lon="3.58386">
        <ele>251</ele>
        <time>2019-12-15T14:17:17.000Z</time>
      </trkpt>
      <trkpt lat="43.80376" lon="3.58407">
        <ele>249.1</ele>
        <time>2019-12-15T14:17:33.000Z</time>
      </trkpt>
      <trkpt lat="43.80378" lon="3.58426">
        <ele>248.2</ele>
        <time>2019-12-15T14:17:48.000Z</time>
      </trkpt>
      <trkpt lat="43.80381" lon="3.58443">
        <ele>246.7</ele>
        <time>2019-12-15T14:18:0.000Z</time>
      </trkpt>
      <trkpt lat="43.80383" lon="3.58444">
        <ele>246.7</ele>
        <time>2019-12-15T14:18:2.000Z</time>
      </trkpt>
      <trkpt lat="43.80384" lon="3.58447">
        <ele>246.2</ele>
        <time>2019-12-15T14:18:4.000Z</time>
      </trkpt>
      <trkpt lat="43.80387" lon="3.58466">
        <ele>244.3</ele>
        <time>2019-12-15T14:18:17.000Z</time>
      </trkpt>
      <trkpt lat="43.80391" lon="3.58482">
        <ele>243.8</ele>
        <time>2019-12-15T14:18:30.000Z</time>
      </trkpt>
      <trkpt lat="43.80396" lon="3.585">
        <ele>241.9</ele>
        <time>2019-12-15T14:18:46.000Z</time>
      </trkpt>
      <trkpt lat="43.80405" lon="3.5852">
        <ele>241.9</ele>
        <time>2019-12-15T14:19:2.000Z</time>
      </trkpt>
      <trkpt lat="43.80413" lon="3.58534">
        <ele>242.9</ele>
        <time>2019-12-15T14:19:17.000Z</time>
      </trkpt>
      <trkpt lat="43.8042" lon="3.58545">
        <ele>243.8</ele>
        <time>2019-12-15T14:19:30.000Z</time>
      </trkpt>
      <trkpt lat="43.80425" lon="3.58556">
        <ele>245.8</ele>
        <time>2019-12-15T14:19:43.000Z</time>
      </trkpt>
      <trkpt lat="43.80425" lon="3.58558">
        <ele>245.8</ele>
        <time>2019-12-15T14:19:44.000Z</time>
      </trkpt>
      <trkpt lat="43.80435" lon="3.58559">
        <ele>246.2</ele>
        <time>2019-12-15T14:19:57.000Z</time>
      </trkpt>
      <trkpt lat="43.80439" lon="3.58563">
        <ele>247.2</ele>
        <time>2019-12-15T14:20:14.000Z</time>
      </trkpt>
      <trkpt lat="43.80442" lon="3.58563">
        <ele>247.2</ele>
        <time>2019-12-15T14:20:32.000Z</time>
      </trkpt>
      <trkpt lat="43.8044" lon="3.58563">
        <ele>246.7</ele>
        <time>2019-12-15T14:21:3.000Z</time>
      </trkpt>
      <trkpt lat="43.80442" lon="3.5857">
        <ele>247.2</ele>
        <time>2019-12-15T14:21:22.000Z</time>
      </trkpt>
      <trkpt lat="43.80448" lon="3.58581">
        <ele>248.6</ele>
        <time>2019-12-15T14:21:36.000Z</time>
      </trkpt>
      <trkpt lat="43.80452" lon="3.58596">
        <ele>250.1</ele>
        <time>2019-12-15T14:21:52.000Z</time>
      </trkpt>
      <trkpt lat="43.80454" lon="3.5861">
        <ele>251.5</ele>
        <time>2019-12-15T14:22:4.000Z</time>
      </trkpt>
      <trkpt lat="43.80455" lon="3.58629">
        <ele>252</ele>
        <time>2019-12-15T14:22:18.000Z</time>
      </trkpt>
      <trkpt lat="43.80458" lon="3.58645">
        <ele>253.9</ele>
        <time>2019-12-15T14:22:34.000Z</time>
      </trkpt>
      <trkpt lat="43.80463" lon="3.58648">
        <ele>256.3</ele>
        <time>2019-12-15T14:22:49.000Z</time>
      </trkpt>
      <trkpt lat="43.80467" lon="3.58646">
        <ele>258.3</ele>
        <time>2019-12-15T14:23:5.000Z</time>
      </trkpt>
      <trkpt lat="43.80472" lon="3.58641">
        <ele>260.2</ele>
        <time>2019-12-15T14:23:16.000Z</time>
      </trkpt>
      <trkpt lat="43.80476" lon="3.5863">
        <ele>262.1</ele>
        <time>2019-12-15T14:23:29.000Z</time>
      </trkpt>
      <trkpt lat="43.80476" lon="3.58618">
        <ele>263.5</ele>
        <time>2019-12-15T14:23:42.000Z</time>
      </trkpt>
      <trkpt lat="43.80478" lon="3.58602">
        <ele>265.5</ele>
        <time>2019-12-15T14:23:56.000Z</time>
      </trkpt>
      <trkpt lat="43.80482" lon="3.586">
        <ele>266.9</ele>
        <time>2019-12-15T14:24:6.000Z</time>
      </trkpt>
      <trkpt lat="43.80486" lon="3.58609">
        <ele>267.9</ele>
        <time>2019-12-15T14:24:15.000Z</time>
      </trkpt>
      <trkpt lat="43.80488" lon="3.58613">
        <ele>267.4</ele>
        <time>2019-12-15T14:24:20.000Z</time>
      </trkpt>
      <trkpt lat="43.80499" lon="3.58631">
        <ele>269.3</ele>
        <time>2019-12-15T14:24:39.000Z</time>
      </trkpt>
      <trkpt lat="43.80507" lon="3.58645">
        <ele>270.8</ele>
        <time>2019-12-15T14:24:53.000Z</time>
      </trkpt>
      <trkpt lat="43.80515" lon="3.58658">
        <ele>271.2</ele>
        <time>2019-12-15T14:25:8.000Z</time>
      </trkpt>
      <trkpt lat="43.8052" lon="3.58663">
        <ele>271.7</ele>
        <time>2019-12-15T14:25:14.000Z</time>
      </trkpt>
      <trkpt lat="43.80525" lon="3.58668">
        <ele>271.7</ele>
        <time>2019-12-15T14:25:19.000Z</time>
      </trkpt>
      <trkpt lat="43.80528" lon="3.58672">
        <ele>271.7</ele>
        <time>2019-12-15T14:25:23.000Z</time>
      </trkpt>
      <trkpt lat="43.80535" lon="3.5868">
        <ele>271.7</ele>
        <time>2019-12-15T14:25:35.000Z</time>
      </trkpt>
      <trkpt lat="43.80535" lon="3.5868">
        <ele>271.7</ele>
        <time>2019-12-15T14:25:36.000Z</time>
      </trkpt>
      <trkpt lat="43.80543" lon="3.58691">
        <ele>271.7</ele>
        <time>2019-12-15T14:25:46.000Z</time>
      </trkpt>
      <trkpt lat="43.80551" lon="3.58704">
        <ele>272.2</ele>
        <time>2019-12-15T14:25:58.000Z</time>
      </trkpt>
      <trkpt lat="43.80554" lon="3.58712">
        <ele>271.7</ele>
        <time>2019-12-15T14:26:6.000Z</time>
      </trkpt>
      <trkpt lat="43.80555" lon="3.58715">
        <ele>271.2</ele>
        <time>2019-12-15T14:26:8.000Z</time>
      </trkpt>
      <trkpt lat="43.80563" lon="3.58732">
        <ele>269.8</ele>
        <time>2019-12-15T14:26:21.000Z</time>
      </trkpt>
      <trkpt lat="43.80574" lon="3.58751">
        <ele>267.9</ele>
        <time>2019-12-15T14:26:39.000Z</time>
      </trkpt>
      <trkpt lat="43.80581" lon="3.58764">
        <ele>266.4</ele>
        <time>2019-12-15T14:26:54.000Z</time>
      </trkpt>
      <trkpt lat="43.8059" lon="3.58778">
        <ele>265</ele>
        <time>2019-12-15T14:27:8.000Z</time>
      </trkpt>
      <trkpt lat="43.80595" lon="3.58778">
        <ele>264.5</ele>
        <time>2019-12-15T14:27:13.000Z</time>
      </trkpt>
      <trkpt lat="43.806" lon="3.5877">
        <ele>265</ele>
        <time>2019-12-15T14:27:31.000Z</time>
      </trkpt>
      <trkpt lat="43.80614" lon="3.58763">
        <ele>264.5</ele>
        <time>2019-12-15T14:27:46.000Z</time>
      </trkpt>
      <trkpt lat="43.80623" lon="3.58762">
        <ele>263.5</ele>
        <time>2019-12-15T14:27:59.000Z</time>
      </trkpt>
      <trkpt lat="43.80639" lon="3.58748">
        <ele>261.1</ele>
        <time>2019-12-15T14:28:17.000Z</time>
      </trkpt>
      <trkpt lat="43.80643" lon="3.58741">
        <ele>260.6</ele>
        <time>2019-12-15T14:28:31.000Z</time>
      </trkpt>
      <trkpt lat="43.80647" lon="3.58721">
        <ele>258.7</ele>
        <time>2019-12-15T14:28:49.000Z</time>
      </trkpt>
      <trkpt lat="43.80647" lon="3.5872">
        <ele>258.3</ele>
        <time>2019-12-15T14:29:9.000Z</time>
      </trkpt>
      <trkpt lat="43.8065" lon="3.58704">
        <ele>257.8</ele>
        <time>2019-12-15T14:29:22.000Z</time>
      </trkpt>
      <trkpt lat="43.80648" lon="3.58697">
        <ele>257.3</ele>
        <time>2019-12-15T14:29:26.000Z</time>
      </trkpt>
      <trkpt lat="43.80656" lon="3.58687">
        <ele>255.4</ele>
        <time>2019-12-15T14:29:41.000Z</time>
      </trkpt>
      <trkpt lat="43.80659" lon="3.58691">
        <ele>255.4</ele>
        <time>2019-12-15T14:29:45.000Z</time>
      </trkpt>
      <trkpt lat="43.80661" lon="3.58695">
        <ele>254.9</ele>
        <time>2019-12-15T14:29:48.000Z</time>
      </trkpt>
      <trkpt lat="43.80665" lon="3.58716">
        <ele>253</ele>
        <time>2019-12-15T14:30:2.000Z</time>
      </trkpt>
      <trkpt lat="43.80662" lon="3.58743">
        <ele>250.6</ele>
        <time>2019-12-15T14:30:21.000Z</time>
      </trkpt>
      <trkpt lat="43.80658" lon="3.58766">
        <ele>248.6</ele>
        <time>2019-12-15T14:30:37.000Z</time>
      </trkpt>
      <trkpt lat="43.80661" lon="3.58767">
        <ele>248.2</ele>
        <time>2019-12-15T14:30:40.000Z</time>
      </trkpt>
      <trkpt lat="43.80664" lon="3.58759">
        <ele>247.7</ele>
        <time>2019-12-15T14:30:55.000Z</time>
      </trkpt>
      <trkpt lat="43.80665" lon="3.58759">
        <ele>247.7</ele>
        <time>2019-12-15T14:31:7.000Z</time>
      </trkpt>
      <trkpt lat="43.80668" lon="3.58756">
        <ele>247.2</ele>
        <time>2019-12-15T14:31:12.000Z</time>
      </trkpt>
      <trkpt lat="43.80674" lon="3.58745">
        <ele>246.2</ele>
        <time>2019-12-15T14:31:21.000Z</time>
      </trkpt>
      <trkpt lat="43.80676" lon="3.58748">
        <ele>245.3</ele>
        <time>2019-12-15T14:31:28.000Z</time>
      </trkpt>
      <trkpt lat="43.80674" lon="3.5875">
        <ele>244.3</ele>
        <time>2019-12-15T14:31:30.000Z</time>
      </trkpt>
      <trkpt lat="43.80673" lon="3.58759">
        <ele>241.9</ele>
        <time>2019-12-15T14:31:42.000Z</time>
      </trkpt>
      <trkpt lat="43.8068" lon="3.58751">
        <ele>240</ele>
        <time>2019-12-15T14:31:49.000Z</time>
      </trkpt>
      <trkpt lat="43.8069" lon="3.58747">
        <ele>238.1</ele>
        <time>2019-12-15T14:32:2.000Z</time>
      </trkpt>
      <trkpt lat="43.80693" lon="3.58744">
        <ele>236.6</ele>
        <time>2019-12-15T14:32:7.000Z</time>
      </trkpt>
      <trkpt lat="43.80697" lon="3.58741">
        <ele>235.2</ele>
        <time>2019-12-15T14:32:13.000Z</time>
      </trkpt>
      <trkpt lat="43.80705" lon="3.5873">
        <ele>232.3</ele>
        <time>2019-12-15T14:32:25.000Z</time>
      </trkpt>
      <trkpt lat="43.80708" lon="3.58729">
        <ele>230.9</ele>
        <time>2019-12-15T14:32:31.000Z</time>
      </trkpt>
      <trkpt lat="43.80712" lon="3.58728">
        <ele>230.9</ele>
        <time>2019-12-15T14:32:41.000Z</time>
      </trkpt>
      <trkpt lat="43.80719" lon="3.58726">
        <ele>228.9</ele>
        <time>2019-12-15T14:32:50.000Z</time>
      </trkpt>
      <trkpt lat="43.80726" lon="3.58727">
        <ele>228</ele>
        <time>2019-12-15T14:32:58.000Z</time>
      </trkpt>
      <trkpt lat="43.80733" lon="3.58728">
        <ele>227.5</ele>
        <time>2019-12-15T14:33:3.000Z</time>
      </trkpt>
      <trkpt lat="43.80744" lon="3.58723">
        <ele>224.6</ele>
        <time>2019-12-15T14:33:17.000Z</time>
      </trkpt>
      <trkpt lat="43.80762" lon="3.58716">
        <ele>222.7</ele>
        <time>2019-12-15T14:33:34.000Z</time>
      </trkpt>
      <trkpt lat="43.80771" lon="3.58713">
        <ele>220.8</ele>
        <time>2019-12-15T14:33:49.000Z</time>
      </trkpt>
      <trkpt lat="43.80772" lon="3.58713">
        <ele>220.8</ele>
        <time>2019-12-15T14:33:50.000Z</time>
      </trkpt>
      <trkpt lat="43.80788" lon="3.58706">
        <ele>217.4</ele>
        <time>2019-12-15T14:34:7.000Z</time>
      </trkpt>
      <trkpt lat="43.80798" lon="3.58702">
        <ele>215.9</ele>
        <time>2019-12-15T14:34:22.000Z</time>
      </trkpt>
      <trkpt lat="43.80806" lon="3.58697">
        <ele>213.1</ele>
        <time>2019-12-15T14:34:34.000Z</time>
      </trkpt>
      <trkpt lat="43.8082" lon="3.58693">
        <ele>210.7</ele>
        <time>2019-12-15T14:34:49.000Z</time>
      </trkpt>
      <trkpt lat="43.80827" lon="3.58693">
        <ele>209.7</ele>
        <time>2019-12-15T14:34:57.000Z</time>
      </trkpt>
      <trkpt lat="43.80831" lon="3.58693">
        <ele>208.7</ele>
        <time>2019-12-15T14:35:12.000Z</time>
      </trkpt>
      <trkpt lat="43.80833" lon="3.58691">
        <ele>209.2</ele>
        <time>2019-12-15T14:35:33.000Z</time>
      </trkpt>
      <trkpt lat="43.80835" lon="3.58692">
        <ele>208.7</ele>
        <time>2019-12-15T14:35:55.000Z</time>
      </trkpt>
      <trkpt lat="43.80841" lon="3.58687">
        <ele>208.3</ele>
        <time>2019-12-15T14:36:8.000Z</time>
      </trkpt>
      <trkpt lat="43.80855" lon="3.58684">
        <ele>206.3</ele>
        <time>2019-12-15T14:36:21.000Z</time>
      </trkpt>
      <trkpt lat="43.80857" lon="3.58683">
        <ele>205.9</ele>
        <time>2019-12-15T14:36:23.000Z</time>
      </trkpt>
      <trkpt lat="43.80874" lon="3.58674">
        <ele>204.9</ele>
        <time>2019-12-15T14:36:38.000Z</time>
      </trkpt>
      <trkpt lat="43.80888" lon="3.58663">
        <ele>202.5</ele>
        <time>2019-12-15T14:36:54.000Z</time>
      </trkpt>
      <trkpt lat="43.80899" lon="3.58655">
        <ele>200.6</ele>
        <time>2019-12-15T14:37:7.000Z</time>
      </trkpt>
      <trkpt lat="43.80908" lon="3.58639">
        <ele>197.7</ele>
        <time>2019-12-15T14:37:20.000Z</time>
      </trkpt>
      <trkpt lat="43.80917" lon="3.58628">
        <ele>194.3</ele>
        <time>2019-12-15T14:37:32.000Z</time>
      </trkpt>
      <trkpt lat="43.8092" lon="3.58624">
        <ele>193.8</ele>
        <time>2019-12-15T14:37:36.000Z</time>
      </trkpt>
      <trkpt lat="43.80932" lon="3.58615">
        <ele>191.9</ele>
        <time>2019-12-15T14:37:52.000Z</time>
      </trkpt>
      <trkpt lat="43.80947" lon="3.58612">
        <ele>190.5</ele>
        <time>2019-12-15T14:38:5.000Z</time>
      </trkpt>
      <trkpt lat="43.80963" lon="3.58606">
        <ele>188.6</ele>
        <time>2019-12-15T14:38:20.000Z</time>
      </trkpt>
      <trkpt lat="43.8098" lon="3.58601">
        <ele>186.1</ele>
        <time>2019-12-15T14:38:36.000Z</time>
      </trkpt>
      <trkpt lat="43.80988" lon="3.586">
        <ele>185.2</ele>
        <time>2019-12-15T14:38:44.000Z</time>
      </trkpt>
      <trkpt lat="43.80999" lon="3.58607">
        <ele>183.8</ele>
        <time>2019-12-15T14:38:55.000Z</time>
      </trkpt>
      <trkpt lat="43.81009" lon="3.58614">
        <ele>182.8</ele>
        <time>2019-12-15T14:39:6.000Z</time>
      </trkpt>
      <trkpt lat="43.81022" lon="3.58615">
        <ele>181.4</ele>
        <time>2019-12-15T14:39:19.000Z</time>
      </trkpt>
      <trkpt lat="43.8103" lon="3.58625">
        <ele>181.4</ele>
        <time>2019-12-15T14:39:33.000Z</time>
      </trkpt>
      <trkpt lat="43.81033" lon="3.58623">
        <ele>181.4</ele>
        <time>2019-12-15T14:39:38.000Z</time>
      </trkpt>
      <trkpt lat="43.8104" lon="3.58618">
        <ele>181.4</ele>
        <time>2019-12-15T14:39:46.000Z</time>
      </trkpt>
      <trkpt lat="43.81052" lon="3.5861">
        <ele>181.4</ele>
        <time>2019-12-15T14:39:59.000Z</time>
      </trkpt>
      <trkpt lat="43.81059" lon="3.58609">
        <ele>181.8</ele>
        <time>2019-12-15T14:40:7.000Z</time>
      </trkpt>
      <trkpt lat="43.81072" lon="3.58611">
        <ele>181.4</ele>
        <time>2019-12-15T14:40:21.000Z</time>
      </trkpt>
      <trkpt lat="43.81084" lon="3.58609">
        <ele>182.3</ele>
        <time>2019-12-15T14:40:35.000Z</time>
      </trkpt>
      <trkpt lat="43.81087" lon="3.58612">
        <ele>183.8</ele>
        <time>2019-12-15T14:40:41.000Z</time>
      </trkpt>
      <trkpt lat="43.81094" lon="3.58623">
        <ele>185.7</ele>
        <time>2019-12-15T14:40:54.000Z</time>
      </trkpt>
      <trkpt lat="43.81103" lon="3.58631">
        <ele>187.1</ele>
        <time>2019-12-15T14:41:6.000Z</time>
      </trkpt>
      <trkpt lat="43.81117" lon="3.58637">
        <ele>189</ele>
        <time>2019-12-15T14:41:21.000Z</time>
      </trkpt>
      <trkpt lat="43.8113" lon="3.58643">
        <ele>190.5</ele>
        <time>2019-12-15T14:41:35.000Z</time>
      </trkpt>
      <trkpt lat="43.81141" lon="3.58638">
        <ele>191.9</ele>
        <time>2019-12-15T14:41:47.000Z</time>
      </trkpt>
      <trkpt lat="43.8115" lon="3.58635">
        <ele>193.4</ele>
        <time>2019-12-15T14:42:0.000Z</time>
      </trkpt>
      <trkpt lat="43.8116" lon="3.58638">
        <ele>194.3</ele>
        <time>2019-12-15T14:42:15.000Z</time>
      </trkpt>
      <trkpt lat="43.81172" lon="3.5865">
        <ele>196.3</ele>
        <time>2019-12-15T14:42:33.000Z</time>
      </trkpt>
      <trkpt lat="43.81179" lon="3.58658">
        <ele>197.2</ele>
        <time>2019-12-15T14:42:44.000Z</time>
      </trkpt>
      <trkpt lat="43.8119" lon="3.58666">
        <ele>198.6</ele>
        <time>2019-12-15T14:43:0.000Z</time>
      </trkpt>
      <trkpt lat="43.81198" lon="3.58673">
        <ele>199.1</ele>
        <time>2019-12-15T14:43:14.000Z</time>
      </trkpt>
      <trkpt lat="43.81199" lon="3.58673">
        <ele>199.6</ele>
        <time>2019-12-15T14:43:31.000Z</time>
      </trkpt>
      <trkpt lat="43.81196" lon="3.58669">
        <ele>199.1</ele>
        <time>2019-12-15T14:43:45.000Z</time>
      </trkpt>
      <trkpt lat="43.81199" lon="3.58668">
        <ele>199.1</ele>
        <time>2019-12-15T14:44:2.000Z</time>
      </trkpt>
      <trkpt lat="43.81206" lon="3.58683">
        <ele>199.6</ele>
        <time>2019-12-15T14:44:17.000Z</time>
      </trkpt>
      <trkpt lat="43.81215" lon="3.58687">
        <ele>201.1</ele>
        <time>2019-12-15T14:44:31.000Z</time>
      </trkpt>
      <trkpt lat="43.81223" lon="3.58696">
        <ele>203</ele>
        <time>2019-12-15T14:44:49.000Z</time>
      </trkpt>
      <trkpt lat="43.81234" lon="3.58708">
        <ele>205.9</ele>
        <time>2019-12-15T14:45:5.000Z</time>
      </trkpt>
      <trkpt lat="43.81246" lon="3.58718">
        <ele>207.3</ele>
        <time>2019-12-15T14:45:21.000Z</time>
      </trkpt>
      <trkpt lat="43.81256" lon="3.58725">
        <ele>208.7</ele>
        <time>2019-12-15T14:45:36.000Z</time>
      </trkpt>
      <trkpt lat="43.81267" lon="3.58727">
        <ele>209.7</ele>
        <time>2019-12-15T14:45:47.000Z</time>
      </trkpt>
      <trkpt lat="43.81273" lon="3.58731">
        <ele>210.2</ele>
        <time>2019-12-15T14:45:58.000Z</time>
      </trkpt>
      <trkpt lat="43.81275" lon="3.58732">
        <ele>210.2</ele>
        <time>2019-12-15T14:46:1.000Z</time>
      </trkpt>
      <trkpt lat="43.81282" lon="3.58738">
        <ele>211.1</ele>
        <time>2019-12-15T14:46:10.000Z</time>
      </trkpt>
      <trkpt lat="43.8129" lon="3.58747">
        <ele>212.6</ele>
        <time>2019-12-15T14:46:23.000Z</time>
      </trkpt>
      <trkpt lat="43.81288" lon="3.58749">
        <ele>212.1</ele>
        <time>2019-12-15T14:46:32.000Z</time>
      </trkpt>
      <trkpt lat="43.81287" lon="3.58751">
        <ele>211.6</ele>
        <time>2019-12-15T14:46:38.000Z</time>
      </trkpt>
      <trkpt lat="43.81282" lon="3.58761">
        <ele>210.7</ele>
        <time>2019-12-15T14:46:48.000Z</time>
      </trkpt>
      <trkpt lat="43.81279" lon="3.5877">
        <ele>209.7</ele>
        <time>2019-12-15T14:46:55.000Z</time>
      </trkpt>
      <trkpt lat="43.81275" lon="3.58787">
        <ele>207.8</ele>
        <time>2019-12-15T14:47:8.000Z</time>
      </trkpt>
      <trkpt lat="43.81263" lon="3.58795">
        <ele>205.9</ele>
        <time>2019-12-15T14:47:18.000Z</time>
      </trkpt>
      <trkpt lat="43.81266" lon="3.58816">
        <ele>204.9</ele>
        <time>2019-12-15T14:47:31.000Z</time>
      </trkpt>
      <trkpt lat="43.81271" lon="3.5883">
        <ele>203</ele>
        <time>2019-12-15T14:47:44.000Z</time>
      </trkpt>
      <trkpt lat="43.81264" lon="3.5884">
        <ele>200.6</ele>
        <time>2019-12-15T14:47:57.000Z</time>
      </trkpt>
      <trkpt lat="43.81261" lon="3.58846">
        <ele>200.6</ele>
        <time>2019-12-15T14:48:14.000Z</time>
      </trkpt>
      <trkpt lat="43.8126" lon="3.58845">
        <ele>200.6</ele>
        <time>2019-12-15T14:48:33.000Z</time>
      </trkpt>
      <trkpt lat="43.81253" lon="3.58854">
        <ele>199.6</ele>
        <time>2019-12-15T14:48:49.000Z</time>
      </trkpt>
      <trkpt lat="43.81244" lon="3.58856">
        <ele>200.1</ele>
        <time>2019-12-15T14:49:5.000Z</time>
      </trkpt>
      <trkpt lat="43.81242" lon="3.58854">
        <ele>200.6</ele>
        <time>2019-12-15T14:49:29.000Z</time>
      </trkpt>
      <trkpt lat="43.81251" lon="3.5886">
        <ele>199.1</ele>
        <time>2019-12-15T14:49:44.000Z</time>
      </trkpt>
      <trkpt lat="43.81252" lon="3.58856">
        <ele>198.6</ele>
        <time>2019-12-15T14:49:59.000Z</time>
      </trkpt>
      <trkpt lat="43.81253" lon="3.58857">
        <ele>199.1</ele>
        <time>2019-12-15T14:50:20.000Z</time>
      </trkpt>
      <trkpt lat="43.81253" lon="3.58855">
        <ele>198.6</ele>
        <time>2019-12-15T14:50:42.000Z</time>
      </trkpt>
      <trkpt lat="43.81254" lon="3.58857">
        <ele>198.6</ele>
        <time>2019-12-15T14:51:1.000Z</time>
      </trkpt>
      <trkpt lat="43.81255" lon="3.58857">
        <ele>199.1</ele>
        <time>2019-12-15T14:51:24.000Z</time>
      </trkpt>
      <trkpt lat="43.81253" lon="3.58856">
        <ele>199.1</ele>
        <time>2019-12-15T14:51:49.000Z</time>
      </trkpt>
      <trkpt lat="43.81255" lon="3.58858">
        <ele>199.1</ele>
        <time>2019-12-15T14:52:13.000Z</time>
      </trkpt>
      <trkpt lat="43.81248" lon="3.58862">
        <ele>199.6</ele>
        <time>2019-12-15T14:52:30.000Z</time>
      </trkpt>
      <trkpt lat="43.81247" lon="3.58864">
        <ele>200.1</ele>
        <time>2019-12-15T14:52:59.000Z</time>
      </trkpt>
      <trkpt lat="43.81242" lon="3.58868">
        <ele>199.1</ele>
        <time>2019-12-15T14:53:15.000Z</time>
      </trkpt>
      <trkpt lat="43.81242" lon="3.5887">
        <ele>197.2</ele>
        <time>2019-12-15T14:53:31.000Z</time>
      </trkpt>
      <trkpt lat="43.81243" lon="3.58865">
        <ele>197.7</ele>
        <time>2019-12-15T14:53:51.000Z</time>
      </trkpt>
      <trkpt lat="43.81243" lon="3.58865">
        <ele>197.7</ele>
        <time>2019-12-15T14:54:15.000Z</time>
      </trkpt>
      <trkpt lat="43.81244" lon="3.58864">
        <ele>197.7</ele>
        <time>2019-12-15T14:54:28.000Z</time>
      </trkpt>
      <trkpt lat="43.81249" lon="3.58858">
        <ele>200.1</ele>
        <time>2019-12-15T14:54:43.000Z</time>
      </trkpt>
      <trkpt lat="43.81249" lon="3.5886">
        <ele>200.1</ele>
        <time>2019-12-15T14:54:57.000Z</time>
      </trkpt>
      <trkpt lat="43.81248" lon="3.58863">
        <ele>200.1</ele>
        <time>2019-12-15T14:55:32.000Z</time>
      </trkpt>
      <trkpt lat="43.81252" lon="3.58857">
        <ele>200.1</ele>
        <time>2019-12-15T14:55:46.000Z</time>
      </trkpt>
      <trkpt lat="43.81251" lon="3.58857">
        <ele>200.6</ele>
        <time>2019-12-15T14:56:17.000Z</time>
      </trkpt>
      <trkpt lat="43.81251" lon="3.58858">
        <ele>200.6</ele>
        <time>2019-12-15T14:56:33.000Z</time>
      </trkpt>
      <trkpt lat="43.8125" lon="3.58859">
        <ele>200.6</ele>
        <time>2019-12-15T14:56:54.000Z</time>
      </trkpt>
      <trkpt lat="43.81252" lon="3.58858">
        <ele>200.6</ele>
        <time>2019-12-15T14:57:26.000Z</time>
      </trkpt>
      <trkpt lat="43.8125" lon="3.58855">
        <ele>200.6</ele>
        <time>2019-12-15T14:57:53.000Z</time>
      </trkpt>
      <trkpt lat="43.81257" lon="3.58853">
        <ele>201.1</ele>
        <time>2019-12-15T15:00:21.000Z</time>
      </trkpt>
      <trkpt lat="43.8126" lon="3.58844">
        <ele>202.5</ele>
        <time>2019-12-15T15:00:43.000Z</time>
      </trkpt>
      <trkpt lat="43.81261" lon="3.58851">
        <ele>202</ele>
        <time>2019-12-15T15:00:57.000Z</time>
      </trkpt>
      <trkpt lat="43.81257" lon="3.58856">
        <ele>200.6</ele>
        <time>2019-12-15T15:01:11.000Z</time>
      </trkpt>
      <trkpt lat="43.81257" lon="3.58871">
        <ele>197.7</ele>
        <time>2019-12-15T15:01:27.000Z</time>
      </trkpt>
      <trkpt lat="43.81258" lon="3.58891">
        <ele>194.3</ele>
        <time>2019-12-15T15:01:47.000Z</time>
      </trkpt>
      <trkpt lat="43.81257" lon="3.58908">
        <ele>191.4</ele>
        <time>2019-12-15T15:02:2.000Z</time>
      </trkpt>
      <trkpt lat="43.81258" lon="3.58921">
        <ele>189.5</ele>
        <time>2019-12-15T15:02:12.000Z</time>
      </trkpt>
      <trkpt lat="43.81266" lon="3.58939">
        <ele>188.1</ele>
        <time>2019-12-15T15:02:28.000Z</time>
      </trkpt>
      <trkpt lat="43.8127" lon="3.58956">
        <ele>186.1</ele>
        <time>2019-12-15T15:02:43.000Z</time>
      </trkpt>
      <trkpt lat="43.81268" lon="3.58973">
        <ele>184.2</ele>
        <time>2019-12-15T15:02:57.000Z</time>
      </trkpt>
      <trkpt lat="43.81268" lon="3.58977">
        <ele>183.8</ele>
        <time>2019-12-15T15:03:1.000Z</time>
      </trkpt>
      <trkpt lat="43.81268" lon="3.58987">
        <ele>182.8</ele>
        <time>2019-12-15T15:03:8.000Z</time>
      </trkpt>
      <trkpt lat="43.8127" lon="3.5901">
        <ele>181.4</ele>
        <time>2019-12-15T15:03:22.000Z</time>
      </trkpt>
      <trkpt lat="43.81269" lon="3.59023">
        <ele>179.9</ele>
        <time>2019-12-15T15:03:32.000Z</time>
      </trkpt>
      <trkpt lat="43.81261" lon="3.59039">
        <ele>178</ele>
        <time>2019-12-15T15:03:47.000Z</time>
      </trkpt>
      <trkpt lat="43.81263" lon="3.59042">
        <ele>178</ele>
        <time>2019-12-15T15:03:50.000Z</time>
      </trkpt>
      <trkpt lat="43.81269" lon="3.59043">
        <ele>177</ele>
        <time>2019-12-15T15:03:57.000Z</time>
      </trkpt>
      <trkpt lat="43.81277" lon="3.59048">
        <ele>176.5</ele>
        <time>2019-12-15T15:04:6.000Z</time>
      </trkpt>
      <trkpt lat="43.81286" lon="3.59054">
        <ele>175.6</ele>
        <time>2019-12-15T15:04:15.000Z</time>
      </trkpt>
      <trkpt lat="43.81292" lon="3.59056">
        <ele>175.6</ele>
        <time>2019-12-15T15:04:20.000Z</time>
      </trkpt>
      <trkpt lat="43.81308" lon="3.5905">
        <ele>173.7</ele>
        <time>2019-12-15T15:04:33.000Z</time>
      </trkpt>
      <trkpt lat="43.81312" lon="3.59049">
        <ele>173.2</ele>
        <time>2019-12-15T15:04:40.000Z</time>
      </trkpt>
      <trkpt lat="43.81323" lon="3.59052">
        <ele>172.7</ele>
        <time>2019-12-15T15:04:51.000Z</time>
      </trkpt>
      <trkpt lat="43.81334" lon="3.59061">
        <ele>172.2</ele>
        <time>2019-12-15T15:05:1.000Z</time>
      </trkpt>
      <trkpt lat="43.81343" lon="3.59083">
        <ele>172.2</ele>
        <time>2019-12-15T15:05:17.000Z</time>
      </trkpt>
      <trkpt lat="43.8135" lon="3.59106">
        <ele>172.2</ele>
        <time>2019-12-15T15:05:34.000Z</time>
      </trkpt>
      <trkpt lat="43.81356" lon="3.59123">
        <ele>171.3</ele>
        <time>2019-12-15T15:05:47.000Z</time>
      </trkpt>
      <trkpt lat="43.81364" lon="3.59141">
        <ele>171.3</ele>
        <time>2019-12-15T15:06:0.000Z</time>
      </trkpt>
      <trkpt lat="43.81373" lon="3.59158">
        <ele>171.3</ele>
        <time>2019-12-15T15:06:14.000Z</time>
      </trkpt>
      <trkpt lat="43.81374" lon="3.59159">
        <ele>171.3</ele>
        <time>2019-12-15T15:06:15.000Z</time>
      </trkpt>
      <trkpt lat="43.81388" lon="3.59169">
        <ele>172.2</ele>
        <time>2019-12-15T15:06:31.000Z</time>
      </trkpt>
      <trkpt lat="43.81396" lon="3.59179">
        <ele>173.7</ele>
        <time>2019-12-15T15:06:46.000Z</time>
      </trkpt>
      <trkpt lat="43.81406" lon="3.59193">
        <ele>175.6</ele>
        <time>2019-12-15T15:07:1.000Z</time>
      </trkpt>
      <trkpt lat="43.81408" lon="3.59197">
        <ele>176.1</ele>
        <time>2019-12-15T15:07:5.000Z</time>
      </trkpt>
      <trkpt lat="43.81412" lon="3.59209">
        <ele>176.1</ele>
        <time>2019-12-15T15:07:18.000Z</time>
      </trkpt>
      <trkpt lat="43.8142" lon="3.59221">
        <ele>178</ele>
        <time>2019-12-15T15:07:33.000Z</time>
      </trkpt>
      <trkpt lat="43.81423" lon="3.59228">
        <ele>179.4</ele>
        <time>2019-12-15T15:07:45.000Z</time>
      </trkpt>
      <trkpt lat="43.8143" lon="3.59244">
        <ele>180.4</ele>
        <time>2019-12-15T15:07:59.000Z</time>
      </trkpt>
      <trkpt lat="43.81436" lon="3.59256">
        <ele>181.8</ele>
        <time>2019-12-15T15:08:13.000Z</time>
      </trkpt>
      <trkpt lat="43.81438" lon="3.59267">
        <ele>182.3</ele>
        <time>2019-12-15T15:08:24.000Z</time>
      </trkpt>
      <trkpt lat="43.81443" lon="3.59281">
        <ele>184.2</ele>
        <time>2019-12-15T15:08:38.000Z</time>
      </trkpt>
      <trkpt lat="43.81446" lon="3.59291">
        <ele>186.1</ele>
        <time>2019-12-15T15:08:50.000Z</time>
      </trkpt>
      <trkpt lat="43.81451" lon="3.59307">
        <ele>187.6</ele>
        <time>2019-12-15T15:09:5.000Z</time>
      </trkpt>
      <trkpt lat="43.81452" lon="3.5932">
        <ele>190</ele>
        <time>2019-12-15T15:09:19.000Z</time>
      </trkpt>
      <trkpt lat="43.81455" lon="3.5933">
        <ele>191.4</ele>
        <time>2019-12-15T15:09:31.000Z</time>
      </trkpt>
      <trkpt lat="43.81455" lon="3.59343">
        <ele>193.4</ele>
        <time>2019-12-15T15:09:44.000Z</time>
      </trkpt>
      <trkpt lat="43.81455" lon="3.59349">
        <ele>193.4</ele>
        <time>2019-12-15T15:09:48.000Z</time>
      </trkpt>
      <trkpt lat="43.81454" lon="3.59364">
        <ele>194.8</ele>
        <time>2019-12-15T15:10:2.000Z</time>
      </trkpt>
      <trkpt lat="43.81452" lon="3.59375">
        <ele>196.7</ele>
        <time>2019-12-15T15:10:16.000Z</time>
      </trkpt>
      <trkpt lat="43.81446" lon="3.59386">
        <ele>199.6</ele>
        <time>2019-12-15T15:10:30.000Z</time>
      </trkpt>
      <trkpt lat="43.81439" lon="3.59399">
        <ele>201.5</ele>
        <time>2019-12-15T15:10:43.000Z</time>
      </trkpt>
      <trkpt lat="43.81433" lon="3.5941">
        <ele>203</ele>
        <time>2019-12-15T15:10:57.000Z</time>
      </trkpt>
      <trkpt lat="43.8143" lon="3.59424">
        <ele>203.9</ele>
        <time>2019-12-15T15:11:9.000Z</time>
      </trkpt>
      <trkpt lat="43.81431" lon="3.59441">
        <ele>204.9</ele>
        <time>2019-12-15T15:11:22.000Z</time>
      </trkpt>
      <trkpt lat="43.81436" lon="3.59454">
        <ele>206.3</ele>
        <time>2019-12-15T15:11:35.000Z</time>
      </trkpt>
      <trkpt lat="43.81442" lon="3.59467">
        <ele>208.3</ele>
        <time>2019-12-15T15:11:46.000Z</time>
      </trkpt>
      <trkpt lat="43.8145" lon="3.59481">
        <ele>208.7</ele>
        <time>2019-12-15T15:11:58.000Z</time>
      </trkpt>
      <trkpt lat="43.8146" lon="3.59486">
        <ele>210.2</ele>
        <time>2019-12-15T15:12:11.000Z</time>
      </trkpt>
      <trkpt lat="43.81469" lon="3.59491">
        <ele>212.6</ele>
        <time>2019-12-15T15:12:24.000Z</time>
      </trkpt>
      <trkpt lat="43.81473" lon="3.59497">
        <ele>214.5</ele>
        <time>2019-12-15T15:12:32.000Z</time>
      </trkpt>
      <trkpt lat="43.81481" lon="3.59514">
        <ele>214.5</ele>
        <time>2019-12-15T15:12:44.000Z</time>
      </trkpt>
      <trkpt lat="43.81486" lon="3.59521">
        <ele>213.1</ele>
        <time>2019-12-15T15:12:54.000Z</time>
      </trkpt>
      <trkpt lat="43.81488" lon="3.59529">
        <ele>212.6</ele>
        <time>2019-12-15T15:12:59.000Z</time>
      </trkpt>
      <trkpt lat="43.81494" lon="3.59541">
        <ele>211.1</ele>
        <time>2019-12-15T15:13:9.000Z</time>
      </trkpt>
      <trkpt lat="43.81497" lon="3.59548">
        <ele>210.7</ele>
        <time>2019-12-15T15:13:15.000Z</time>
      </trkpt>
      <trkpt lat="43.81501" lon="3.5956">
        <ele>209.7</ele>
        <time>2019-12-15T15:13:26.000Z</time>
      </trkpt>
      <trkpt lat="43.81504" lon="3.59565">
        <ele>209.7</ele>
        <time>2019-12-15T15:13:29.000Z</time>
      </trkpt>
      <trkpt lat="43.81513" lon="3.5958">
        <ele>209.7</ele>
        <time>2019-12-15T15:13:40.000Z</time>
      </trkpt>
      <trkpt lat="43.81524" lon="3.59592">
        <ele>209.7</ele>
        <time>2019-12-15T15:13:51.000Z</time>
      </trkpt>
      <trkpt lat="43.81525" lon="3.59594">
        <ele>209.2</ele>
        <time>2019-12-15T15:13:54.000Z</time>
      </trkpt>
      <trkpt lat="43.8153" lon="3.596">
        <ele>209.2</ele>
        <time>2019-12-15T15:13:58.000Z</time>
      </trkpt>
      <trkpt lat="43.81539" lon="3.59612">
        <ele>208.3</ele>
        <time>2019-12-15T15:14:10.000Z</time>
      </trkpt>
      <trkpt lat="43.81543" lon="3.59615">
        <ele>209.2</ele>
        <time>2019-12-15T15:14:15.000Z</time>
      </trkpt>
      <trkpt lat="43.81555" lon="3.59632">
        <ele>208.7</ele>
        <time>2019-12-15T15:14:28.000Z</time>
      </trkpt>
      <trkpt lat="43.8156" lon="3.59636">
        <ele>209.2</ele>
        <time>2019-12-15T15:14:34.000Z</time>
      </trkpt>
      <trkpt lat="43.81566" lon="3.59654">
        <ele>210.2</ele>
        <time>2019-12-15T15:14:45.000Z</time>
      </trkpt>
      <trkpt lat="43.81569" lon="3.5967">
        <ele>210.7</ele>
        <time>2019-12-15T15:14:57.000Z</time>
      </trkpt>
      <trkpt lat="43.81573" lon="3.59691">
        <ele>211.6</ele>
        <time>2019-12-15T15:15:12.000Z</time>
      </trkpt>
      <trkpt lat="43.81574" lon="3.59709">
        <ele>212.6</ele>
        <time>2019-12-15T15:15:24.000Z</time>
      </trkpt>
      <trkpt lat="43.81573" lon="3.59712">
        <ele>212.1</ele>
        <time>2019-12-15T15:15:27.000Z</time>
      </trkpt>
      <trkpt lat="43.81572" lon="3.59716">
        <ele>212.1</ele>
        <time>2019-12-15T15:15:30.000Z</time>
      </trkpt>
      <trkpt lat="43.81573" lon="3.59731">
        <ele>211.6</ele>
        <time>2019-12-15T15:15:43.000Z</time>
      </trkpt>
      <trkpt lat="43.81587" lon="3.59734">
        <ele>212.6</ele>
        <time>2019-12-15T15:16:2.000Z</time>
      </trkpt>
      <trkpt lat="43.816" lon="3.59742">
        <ele>210.7</ele>
        <time>2019-12-15T15:16:24.000Z</time>
      </trkpt>
      <trkpt lat="43.81601" lon="3.59743">
        <ele>210.7</ele>
        <time>2019-12-15T15:16:25.000Z</time>
      </trkpt>
      <trkpt lat="43.81608" lon="3.59746">
        <ele>210.2</ele>
        <time>2019-12-15T15:16:35.000Z</time>
      </trkpt>
      <trkpt lat="43.81608" lon="3.59744">
        <ele>209.7</ele>
        <time>2019-12-15T15:16:40.000Z</time>
      </trkpt>
      <trkpt lat="43.81612" lon="3.5975">
        <ele>209.7</ele>
        <time>2019-12-15T15:16:52.000Z</time>
      </trkpt>
      <trkpt lat="43.81618" lon="3.59755">
        <ele>208.7</ele>
        <time>2019-12-15T15:17:2.000Z</time>
      </trkpt>
      <trkpt lat="43.81639" lon="3.59763">
        <ele>207.8</ele>
        <time>2019-12-15T15:17:21.000Z</time>
      </trkpt>
      <trkpt lat="43.81649" lon="3.59767">
        <ele>207.3</ele>
        <time>2019-12-15T15:17:31.000Z</time>
      </trkpt>
      <trkpt lat="43.81653" lon="3.5977">
        <ele>206.8</ele>
        <time>2019-12-15T15:17:37.000Z</time>
      </trkpt>
      <trkpt lat="43.81664" lon="3.59791">
        <ele>206.3</ele>
        <time>2019-12-15T15:17:52.000Z</time>
      </trkpt>
      <trkpt lat="43.81675" lon="3.5981">
        <ele>205.9</ele>
        <time>2019-12-15T15:18:8.000Z</time>
      </trkpt>
      <trkpt lat="43.81685" lon="3.59831">
        <ele>204.9</ele>
        <time>2019-12-15T15:18:23.000Z</time>
      </trkpt>
      <trkpt lat="43.81693" lon="3.5984">
        <ele>204.9</ele>
        <time>2019-12-15T15:18:33.000Z</time>
      </trkpt>
      <trkpt lat="43.81705" lon="3.59853">
        <ele>203.9</ele>
        <time>2019-12-15T15:18:45.000Z</time>
      </trkpt>
      <trkpt lat="43.81716" lon="3.59862">
        <ele>204.4</ele>
        <time>2019-12-15T15:18:56.000Z</time>
      </trkpt>
      <trkpt lat="43.81727" lon="3.59871">
        <ele>203.9</ele>
        <time>2019-12-15T15:19:7.000Z</time>
      </trkpt>
      <trkpt lat="43.81744" lon="3.59889">
        <ele>201.5</ele>
        <time>2019-12-15T15:19:26.000Z</time>
      </trkpt>
      <trkpt lat="43.81755" lon="3.59913">
        <ele>199.1</ele>
        <time>2019-12-15T15:19:44.000Z</time>
      </trkpt>
      <trkpt lat="43.81763" lon="3.59942">
        <ele>197.7</ele>
        <time>2019-12-15T15:20:3.000Z</time>
      </trkpt>
      <trkpt lat="43.8177" lon="3.59958">
        <ele>197.2</ele>
        <time>2019-12-15T15:20:14.000Z</time>
      </trkpt>
      <trkpt lat="43.81778" lon="3.59974">
        <ele>197.2</ele>
        <time>2019-12-15T15:20:26.000Z</time>
      </trkpt>
      <trkpt lat="43.81784" lon="3.59987">
        <ele>197.7</ele>
        <time>2019-12-15T15:20:36.000Z</time>
      </trkpt>
      <trkpt lat="43.81789" lon="3.59997">
        <ele>198.2</ele>
        <time>2019-12-15T15:20:45.000Z</time>
      </trkpt>
      <trkpt lat="43.81793" lon="3.60007">
        <ele>198.2</ele>
        <time>2019-12-15T15:20:53.000Z</time>
      </trkpt>
      <trkpt lat="43.81796" lon="3.60015">
        <ele>198.6</ele>
        <time>2019-12-15T15:20:59.000Z</time>
      </trkpt>
      <trkpt lat="43.81806" lon="3.6003">
        <ele>199.6</ele>
        <time>2019-12-15T15:21:12.000Z</time>
      </trkpt>
      <trkpt lat="43.81815" lon="3.60037">
        <ele>199.6</ele>
        <time>2019-12-15T15:21:22.000Z</time>
      </trkpt>
      <trkpt lat="43.81826" lon="3.60042">
        <ele>200.6</ele>
        <time>2019-12-15T15:21:34.000Z</time>
      </trkpt>
      <trkpt lat="43.81837" lon="3.60045">
        <ele>201.5</ele>
        <time>2019-12-15T15:21:47.000Z</time>
      </trkpt>
      <trkpt lat="43.81848" lon="3.60048">
        <ele>202.5</ele>
        <time>2019-12-15T15:21:59.000Z</time>
      </trkpt>
      <trkpt lat="43.8186" lon="3.60051">
        <ele>204.4</ele>
        <time>2019-12-15T15:22:11.000Z</time>
      </trkpt>
      <trkpt lat="43.81872" lon="3.60053">
        <ele>205.9</ele>
        <time>2019-12-15T15:22:25.000Z</time>
      </trkpt>
      <trkpt lat="43.81884" lon="3.60058">
        <ele>207.8</ele>
        <time>2019-12-15T15:22:39.000Z</time>
      </trkpt>
      <trkpt lat="43.81887" lon="3.6006">
        <ele>208.3</ele>
        <time>2019-12-15T15:22:43.000Z</time>
      </trkpt>
      <trkpt lat="43.81895" lon="3.60073">
        <ele>209.2</ele>
        <time>2019-12-15T15:22:57.000Z</time>
      </trkpt>
      <trkpt lat="43.81898" lon="3.60086">
        <ele>210.2</ele>
        <time>2019-12-15T15:23:7.000Z</time>
      </trkpt>
      <trkpt lat="43.81902" lon="3.60101">
        <ele>210.7</ele>
        <time>2019-12-15T15:23:18.000Z</time>
      </trkpt>
      <trkpt lat="43.81904" lon="3.60109">
        <ele>211.1</ele>
        <time>2019-12-15T15:23:24.000Z</time>
      </trkpt>
      <trkpt lat="43.81905" lon="3.60114">
        <ele>211.1</ele>
        <time>2019-12-15T15:23:27.000Z</time>
      </trkpt>
      <trkpt lat="43.81908" lon="3.6013">
        <ele>212.1</ele>
        <time>2019-12-15T15:23:39.000Z</time>
      </trkpt>
      <trkpt lat="43.81909" lon="3.60136">
        <ele>212.1</ele>
        <time>2019-12-15T15:23:44.000Z</time>
      </trkpt>
      <trkpt lat="43.8191" lon="3.60142">
        <ele>212.6</ele>
        <time>2019-12-15T15:23:48.000Z</time>
      </trkpt>
      <trkpt lat="43.81913" lon="3.60161">
        <ele>213.1</ele>
        <time>2019-12-15T15:24:0.000Z</time>
      </trkpt>
      <trkpt lat="43.81917" lon="3.60177">
        <ele>212.6</ele>
        <time>2019-12-15T15:24:12.000Z</time>
      </trkpt>
      <trkpt lat="43.8192" lon="3.60195">
        <ele>213.1</ele>
        <time>2019-12-15T15:24:23.000Z</time>
      </trkpt>
      <trkpt lat="43.81924" lon="3.60213">
        <ele>213.1</ele>
        <time>2019-12-15T15:24:35.000Z</time>
      </trkpt>
      <trkpt lat="43.81928" lon="3.60229">
        <ele>213.6</ele>
        <time>2019-12-15T15:24:46.000Z</time>
      </trkpt>
      <trkpt lat="43.81933" lon="3.60249">
        <ele>213.1</ele>
        <time>2019-12-15T15:24:59.000Z</time>
      </trkpt>
      <trkpt lat="43.81937" lon="3.60266">
        <ele>213.1</ele>
        <time>2019-12-15T15:25:11.000Z</time>
      </trkpt>
      <trkpt lat="43.81942" lon="3.60285">
        <ele>212.6</ele>
        <time>2019-12-15T15:25:24.000Z</time>
      </trkpt>
      <trkpt lat="43.81945" lon="3.60306">
        <ele>211.1</ele>
        <time>2019-12-15T15:25:38.000Z</time>
      </trkpt>
      <trkpt lat="43.81949" lon="3.60331">
        <ele>209.7</ele>
        <time>2019-12-15T15:25:52.000Z</time>
      </trkpt>
      <trkpt lat="43.81953" lon="3.60351">
        <ele>208.7</ele>
        <time>2019-12-15T15:26:4.000Z</time>
      </trkpt>
      <trkpt lat="43.81955" lon="3.60358">
        <ele>207.8</ele>
        <time>2019-12-15T15:26:11.000Z</time>
      </trkpt>
      <trkpt lat="43.81956" lon="3.60368">
        <ele>207.8</ele>
        <time>2019-12-15T15:26:16.000Z</time>
      </trkpt>
      <trkpt lat="43.81957" lon="3.60373">
        <ele>207.3</ele>
        <time>2019-12-15T15:26:21.000Z</time>
      </trkpt>
      <trkpt lat="43.81962" lon="3.60388">
        <ele>206.3</ele>
        <time>2019-12-15T15:26:33.000Z</time>
      </trkpt>
      <trkpt lat="43.81973" lon="3.60403">
        <ele>205.4</ele>
        <time>2019-12-15T15:26:46.000Z</time>
      </trkpt>
      <trkpt lat="43.81983" lon="3.6041">
        <ele>204.4</ele>
        <time>2019-12-15T15:26:56.000Z</time>
      </trkpt>
      <trkpt lat="43.81996" lon="3.60418">
        <ele>203.5</ele>
        <time>2019-12-15T15:27:9.000Z</time>
      </trkpt>
      <trkpt lat="43.8201" lon="3.60427">
        <ele>202</ele>
        <time>2019-12-15T15:27:22.000Z</time>
      </trkpt>
      <trkpt lat="43.82015" lon="3.60429">
        <ele>202</ele>
        <time>2019-12-15T15:27:28.000Z</time>
      </trkpt>
      <trkpt lat="43.82027" lon="3.60438">
        <ele>201.1</ele>
        <time>2019-12-15T15:27:40.000Z</time>
      </trkpt>
      <trkpt lat="43.82033" lon="3.60447">
        <ele>200.6</ele>
        <time>2019-12-15T15:27:48.000Z</time>
      </trkpt>
      <trkpt lat="43.82033" lon="3.60469">
        <ele>199.6</ele>
        <time>2019-12-15T15:28:3.000Z</time>
      </trkpt>
      <trkpt lat="43.82024" lon="3.60475">
        <ele>199.1</ele>
        <time>2019-12-15T15:28:15.000Z</time>
      </trkpt>
      <trkpt lat="43.82013" lon="3.60474">
        <ele>198.2</ele>
        <time>2019-12-15T15:28:24.000Z</time>
      </trkpt>
      <trkpt lat="43.8201" lon="3.60477">
        <ele>197.2</ele>
        <time>2019-12-15T15:28:27.000Z</time>
      </trkpt>
      <trkpt lat="43.81996" lon="3.60488">
        <ele>196.3</ele>
        <time>2019-12-15T15:28:41.000Z</time>
      </trkpt>
      <trkpt lat="43.81993" lon="3.60492">
        <ele>195.8</ele>
        <time>2019-12-15T15:28:45.000Z</time>
      </trkpt>
      <trkpt lat="43.81981" lon="3.6051">
        <ele>193.4</ele>
        <time>2019-12-15T15:29:0.000Z</time>
      </trkpt>
      <trkpt lat="43.8197" lon="3.60528">
        <ele>191.4</ele>
        <time>2019-12-15T15:29:14.000Z</time>
      </trkpt>
      <trkpt lat="43.81961" lon="3.60548">
        <ele>190</ele>
        <time>2019-12-15T15:29:27.000Z</time>
      </trkpt>
      <trkpt lat="43.81954" lon="3.60566">
        <ele>188.6</ele>
        <time>2019-12-15T15:29:40.000Z</time>
      </trkpt>
      <trkpt lat="43.8195" lon="3.6058">
        <ele>187.1</ele>
        <time>2019-12-15T15:29:50.000Z</time>
      </trkpt>
      <trkpt lat="43.81942" lon="3.60606">
        <ele>184.2</ele>
        <time>2019-12-15T15:30:9.000Z</time>
      </trkpt>
      <trkpt lat="43.81934" lon="3.6063">
        <ele>182.3</ele>
        <time>2019-12-15T15:30:26.000Z</time>
      </trkpt>
      <trkpt lat="43.81928" lon="3.60653">
        <ele>180.9</ele>
        <time>2019-12-15T15:30:41.000Z</time>
      </trkpt>
      <trkpt lat="43.81923" lon="3.60676">
        <ele>179.9</ele>
        <time>2019-12-15T15:30:57.000Z</time>
      </trkpt>
      <trkpt lat="43.81918" lon="3.60695">
        <ele>178.9</ele>
        <time>2019-12-15T15:31:9.000Z</time>
      </trkpt>
      <trkpt lat="43.81914" lon="3.60712">
        <ele>178.9</ele>
        <time>2019-12-15T15:31:20.000Z</time>
      </trkpt>
      <trkpt lat="43.81916" lon="3.60736">
        <ele>179.4</ele>
        <time>2019-12-15T15:31:36.000Z</time>
      </trkpt>
      <trkpt lat="43.81918" lon="3.60758">
        <ele>179.4</ele>
        <time>2019-12-15T15:31:49.000Z</time>
      </trkpt>
      <trkpt lat="43.81918" lon="3.60764">
        <ele>179.9</ele>
        <time>2019-12-15T15:31:54.000Z</time>
      </trkpt>
      <trkpt lat="43.8192" lon="3.60777">
        <ele>180.4</ele>
        <time>2019-12-15T15:32:2.000Z</time>
      </trkpt>
      <trkpt lat="43.81921" lon="3.60789">
        <ele>180.4</ele>
        <time>2019-12-15T15:32:10.000Z</time>
      </trkpt>
      <trkpt lat="43.81925" lon="3.60806">
        <ele>179.9</ele>
        <time>2019-12-15T15:32:20.000Z</time>
      </trkpt>
      <trkpt lat="43.8193" lon="3.60829">
        <ele>180.4</ele>
        <time>2019-12-15T15:32:34.000Z</time>
      </trkpt>
      <trkpt lat="43.81933" lon="3.60845">
        <ele>180.4</ele>
        <time>2019-12-15T15:32:45.000Z</time>
      </trkpt>
      <trkpt lat="43.81936" lon="3.60863">
        <ele>179.4</ele>
        <time>2019-12-15T15:32:58.000Z</time>
      </trkpt>
      <trkpt lat="43.81936" lon="3.60869">
        <ele>178.9</ele>
        <time>2019-12-15T15:33:2.000Z</time>
      </trkpt>
      <trkpt lat="43.81937" lon="3.6088">
        <ele>178.5</ele>
        <time>2019-12-15T15:33:10.000Z</time>
      </trkpt>
      <trkpt lat="43.81939" lon="3.60905">
        <ele>177.5</ele>
        <time>2019-12-15T15:33:25.000Z</time>
      </trkpt>
      <trkpt lat="43.81943" lon="3.60932">
        <ele>176.1</ele>
        <time>2019-12-15T15:33:42.000Z</time>
      </trkpt>
      <trkpt lat="43.81949" lon="3.60951">
        <ele>174.6</ele>
        <time>2019-12-15T15:33:55.000Z</time>
      </trkpt>
      <trkpt lat="43.81956" lon="3.60975">
        <ele>173.2</ele>
        <time>2019-12-15T15:34:11.000Z</time>
      </trkpt>
      <trkpt lat="43.81957" lon="3.60985">
        <ele>173.2</ele>
        <time>2019-12-15T15:34:18.000Z</time>
      </trkpt>
      <trkpt lat="43.81961" lon="3.60998">
        <ele>171.7</ele>
        <time>2019-12-15T15:34:28.000Z</time>
      </trkpt>
      <trkpt lat="43.81961" lon="3.61021">
        <ele>170.8</ele>
        <time>2019-12-15T15:34:41.000Z</time>
      </trkpt>
      <trkpt lat="43.81962" lon="3.61026">
        <ele>170.3</ele>
        <time>2019-12-15T15:34:44.000Z</time>
      </trkpt>
      <trkpt lat="43.81967" lon="3.61047">
        <ele>168.9</ele>
        <time>2019-12-15T15:34:57.000Z</time>
      </trkpt>
      <trkpt lat="43.81967" lon="3.61053">
        <ele>168.9</ele>
        <time>2019-12-15T15:35:0.000Z</time>
      </trkpt>
      <trkpt lat="43.81973" lon="3.61063">
        <ele>168.4</ele>
        <time>2019-12-15T15:35:8.000Z</time>
      </trkpt>
      <trkpt lat="43.81974" lon="3.61067">
        <ele>168.4</ele>
        <time>2019-12-15T15:35:10.000Z</time>
      </trkpt>
      <trkpt lat="43.81982" lon="3.61085">
        <ele>167.9</ele>
        <time>2019-12-15T15:35:24.000Z</time>
      </trkpt>
      <trkpt lat="43.81989" lon="3.61101">
        <ele>166.9</ele>
        <time>2019-12-15T15:35:36.000Z</time>
      </trkpt>
      <trkpt lat="43.81994" lon="3.61115">
        <ele>166</ele>
        <time>2019-12-15T15:35:46.000Z</time>
      </trkpt>
      <trkpt lat="43.81995" lon="3.61116">
        <ele>166.4</ele>
        <time>2019-12-15T15:35:47.000Z</time>
      </trkpt>
      <trkpt lat="43.81996" lon="3.61119">
        <ele>166</ele>
        <time>2019-12-15T15:35:49.000Z</time>
      </trkpt>
      <trkpt lat="43.81996" lon="3.61139">
        <ele>165</ele>
        <time>2019-12-15T15:36:0.000Z</time>
      </trkpt>
      <trkpt lat="43.81994" lon="3.61154">
        <ele>164.5</ele>
        <time>2019-12-15T15:36:7.000Z</time>
      </trkpt>
      <trkpt lat="43.81993" lon="3.61159">
        <ele>164</ele>
        <time>2019-12-15T15:36:12.000Z</time>
      </trkpt>
      <trkpt lat="43.81989" lon="3.61181">
        <ele>163.1</ele>
        <time>2019-12-15T15:36:25.000Z</time>
      </trkpt>
      <trkpt lat="43.81988" lon="3.61186">
        <ele>163.1</ele>
        <time>2019-12-15T15:36:27.000Z</time>
      </trkpt>
      <trkpt lat="43.81988" lon="3.61193">
        <ele>163.1</ele>
        <time>2019-12-15T15:36:33.000Z</time>
      </trkpt>
      <trkpt lat="43.81985" lon="3.61209">
        <ele>163.1</ele>
        <time>2019-12-15T15:36:43.000Z</time>
      </trkpt>
      <trkpt lat="43.81985" lon="3.61217">
        <ele>162.6</ele>
        <time>2019-12-15T15:36:47.000Z</time>
      </trkpt>
      <trkpt lat="43.81985" lon="3.6124">
        <ele>162.1</ele>
        <time>2019-12-15T15:37:1.000Z</time>
      </trkpt>
      <trkpt lat="43.81986" lon="3.61249">
        <ele>161.6</ele>
        <time>2019-12-15T15:37:7.000Z</time>
      </trkpt>
      <trkpt lat="43.81988" lon="3.61273">
        <ele>161.6</ele>
        <time>2019-12-15T15:37:21.000Z</time>
      </trkpt>
      <trkpt lat="43.81989" lon="3.61288">
        <ele>161.6</ele>
        <time>2019-12-15T15:37:31.000Z</time>
      </trkpt>
      <trkpt lat="43.81994" lon="3.61305">
        <ele>161.2</ele>
        <time>2019-12-15T15:37:43.000Z</time>
      </trkpt>
      <trkpt lat="43.81999" lon="3.6132">
        <ele>161.6</ele>
        <time>2019-12-15T15:37:54.000Z</time>
      </trkpt>
      <trkpt lat="43.81999" lon="3.61321">
        <ele>161.6</ele>
        <time>2019-12-15T15:37:56.000Z</time>
      </trkpt>
      <trkpt lat="43.82004" lon="3.61339">
        <ele>162.6</ele>
        <time>2019-12-15T15:38:7.000Z</time>
      </trkpt>
      <trkpt lat="43.82007" lon="3.61346">
        <ele>162.1</ele>
        <time>2019-12-15T15:38:13.000Z</time>
      </trkpt>
      <trkpt lat="43.82011" lon="3.61361">
        <ele>162.1</ele>
        <time>2019-12-15T15:38:22.000Z</time>
      </trkpt>
      <trkpt lat="43.82016" lon="3.61385">
        <ele>162.6</ele>
        <time>2019-12-15T15:38:38.000Z</time>
      </trkpt>
      <trkpt lat="43.8202" lon="3.61401">
        <ele>162.1</ele>
        <time>2019-12-15T15:38:49.000Z</time>
      </trkpt>
      <trkpt lat="43.82026" lon="3.61427">
        <ele>162.6</ele>
        <time>2019-12-15T15:39:7.000Z</time>
      </trkpt>
      <trkpt lat="43.82031" lon="3.61455">
        <ele>162.1</ele>
        <time>2019-12-15T15:39:25.000Z</time>
      </trkpt>
      <trkpt lat="43.82043" lon="3.61479">
        <ele>162.1</ele>
        <time>2019-12-15T15:39:44.000Z</time>
      </trkpt>
      <trkpt lat="43.82061" lon="3.61488">
        <ele>161.2</ele>
        <time>2019-12-15T15:40:1.000Z</time>
      </trkpt>
      <trkpt lat="43.82079" lon="3.61483">
        <ele>161.2</ele>
        <time>2019-12-15T15:40:16.000Z</time>
      </trkpt>
      <trkpt lat="43.82095" lon="3.61472">
        <ele>161.2</ele>
        <time>2019-12-15T15:40:33.000Z</time>
      </trkpt>
      <trkpt lat="43.82108" lon="3.61471">
        <ele>160.2</ele>
        <time>2019-12-15T15:40:45.000Z</time>
      </trkpt>
      <trkpt lat="43.82114" lon="3.61472">
        <ele>160.2</ele>
        <time>2019-12-15T15:40:50.000Z</time>
      </trkpt>
      <trkpt lat="43.82129" lon="3.61477">
        <ele>160.2</ele>
        <time>2019-12-15T15:41:3.000Z</time>
      </trkpt>
      <trkpt lat="43.82144" lon="3.61489">
        <ele>160.7</ele>
        <time>2019-12-15T15:41:18.000Z</time>
      </trkpt>
      <trkpt lat="43.82158" lon="3.61507">
        <ele>160.2</ele>
        <time>2019-12-15T15:41:35.000Z</time>
      </trkpt>
      <trkpt lat="43.82162" lon="3.61517">
        <ele>160.2</ele>
        <time>2019-12-15T15:41:43.000Z</time>
      </trkpt>
      <trkpt lat="43.82167" lon="3.61535">
        <ele>160.2</ele>
        <time>2019-12-15T15:41:56.000Z</time>
      </trkpt>
      <trkpt lat="43.82172" lon="3.61551">
        <ele>159.7</ele>
        <time>2019-12-15T15:42:8.000Z</time>
      </trkpt>
      <trkpt lat="43.82178" lon="3.6156">
        <ele>160.7</ele>
        <time>2019-12-15T15:42:18.000Z</time>
      </trkpt>
      <trkpt lat="43.82181" lon="3.61567">
        <ele>160.7</ele>
        <time>2019-12-15T15:42:24.000Z</time>
      </trkpt>
      <trkpt lat="43.82194" lon="3.6158">
        <ele>160.7</ele>
        <time>2019-12-15T15:42:39.000Z</time>
      </trkpt>
      <trkpt lat="43.82208" lon="3.61598">
        <ele>160.7</ele>
        <time>2019-12-15T15:42:55.000Z</time>
      </trkpt>
      <trkpt lat="43.82219" lon="3.61616">
        <ele>160.2</ele>
        <time>2019-12-15T15:43:11.000Z</time>
      </trkpt>
      <trkpt lat="43.82232" lon="3.61642">
        <ele>160.2</ele>
        <time>2019-12-15T15:43:32.000Z</time>
      </trkpt>
      <trkpt lat="43.82243" lon="3.6167">
        <ele>159.2</ele>
        <time>2019-12-15T15:43:52.000Z</time>
      </trkpt>
      <trkpt lat="43.82257" lon="3.61696">
        <ele>159.2</ele>
        <time>2019-12-15T15:44:12.000Z</time>
      </trkpt>
      <trkpt lat="43.8227" lon="3.61717">
        <ele>158.8</ele>
        <time>2019-12-15T15:44:29.000Z</time>
      </trkpt>
      <trkpt lat="43.8228" lon="3.61737">
        <ele>158.3</ele>
        <time>2019-12-15T15:44:45.000Z</time>
      </trkpt>
      <trkpt lat="43.82296" lon="3.61759">
        <ele>157.8</ele>
        <time>2019-12-15T15:45:4.000Z</time>
      </trkpt>
      <trkpt lat="43.82298" lon="3.61762">
        <ele>158.3</ele>
        <time>2019-12-15T15:45:7.000Z</time>
      </trkpt>
      <trkpt lat="43.82317" lon="3.61779">
        <ele>157.8</ele>
        <time>2019-12-15T15:45:26.000Z</time>
      </trkpt>
      <trkpt lat="43.82333" lon="3.61789">
        <ele>157.8</ele>
        <time>2019-12-15T15:45:44.000Z</time>
      </trkpt>
      <trkpt lat="43.82353" lon="3.61785">
        <ele>157.8</ele>
        <time>2019-12-15T15:46:0.000Z</time>
      </trkpt>
      <trkpt lat="43.8237" lon="3.61777">
        <ele>157.3</ele>
        <time>2019-12-15T15:46:16.000Z</time>
      </trkpt>
      <trkpt lat="43.82391" lon="3.61769">
        <ele>157.3</ele>
        <time>2019-12-15T15:46:35.000Z</time>
      </trkpt>
      <trkpt lat="43.82405" lon="3.61767">
        <ele>157.8</ele>
        <time>2019-12-15T15:46:49.000Z</time>
      </trkpt>
      <trkpt lat="43.82425" lon="3.61762">
        <ele>157.3</ele>
        <time>2019-12-15T15:47:7.000Z</time>
      </trkpt>
      <trkpt lat="43.82444" lon="3.61754">
        <ele>157.8</ele>
        <time>2019-12-15T15:47:27.000Z</time>
      </trkpt>
      <trkpt lat="43.82464" lon="3.61745">
        <ele>157.3</ele>
        <time>2019-12-15T15:47:45.000Z</time>
      </trkpt>
      <trkpt lat="43.82479" lon="3.61742">
        <ele>157.8</ele>
        <time>2019-12-15T15:47:58.000Z</time>
      </trkpt>
      <trkpt lat="43.82503" lon="3.61742">
        <ele>157.8</ele>
        <time>2019-12-15T15:48:17.000Z</time>
      </trkpt>
      <trkpt lat="43.82519" lon="3.6174">
        <ele>158.3</ele>
        <time>2019-12-15T15:48:32.000Z</time>
      </trkpt>
      <trkpt lat="43.82538" lon="3.61745">
        <ele>157.8</ele>
        <time>2019-12-15T15:48:49.000Z</time>
      </trkpt>
      <trkpt lat="43.82559" lon="3.61754">
        <ele>158.3</ele>
        <time>2019-12-15T15:49:9.000Z</time>
      </trkpt>
      <trkpt lat="43.82585" lon="3.61759">
        <ele>159.2</ele>
        <time>2019-12-15T15:49:34.000Z</time>
      </trkpt>
      <trkpt lat="43.82585" lon="3.61766">
        <ele>160.2</ele>
        <time>2019-12-15T15:49:41.000Z</time>
      </trkpt>
      <trkpt lat="43.82581" lon="3.61789">
        <ele>160.2</ele>
        <time>2019-12-15T15:49:58.000Z</time>
      </trkpt>
      <trkpt lat="43.82576" lon="3.61809">
        <ele>160.7</ele>
        <time>2019-12-15T15:50:14.000Z</time>
      </trkpt>
      <trkpt lat="43.82571" lon="3.61818">
        <ele>159.7</ele>
        <time>2019-12-15T15:50:28.000Z</time>
      </trkpt>
      <trkpt lat="43.82566" lon="3.61821">
        <ele>159.7</ele>
        <time>2019-12-15T15:50:39.000Z</time>
      </trkpt>
      <trkpt lat="43.82563" lon="3.61824">
        <ele>159.7</ele>
        <time>2019-12-15T15:50:51.000Z</time>
      </trkpt>
      <trkpt lat="43.82561" lon="3.61824">
        <ele>159.7</ele>
        <time>2019-12-15T15:51:1.000Z</time>
      </trkpt>
      <trkpt lat="43.8256" lon="3.61822">
        <ele>159.7</ele>
        <time>2019-12-15T15:51:11.000Z</time>
      </trkpt>
      <trkpt lat="43.82564" lon="3.61821">
        <ele>160.2</ele>
        <time>2019-12-15T15:51:22.000Z</time>
      </trkpt>
      <trkpt lat="43.82563" lon="3.61821">
        <ele>160.2</ele>
        <time>2019-12-15T15:51:37.000Z</time>
      </trkpt>
      <trkpt lat="43.82563" lon="3.61824">
        <ele>160.2</ele>
        <time>2019-12-15T15:51:50.000Z</time>
      </trkpt>
      <trkpt lat="43.82564" lon="3.61821">
        <ele>159.7</ele>
        <time>2019-12-15T15:51:58.000Z</time>
      </trkpt>
      <trkpt lat="43.82566" lon="3.61817">
        <ele>159.7</ele>
        <time>2019-12-15T15:52:14.000Z</time>
      </trkpt>
      <trkpt lat="43.8257" lon="3.61816">
        <ele>159.7</ele>
        <time>2019-12-15T15:52:23.000Z</time>
      </trkpt>
      <trkpt lat="43.82571" lon="3.61817">
        <ele>160.2</ele>
        <time>2019-12-15T15:52:36.000Z</time>
      </trkpt>
      <trkpt lat="43.82573" lon="3.61815">
        <ele>160.2</ele>
        <time>2019-12-15T15:52:39.000Z</time>
      </trkpt>
      <trkpt lat="43.82574" lon="3.61814">
        <ele>160.2</ele>
        <time>2019-12-15T15:52:49.000Z</time>
      </trkpt>
      <trkpt lat="43.82575" lon="3.61815">
        <ele>159.7</ele>
        <time>2019-12-15T15:53:3.000Z</time>
      </trkpt>
      <trkpt lat="43.82575" lon="3.61809">
        <ele>159.7</ele>
        <time>2019-12-15T15:53:7.000Z</time>
      </trkpt>
      <trkpt lat="43.8258" lon="3.61788">
        <ele>159.7</ele>
        <time>2019-12-15T15:53:20.000Z</time>
      </trkpt>
      <trkpt lat="43.8258" lon="3.61786">
        <ele>160.2</ele>
        <time>2019-12-15T15:53:23.000Z</time>
      </trkpt>
      <trkpt lat="43.82585" lon="3.61767">
        <ele>160.2</ele>
        <time>2019-12-15T15:53:35.000Z</time>
      </trkpt>
      <trkpt lat="43.82586" lon="3.61766">
        <ele>159.7</ele>
        <time>2019-12-15T15:53:37.000Z</time>
      </trkpt>
      <trkpt lat="43.82606" lon="3.61763">
        <ele>158.8</ele>
        <time>2019-12-15T15:53:48.000Z</time>
      </trkpt>
      <trkpt lat="43.82621" lon="3.61774">
        <ele>158.3</ele>
        <time>2019-12-15T15:54:2.000Z</time>
      </trkpt>
      <trkpt lat="43.82634" lon="3.61781">
        <ele>157.8</ele>
        <time>2019-12-15T15:54:15.000Z</time>
      </trkpt>
      <trkpt lat="43.82648" lon="3.61792">
        <ele>157.8</ele>
        <time>2019-12-15T15:54:30.000Z</time>
      </trkpt>
      <trkpt lat="43.82667" lon="3.61801">
        <ele>157.8</ele>
        <time>2019-12-15T15:54:46.000Z</time>
      </trkpt>
      <trkpt lat="43.82687" lon="3.618">
        <ele>157.8</ele>
        <time>2019-12-15T15:55:1.000Z</time>
      </trkpt>
      <trkpt lat="43.82707" lon="3.61796">
        <ele>157.3</ele>
        <time>2019-12-15T15:55:16.000Z</time>
      </trkpt>
      <trkpt lat="43.8272" lon="3.61786">
        <ele>157.3</ele>
        <time>2019-12-15T15:55:28.000Z</time>
      </trkpt>
    </trkseg>
  </trk>
</gpx>